MPMG - Transparência

Contra-cheque - Remuneração de todos os servidores ativos - Pós Resolução CNMP 200/2019

Período: 2021 - Abril

Ordem Matrícula Nome Cargo Efetivo Lotação Rendimentos Descontos Rendimento Líquido Total *14 Data de Referência
Remuneração básica Remuneração eventual ou Temporária Outras Remunerações Temporárias *7 Verbas Indenizatórias *8 Total de Rendimentos Brutos *9 Obrigatórios Legais Outros Descontos Eventuais Total de descontos *13
Remuneração do Cargo Efetivo *1 Outras Verbas Remuneratórias *2 Função de Confiança ou Cargo em Comissão *3 Gratificação Natalina *4 Férias 1/3 Constitucional *5 Abono de Permanência *6 Contribuição Previdenciária *10 Imposto de Renda *11 Retenção por Teto Constitucional *12
1 498900 ABDON MARCIO BARBOSA DA SILVA OFICIAL DO MP ABRE CAMPO - COMARCA; ABRE CAMPO-PJ-01PJ 6.123,79 612,38 0,00 0,00 0,00 0,00 0,00 1.717,00 8.453,17 890,06 634,05 0,00 0,00 1.524,11 6.929,06 30/04/2021
2 177800 ADALBERTO MENEZES FARIA SAMORA OFICIAL DO MP BELO HORIZONTE - COMARCA; DIR ESTRUTURA E PROCESSOS ORGANIZACIONAIS 15.272,02 6.108,81 0,00 0,00 0,00 0,00 313,59 5.137,93 26.832,35 3.233,21 4.016,96 0,00 0,00 7.250,17 19.582,18 30/04/2021
3 306400 ADALBERTO MOREIRA GONCALVES ANALISTA DO MP BELO HORIZONTE - COMARCA; BH-24PJ JUIZO REG BARREIRO-SECRETARIA 16.750,82 5.025,25 0,00 0,00 0,00 0,00 479,07 6.943,26 29.198,40 3.296,45 4.212,54 0,00 0,00 7.508,99 21.689,41 30/04/2021
4 179300 ADENISE AUXILIADORA SOUZA SAD OFICIAL DO MP BARBACENA - COMARCA; BARBACENA-PJ-06PJ 14.790,66 5.916,26 0,00 0,00 0,00 0,00 303,70 5.030,11 26.040,73 3.125,38 3.861,29 0,00 0,00 6.986,67 19.054,06 30/04/2021
5 272200 ADILSON BATISTA ORNELAS OFICIAL DO MP LAVRAS - COMARCA; LAVRAS-PJ-SECRETARIA 5.136,32 1.540,90 0,00 0,00 0,00 0,00 0,00 1.717,00 8.394,22 880,63 672,57 0,00 0,00 1.553,20 6.841,02 30/04/2021
6 380100 ADILSON GONCALVES DE MELO JUNIOR ANALISTA DO MP ARAXÁ - COMARCA; ARAXA-PJ-05PJ 10.736,08 2.147,22 0,00 0,00 0,00 0,00 0,00 2.486,39 15.369,69 1.873,61 2.054,03 0,00 0,00 3.927,64 11.442,05 30/04/2021
7 148800 ADILSON JANUARIO OFICIAL DO MP BELO HORIZONTE - COMARCA; BH-22PJ PES COM DEF E IDOSOS-SECRETARIA 18.820,14 13.174,10 0,00 0,00 0,00 0,00 469,25 6.836,08 39.299,57 4.931,36 6.520,79 0,00 0,00 11.452,15 27.847,42 30/04/2021
8 322601 ADMILSON SILVEIRA ANALISTA DO MP SAO JOAO DO PARAISO COMARCA; SAO JOAO DO PARAISO-PJ-UNPJ 9.146,93 914,69 0,00 0,00 0,00 0,00 0,00 1.717,00 11.778,62 1.422,14 1.506,50 0,00 0,00 2.928,64 8.849,98 30/04/2021
9 333700 ADRIANA ABRITTA TEIXEIRA OFICIAL DO MP BELO HORIZONTE - COMARCA; DIRET DE PESSOAL DO MINISTERIO PUBLICO - DPMP 10.069,62 3.020,89 0,00 0,00 0,00 0,00 0,00 1.717,00 14.807,51 1.906,76 2.206,17 0,00 0,00 4.112,93 10.694,58 30/04/2021
10 468500 ADRIANA APARECIDA FIRMINO ANALISTA DO MP CARATINGA - COMARCA; CARATINGA-PJ-04PJ 10.069,62 2.013,92 0,00 0,00 0,00 0,00 0,00 2.486,39 14.569,93 1.745,64 1.921,43 0,00 0,00 3.667,07 10.902,86 30/04/2021
11 326100 ADRIANA AUGUSTA AMARAL BELO OFICIAL DO MP BARBACENA - COMARCA; BARBACENA-PJ-08PJ 10.069,62 3.020,89 0,00 0,00 0,00 0,00 0,00 1.717,00 14.807,51 1.906,76 2.101,90 0,00 0,00 4.008,66 10.798,85 30/04/2021
12 605700 ADRIANA COSTA LIRA ASSESSOR/OFICIAL BELO HORIZONTE - COMARCA; COORD ESTADUAL DE DEFESA DA EDUCACAO 0,00 817,05 8.170,49 0,00 0,00 0,00 0,00 1.717,00 10.704,54 856,09 1.366,79 0,00 0,00 2.222,88 8.481,66 30/04/2021
13 541100 ADRIANA CRISTINA DE OLIVEIRA OFICIAL DO MP GUAPÉ - COMARCA; GUAPE-PJ-UNPJ 5.387,19 538,72 0,00 0,00 0,00 0,00 0,00 2.486,39 8.412,30 762,96 498,31 0,00 0,00 1.261,27 7.151,03 30/04/2021
14 254800 ADRIANA DAS GRACAS FERNANDES ANALISTA DO MP UBERABA - COMARCA; UBERABA-PJ-07PJ 18.103,37 12.672,36 0,00 0,00 0,00 0,00 451,38 6.641,12 37.868,23 4.736,39 6.239,32 0,00 0,00 10.975,71 26.892,52 30/04/2021
15 217400 ADRIANA DE CARVALHO CATAO BRAGA ASSESSOR BELO HORIZONTE - COMARCA; DIV FISCAL ADM CONT TERCEIRIZACAO 0,00 3.268,20 8.170,49 0,00 3.812,90 0,00 0,00 1.717,00 16.968,59 751,99 3.447,48 0,00 0,00 4.199,47 12.769,12 30/04/2021
16 434600 ADRIANA FERREIRA DA SILVA ANALISTA DO MP BELO HORIZONTE - COMARCA; BH-14PJ DEFESA CONSUMIDOR-GAB 112PJ 12.601,30 2.520,26 0,00 0,00 0,00 0,00 0,00 1.717,00 16.838,56 2.231,73 2.675,34 0,00 0,00 4.907,07 11.931,49 30/04/2021
17 499800 ADRIANA FERREIRA TIAGO OFICIAL DO MP SALINAS - COMARCA; SALINAS-PJ-02PJ 7.421,79 742,18 0,00 0,00 2.721,32 0,00 0,00 1.717,00 12.602,29 1.118,51 1.816,50 0,00 0,00 2.935,01 9.667,28 30/04/2021
18 543400 ADRIANA GUIMARAES NUNES DE PAULA ANALISTA DO MP PATROCÍNIO - COMARCA; PATROCINIO-PJ-01PJ 9.146,93 914,69 0,00 0,00 0,00 0,00 0,00 1.717,00 11.778,62 1.422,14 1.506,50 0,00 0,00 2.928,64 8.849,98 30/04/2021
19 471500 ADRIANA HORTA DE CARVALHO RODRIGUES DE SOUSA ANALISTA DO MP BELO HORIZONTE - COMARCA; GRUPO ESP PROM JUST DEF PROB ADM PAT PUB 10.069,62 2.013,92 0,00 0,00 0,00 0,00 0,00 1.717,00 13.800,54 1.745,64 1.921,43 0,00 0,00 3.667,07 10.133,47 30/04/2021
20 86400 ADRIANA MOREIRA CALDEIRA BRANT OFICIAL DO MP BELO HORIZONTE - COMARCA; BH-21PJ TUTELA FUNDACOES-SECRETARIA 15.272,02 10.690,41 0,00 0,00 0,00 3.966,27 0,00 1.717,00 31.645,70 3.966,27 6.270,31 0,00 0,00 10.236,58 21.409,12 30/04/2021
21 480700 ADRIANA MOREIRA DE AVELLAR CEZILIO OFICIAL DO MP BELO HORIZONTE - COMARCA; BH-18PJ VIOLENCIA DOMESTICA-SECRETARIA 6.123,79 1.224,76 0,00 0,00 0,00 0,00 0,00 1.717,00 9.065,55 988,05 775,50 0,00 0,00 1.763,55 7.302,00 30/04/2021
22 326000 ADRIANA PEREIRA CARNEIRO RESENDE OFICIAL DO MP BELO HORIZONTE - COMARCA; BH-25PJ DEFESA DA EDUCACAO-SECRETARIA 9.752,14 2.925,64 0,00 0,00 0,00 0,00 0,00 1.717,00 14.394,78 1.840,72 2.110,83 0,00 0,00 3.951,55 10.443,23 30/04/2021
23 502200 ADRIANA PETRUCCI DAVINA OFICIAL DO MP PATROCÍNIO - COMARCA; PATROCINIO-PJ-01PJ 7.663,37 766,34 0,00 0,00 0,00 0,00 0,00 2.486,39 10.916,10 1.161,03 1.129,53 0,00 0,00 2.290,56 8.625,54 30/04/2021
24 201900 ADRIANA REIS PIMENTA OFICIAL DO MP TEÓFILO OTONI - COMARCA; TEOFILO OTONI-PJ-03PJ 14.790,66 5.916,26 0,00 0,00 0,00 0,00 303,70 5.030,11 26.040,73 3.125,38 3.965,56 0,00 0,00 7.090,94 18.949,79 30/04/2021
25 278700 ADRIANA RODRIGUES PINTO COELHO AMARAL ANALISTA DO MP BELO HORIZONTE - COMARCA; ASSESS TECNICA DA CORREGEDORIA-GERAL DO MP 17.413,92 5.224,18 0,00 0,00 0,00 0,00 498,04 7.150,14 30.286,28 3.434,37 4.359,53 0,00 0,00 7.793,90 22.492,38 30/04/2021
26 468000 ADRIANA SANTOS DE SANTANA MOREIRA ANALISTA DO MP ARAÇUAÍ - COMARCA; ARACUAI-PJ-02PJ 10.069,62 4.027,85 0,00 0,00 0,00 0,00 0,00 1.717,00 15.814,47 2.067,87 2.334,51 0,00 0,00 4.402,38 11.412,09 30/04/2021
27 194700 ADRIANA TSUKIDE OFICIAL DO MP UBERABA - COMARCA; COORD REG BACIAS PARANAIBA BAIXO RIO GRANDE 14.790,66 5.916,26 0,00 0,00 0,00 0,00 0,00 1.717,00 22.423,92 3.125,38 3.913,43 0,00 0,00 7.038,81 15.385,11 30/04/2021
28 465500 ADRIANO CASSIANO MATOS ANALISTA DO MP ARAXÁ - COMARCA; ARAXA-PJ-02PJ 10.069,62 2.013,92 0,00 0,00 0,00 0,00 0,00 1.717,00 13.800,54 1.745,64 1.973,56 0,00 0,00 3.719,20 10.081,34 30/04/2021
29 500500 ADRIANO DE ALMEIDA SILVA OFICIAL DO MP UBERABA - COMARCA; UBERABA-PJ-12PJ 7.663,37 766,34 0,00 0,00 0,00 0,00 0,00 2.486,39 10.916,10 1.161,03 675,78 0,00 0,00 1.836,81 9.079,29 30/04/2021
30 187200 ADRIANO DE FREITAS MARON OFICIAL DO MP PONTE NOVA - COMARCA; PONTE NOVA-PJ-03PJ 12.601,30 11.341,17 0,00 0,00 0,00 3.643,07 526,73 7.463,19 35.575,46 3.643,07 5.714,82 0,00 0,00 9.357,89 26.217,57 30/04/2021
31 477900 ADRIANO FERREIRA DE ALMEIDA OFICIAL DO MP TAIOBEIRAS - COMARCA; TAIOBEIRAS-PJ-UNPJ 7.663,37 1.532,67 0,00 0,00 0,00 0,00 303,47 5.027,57 14.527,08 1.283,64 1.202,28 0,00 0,00 2.485,92 12.041,16 30/04/2021
32 269101 ADRIANO PEREIRA SILVA ANALISTA DO MP UBERABA - COMARCA; UBERABA-PJ-02PJ 10.069,62 2.013,92 0,00 0,00 0,00 0,00 0,00 2.486,39 14.569,93 1.745,64 1.817,15 0,00 0,00 3.562,79 11.007,14 30/04/2021
33 414200 ADRIANO RODRIGUES FERNANDES ANALISTA DO MP CARANDAÍ - COMARCA; CARANDAI-PJ-UNPJ 10.069,62 2.013,92 0,00 0,00 0,00 0,00 0,00 1.717,00 13.800,54 1.745,64 1.869,29 0,00 0,00 3.614,93 10.185,61 30/04/2021
34 536700 ADRIELLE COSTA MARIA MOURAO FIGUEIREDO OFICIAL DO MP SERRO - COMARCA; SERRO-PJ-SECRETARIA 5.387,19 538,72 0,00 0,00 0,00 0,00 0,00 2.486,39 8.412,30 762,96 550,45 0,00 0,00 1.313,41 7.098,89 30/04/2021
35 514300 ADRIENE DAMASCENO BRAGA ANALISTA DO MP ALFENAS - COMARCA; ALFENAS-PJ-03PJ 10.069,62 1.006,96 0,00 0,00 0,00 0,00 0,00 2.486,39 13.562,97 1.584,53 1.740,95 0,00 0,00 3.325,48 10.237,49 30/04/2021
36 254600 ADRIENE DOMINGUES COSTA ANALISTA DO MP BELO HORIZONTE - COMARCA; SUPERINTENDENCIA DE RECURSOS HUMANOS 16.750,82 5.025,25 0,00 0,00 0,00 0,00 0,00 0,00 21.776,07 3.296,45 4.212,54 0,00 0,00 7.508,99 14.267,08 30/04/2021
37 252001 ADRIENE GOMES BARRETO ANALISTA DO MP BELO HORIZONTE - COMARCA; BH-19PJ SAUDE-SECRETARIA 047PJ 14.324,23 5.729,69 0,00 0,00 0,00 0,00 294,12 4.925,63 25.273,67 3.020,90 3.814,72 0,00 0,00 6.835,62 18.438,05 30/04/2021
38 645000 AFONSO CELSO GUIMARAES JUNIOR OFICIAL DO MP PIRAPORA - COMARCA; PIRAPORA-PJ-01PJ 4.376,03 262,56 0,00 0,00 0,00 0,00 0,00 1.717,00 6.355,59 563,43 280,78 0,00 0,00 844,21 5.511,38 30/04/2021
39 302500 AGENOR JOSE DA SILVA JUNIOR ANALISTA DO MP JUIZ DE FORA - COMARCA; JUIZ DE FORA-PJ-14PJ 16.750,82 5.025,25 0,00 0,00 0,00 0,00 479,07 6.943,26 29.198,40 3.296,45 4.108,26 0,00 0,00 7.404,71 21.793,69 30/04/2021
40 357500 AILSON WAGNER DE ALENCAR SILVA OFICIAL DO MP BELO HORIZONTE - COMARCA; BH-12PJ JUIZO CRIMINAL-SECRETARIA 10.069,62 4.027,85 0,00 0,00 0,00 0,00 0,00 1.717,00 15.814,47 2.067,87 2.282,37 0,00 0,00 4.350,24 11.464,23 30/04/2021
41 366400 AILTON ALEXSSANDRO ALVES OFICIAL DO MP PARÁ DE MINAS - COMARCA; PARA DE MINAS-PJ-05PJ 9.444,70 3.777,88 0,00 0,00 0,00 0,00 0,00 1.717,00 14.939,58 1.927,89 2.236,68 0,00 0,00 4.164,57 10.775,01 30/04/2021
42 318900 AILTON DE CASTRO RIBEIRO JUNIOR OFICIAL DO MP ITAJUBA - COMARCA; ITAJUBA-PJ-01PJ 10.069,62 3.020,89 0,00 0,00 0,00 0,00 0,00 2.486,39 15.576,90 1.906,76 1.997,62 0,00 0,00 3.904,38 11.672,52 30/04/2021
43 464400 ALAN MONTEIRO GASPAR ANALISTA DO MP SETE LAGOAS - COMARCA; SETE LAGOAS-PJ-08PJ 10.069,62 2.013,92 0,00 0,00 0,00 0,00 0,00 1.717,00 13.800,54 1.745,64 1.973,56 0,00 0,00 3.719,20 10.081,34 30/04/2021
44 492000 ALANA DE CASTRO FREITAS OFICIAL DO MP ITUMIRIM - COMARCA; ITUMIRIM-PJ-SECRETARIA 6.123,79 612,38 0,00 0,00 0,00 0,00 0,00 1.717,00 8.453,17 890,06 738,32 0,00 0,00 1.628,38 6.824,79 30/04/2021
45 306700 ALANA MARCIA DE OLIVEIRA OFICIAL DO MP BELO HORIZONTE - COMARCA; DIRETORIA DE ADMINISTRACAO FINANCEIRA 9.752,14 2.925,64 0,00 0,00 0,00 0,00 0,00 1.717,00 14.394,78 1.840,72 2.110,83 0,00 0,00 3.951,55 10.443,23 30/04/2021
46 324500 ALANMAR COUTINHO COSTA OFICIAL DO MP LEOPOLDINA - COMARCA; LEOPOLDINA-PJ-02PJ 9.444,70 2.833,41 0,00 0,00 0,00 0,00 0,00 1.717,00 13.995,11 1.776,77 1.914,23 0,00 0,00 3.691,00 10.304,11 30/04/2021
47 407300 ALBERTO LUIZ SOARES DE OLIVEIRA ANALISTA DO MP BELO HORIZONTE - COMARCA; DIRETORIA DE PROJETOS DE EDIFICACOES 12.601,30 2.520,26 0,00 0,00 0,00 0,00 0,00 1.717,00 16.838,56 2.231,73 2.675,34 0,00 0,00 4.907,07 11.931,49 30/04/2021
48 118200 ALBERTO PEREIRA DA COSTA OFICIAL DO MP DORES DO INDAIÁ - COMARCA; DORES DO INDAIA-PJ-UNPJ 16.750,82 15.075,74 0,00 0,00 0,00 4.904,53 350,09 5.536,19 42.617,37 4.904,53 7.830,81 0,00 0,00 12.735,34 29.882,03 30/04/2021
49 282400 ALCILENE MARISE DE ARAUJO ANALISTA DO MP BELO HORIZONTE - COMARCA; BH-23PJ INF-FISC MED SOC FEC 17.413,92 5.224,18 0,00 0,00 0,00 0,00 498,04 7.150,14 30.286,28 3.434,37 4.307,39 0,00 0,00 7.741,76 22.544,52 30/04/2021
50 112600 ALCIONE DA MOTA JARDIM OFICIAL DO MP BELO HORIZONTE - COMARCA; CAO-CRIANCAS E ADOLESCENTES-SECRETARIA 13.872,60 9.710,82 0,00 0,00 0,00 0,00 0,00 1.717,00 25.300,42 3.585,62 4.577,90 0,00 0,00 8.163,52 17.136,90 30/04/2021
51 396400 ALCIONE DE FREITAS E SILVA ANALISTA DO MP BELO HORIZONTE - COMARCA; ASSESS JUR DO CONS SUPERIOR DO MINISTERIO PUB 14.324,23 5.729,69 0,00 0,00 0,00 0,00 0,00 1.717,00 21.770,92 3.020,90 3.814,72 0,00 0,00 6.835,62 14.935,30 30/04/2021
52 657400 ALCIONE MARIA FERREIRA ASSESSOR PROCURADOR JUSTICA BELO HORIZONTE - COMARCA; PROC JUST RECURSOS ESP E EXTRAORD CRIMINAIS 0,00 0,00 8.222,36 0,00 0,00 0,00 0,00 682,36 8.904,72 751,99 1.229,92 0,00 0,00 1.981,91 6.922,81 30/04/2021
53 161600 ALCIONE NERY SOUZA ASSESSOR BELO HORIZONTE - COMARCA; BH-18PJ DIREITOS HUMANOS-SECRETARIA 0,00 4.085,25 8.170,49 0,00 0,00 0,00 0,00 1.717,00 13.972,74 751,99 2.623,62 0,00 0,00 3.375,61 10.597,13 30/04/2021
54 376000 ALDA GOMES LANA OFICIAL DO MP BELO HORIZONTE - COMARCA; BH-18PJ VIOLENCIA DOMESTICA-SECRETARIA 8.858,43 1.771,69 0,00 0,00 0,00 0,00 0,00 1.717,00 12.347,12 1.513,10 1.585,68 0,00 0,00 3.098,78 9.248,34 30/04/2021
55 148000 ALDA MARTINS SIMOES OFICIAL DO MP BELO HORIZONTE - COMARCA; BH-23PJ CIVEL- FISC ENT AB POL 17.413,92 8.706,96 0,00 0,00 0,00 0,00 0,00 1.717,00 27.837,88 3.991,62 5.216,19 0,00 0,00 9.207,81 18.630,07 30/04/2021
56 318400 ALDO CREPALDI JUNIOR OFICIAL DO MP BELO HORIZONTE - COMARCA; DIVISAO DE MATERIAIS 9.752,14 2.925,64 0,00 0,00 0,00 0,00 0,00 1.717,00 14.394,78 1.840,72 2.058,69 0,00 0,00 3.899,41 10.495,37 30/04/2021
57 604500 ALENIZE APARECIDA RODRIGUES HENRIQUE OFICIAL DO MP RIO NOVO - COMARCA; RIO NOVO-PJ-UNPJ 5.387,19 538,72 0,00 0,00 0,00 0,00 0,00 1.717,00 7.642,91 762,96 550,45 0,00 0,00 1.313,41 6.329,50 30/04/2021
58 197900 ALESSA DE SOUSA E SILVA OFICIAL DO MP OLIVEIRA - COMARCA; OLIVEIRA-PJ-02PJ 15.272,02 6.108,81 0,00 0,00 0,00 0,00 313,59 5.263,93 26.958,35 3.233,21 4.016,96 0,00 0,00 7.250,17 19.708,18 30/04/2021
59 428500 ALESSANDRA ALVES DINIZ OFICIAL DO MP BELO HORIZONTE - COMARCA; CENTRAL DE APOIO TECNICO-SECRETARIA 6.123,79 3.061,90 0,00 0,00 0,00 0,00 0,00 1.717,00 10.902,69 1.281,99 1.304,16 0,00 0,00 2.586,15 8.316,54 30/04/2021
60 286801 ALESSANDRA BOTELHO JUNQUEIRA DE MENEZES ANALISTA DO MP PASSOS - COMARCA; PASSOS-PJ-05PJ 13.011,52 5.204,61 0,00 0,00 0,00 0,00 66,79 3.215,04 21.497,96 2.726,86 3.181,64 0,00 0,00 5.908,50 15.589,46 30/04/2021
61 307000 ALESSANDRA CRISTINA SANTOS MENDES ANALISTA DO MP BELO HORIZONTE - COMARCA; BH-18PJ VIOLENCIA DOMESTICA-SECRETARIA 12.204,02 3.661,21 0,00 0,00 0,00 0,00 0,00 1.717,00 17.582,23 2.350,71 2.795,00 0,00 0,00 5.145,71 12.436,52 30/04/2021
62 264400 ALESSANDRA DE SOUZA SANTOS ANALISTA DO MP BELO HORIZONTE - COMARCA; SUPERINTENDENCIA DOS ORGAOS COLEGIADOS 18.103,37 7.241,35 0,00 0,00 0,00 0,00 0,00 1.717,00 27.061,72 3.867,43 5.036,89 0,00 0,00 8.904,32 18.157,40 30/04/2021
63 441500 ALESSANDRA DRUMMOND DE FIGUEIREDO ROSSI ANALISTA DO MP BELO HORIZONTE - COMARCA; DIRETORIA DE PROJETOS DE EDIFICACOES 10.069,62 2.013,92 0,00 0,00 0,00 0,00 531,68 7.517,10 20.132,32 1.745,64 1.973,56 0,00 0,00 3.719,20 16.413,12 30/04/2021
64 524000 ALESSANDRA LUCIOLI DE BARROS GUERRA ANALISTA DO MP BELO HORIZONTE - COMARCA; BH-19PJ SAUDE--SECRETARIA 10.069,62 1.006,96 0,00 0,00 0,00 0,00 0,00 1.717,00 12.793,58 1.584,53 1.584,54 0,00 0,00 3.169,07 9.624,51 30/04/2021
65 479900 ALESSANDRA MARA ANDRADE DE FARIA OFICIAL DO MP UBERABA - COMARCA; UBERABA-PJ-09PJ 7.663,37 1.532,67 0,00 0,00 0,00 0,00 0,00 1.717,00 10.913,04 1.283,64 1.306,55 0,00 0,00 2.590,19 8.322,85 30/04/2021
66 226700 ALESSANDRA MARA VASCONCELOS REZENDE OFICIAL DO MP CONSELHEIRO LAFAIETE - COMARCA; CONSELHEIRO LAFAIETE-PJ-07PJ 10.397,52 3.119,26 0,00 0,00 4.505,59 0,00 0,00 1.717,00 19.739,37 1.974,96 3.543,68 0,00 0,00 5.518,64 14.220,73 30/04/2021
67 112100 ALESSANDRA MARCIA FERREIRA OFICIAL DO MP BELO HORIZONTE - COMARCA; BELO HORIZONTE- SECRETARIA DAS PROMOTORIAS 10.069,62 7.048,73 0,00 0,00 0,00 0,00 0,00 1.717,00 18.835,35 2.551,21 3.136,60 0,00 0,00 5.687,81 13.147,54 30/04/2021
68 196500 ALESSANDRA MARIA RIBEIRO LUCIANO OFICIAL DO MP RIO PARANAÍBA - COMARCA; RIO PARANAIBA-PJ-UNPJ 15.272,02 6.108,81 0,00 0,00 0,00 0,00 0,00 1.717,00 23.097,83 3.233,21 4.016,96 0,00 0,00 7.250,17 15.847,66 30/04/2021
69 91400 ALESSANDRA MENDES VASCONCELOS DE SOUZA OFICIAL DO MP BELO HORIZONTE - COMARCA; BH-23PJ INF-FISC MED SOC AB 18.820,14 13.174,10 0,00 0,00 0,00 4.931,36 0,00 1.717,00 38.642,60 4.931,36 7.929,06 0,00 0,00 12.860,42 25.782,18 30/04/2021
70 651700 ALESSANDRA PROFIRIO SOUZA OFICIAL DO MP NOVA ERA - COMARCA; NOVA ERA-PJ-UNPJ 4.376,03 262,56 0,00 0,00 0,00 0,00 0,00 1.717,00 6.355,59 570,31 236,58 0,00 0,00 806,89 5.548,70 30/04/2021
71 384900 ALESSANDRA RODRIGUES ANALISTA DO MP VISCONDE DO RIO BRANCO - COMARCA; VISCONDE DO RIO BRANCO-PJ-03PJ 14.324,23 2.864,85 0,00 0,00 0,00 0,00 63,03 3.173,95 20.426,06 2.562,53 3.048,67 0,00 0,00 5.611,20 14.814,86 30/04/2021
72 390000 ALESSANDRA SPADANO MASSARA VASCONCELOS OFICIAL DO MP BETIM - COMARCA; BETIM-PJ-10PJ 8.858,43 1.771,69 0,00 0,00 0,00 0,00 0,00 1.717,00 12.347,12 1.513,10 1.637,82 0,00 0,00 3.150,92 9.196,20 30/04/2021
73 426500 ALESSANDRO CAMPOS DE PAIVA ANALISTA DO MP BELO HORIZONTE - COMARCA; CENTRO PUBLICIDADE E DESIGN GRAFICO 13.011,52 2.602,30 0,00 0,00 0,00 0,00 0,00 1.717,00 17.330,82 2.310,49 2.789,06 0,00 0,00 5.099,55 12.231,27 30/04/2021
74 623400 ALESSANDRO DE OLIVEIRA REZENDE ANALISTA DO MP BELO HORIZONTE - COMARCA; DIRET DE INFORMACAO E CONHECIMENTO-DINC/CEAF 8.436,53 843,65 0,00 0,00 0,00 0,00 0,00 1.717,00 10.997,18 1.297,11 1.325,98 0,00 0,00 2.623,09 8.374,09 30/04/2021
75 420600 ALESSANDRO SILVA OFICIAL DO MP VISCONDE DO RIO BRANCO - COMARCA; VISCONDE DO RIO BRANCO-PJ-02PJ 8.436,53 2.530,96 0,00 0,00 0,00 0,00 0,00 1.717,00 12.684,49 1.567,08 1.187,43 0,00 0,00 2.754,51 9.929,98 30/04/2021
76 375301 ALETHEIA PATRICIA ASSIS MORAIS MOREIRA ANALISTA DO MP ITABIRA - COMARCA; ITABIRA-PJ-02PJ 10.069,62 1.006,96 0,00 0,00 0,00 0,00 0,00 3.255,78 14.332,36 1.584,53 1.688,82 0,00 0,00 3.273,35 11.059,01 30/04/2021
77 382300 ALEX CARVALHO LIMA ANALISTA DO MP UBERLÂNDIA - COMARCA; UBERLANDIA-PJ-14PJ 14.324,23 2.864,85 0,00 0,00 0,00 0,00 63,03 2.404,56 19.656,67 2.562,53 3.152,94 0,00 0,00 5.715,47 13.941,20 30/04/2021
78 195201 ALEX DE CASTRO PEREIRA ANALISTA DO MP UBERABA - COMARCA; UBERABA-PJ-09PJ 17.413,92 6.965,57 0,00 0,00 0,00 0,00 536,35 7.568,08 32.483,92 3.713,00 4.813,92 0,00 0,00 8.526,92 23.957,00 30/04/2021
79 358900 ALEX DE PAULA LANZA ASSESSOR BELO HORIZONTE - COMARCA; CENTRO JORNALISMO 0,00 0,00 10.397,52 0,00 0,00 0,00 38,12 2.902,29 13.337,93 751,99 2.112,61 0,00 0,00 2.864,60 10.473,33 30/04/2021
80 178400 ALEX RODRIGO SALDANHA GUIMARAES OFICIAL DO MP BELO HORIZONTE - COMARCA; DIRETORIA DE SISTEMAS DE INFORMACAO 6.123,79 2.449,52 0,00 0,00 0,00 0,00 0,00 1.717,00 10.290,31 1.184,01 1.162,70 0,00 0,00 2.346,71 7.943,60 30/04/2021
81 413500 ALEX VILELA OLIVEIRA ANALISTA DO MP GOVERNADOR VALADARES - COMARCA; COORD REG PJ DEF EDU DIR CRIANCA ADOL RIODOCE 13.011,52 2.602,30 0,00 0,00 0,00 0,00 0,00 1.717,00 17.330,82 2.310,49 2.789,06 0,00 0,00 5.099,55 12.231,27 30/04/2021
82 264300 ALEXANDRA FATIMA SARAIVA SOARES ANALISTA DO MP BELO HORIZONTE - COMARCA; CENTRAL DE APOIO TECN-SETOR DE MEIO AMBIENTE 18.103,37 5.431,01 0,00 0,00 0,00 0,00 0,00 1.717,00 25.251,38 3.577,78 4.618,71 0,00 0,00 8.196,49 17.054,89 30/04/2021
83 488000 ALEXANDRA LARA PAIS DE CARVALHO ANALISTA DO MP SERRO - COMARCA; SERRO-PJ-UNPJ 10.069,62 1.006,96 0,00 0,00 0,00 0,00 0,00 1.717,00 12.793,58 1.584,53 1.584,54 0,00 0,00 3.169,07 9.624,51 30/04/2021
84 256300 ALEXANDRA SANTOS GOMES OFICIAL DO MP BELO HORIZONTE - COMARCA; DIRETORIA GESTAO COMPRAS LICITACOES 10.069,62 3.020,89 0,00 0,00 0,00 0,00 0,00 1.717,00 14.807,51 1.906,76 2.206,17 0,00 0,00 4.112,93 10.694,58 30/04/2021
85 403300 ALEXANDRE AUGUSTO RODRIGUES ANALISTA DO MP ÁGUAS FORMOSAS - COMARCA; AGUAS FORMOSAS-PJ-UNPJ 10.069,62 2.013,92 0,00 0,00 0,00 0,00 0,00 3.255,78 15.339,32 1.745,64 1.973,56 0,00 0,00 3.719,20 11.620,12 30/04/2021
86 640900 ALEXANDRE BARBOSA MASCARENHAS ANALISTA DO MP BETIM - COMARCA; BETIM-PJ-02PJ 6.741,63 404,50 0,00 0,00 0,00 0,00 0,00 1.717,00 8.863,13 841,65 477,10 0,00 0,00 1.318,75 7.544,38 30/04/2021
87 311700 ALEXANDRE BARCELOS RESENDE OFICIAL DO MP BELO HORIZONTE - COMARCA; BH-19PJ SAUDE-SECRETARIA 047PJ 7.912,85 1.582,57 0,00 0,00 0,00 0,00 0,00 2.486,39 11.981,81 1.331,54 1.375,71 0,00 0,00 2.707,25 9.274,56 30/04/2021
88 285600 ALEXANDRE CAMPOS DE OLIVEIRA OFICIAL DO MP UBERABA - COMARCA; COORD REG BACIAS PARANAIBA BAIXO RIO GRANDE 10.069,62 3.020,89 0,00 0,00 0,00 0,00 144,00 3.287,86 16.522,37 1.906,76 2.049,76 0,00 0,00 3.956,52 12.565,85 30/04/2021
89 509200 ALEXANDRE CAPUANO DE REZENDE ANALISTA DO MP BELO HORIZONTE - COMARCA; BH-07PJ 03 TRIBUNAL DO JURI-GAB 109PJ 10.069,62 1.006,96 0,00 0,00 0,00 0,00 0,00 1.717,00 12.793,58 1.584,53 1.688,82 0,00 0,00 3.273,35 9.520,23 30/04/2021
90 229400 ALEXANDRE CARLOS BOTREL DIRETOR/OFICIAL BELO HORIZONTE - COMARCA; SUPERINTENDENCIA DOS ORGAOS COLEGIADOS 0,00 5.224,18 17.413,92 0,00 0,00 0,00 498,04 7.150,14 30.286,28 2.518,67 4.663,48 0,00 0,00 7.182,15 23.104,13 30/04/2021
91 411900 ALEXANDRE CARVALHO SANTOS RIBEIRO ANALISTA DO MP OLIVEIRA - COMARCA; OLIVEIRA-PJ-02PJ 13.011,52 2.602,30 0,00 0,00 0,00 0,00 0,00 2.486,39 18.100,21 2.310,49 2.789,06 0,00 0,00 5.099,55 13.000,66 30/04/2021
92 641600 ALEXANDRE DA SILVA ASSUNCAO OFICIAL DO MP BELO HORIZONTE - COMARCA; SERVICO MEDICO-DEPTO PERIC MEDICA SAUDE OCUP 4.817,57 481,76 0,00 0,00 1.766,44 0,00 485,77 7.016,33 14.567,87 665,84 890,62 0,00 0,00 1.556,46 13.011,41 30/04/2021
93 201200 ALEXANDRE DE ALENCAR CORDEIRO OFICIAL DO MP ÁGUAS FORMOSAS - COMARCA; AGUAS FORMOSAS-PJ-UNPJ 6.123,79 3.061,90 0,00 0,00 0,00 0,00 0,00 1.717,00 10.902,69 1.281,99 1.304,16 0,00 0,00 2.586,15 8.316,54 30/04/2021
94 288200 ALEXANDRE DE VASCONCELOS COSTA KER ANALISTA DO MP BELO HORIZONTE - COMARCA; BH-03PJ EMPRESARIAL-SECRETARIA 16.750,82 5.025,25 0,00 0,00 0,00 0,00 479,07 6.943,26 29.198,40 3.296,45 4.160,40 0,00 0,00 7.456,85 21.741,55 30/04/2021
95 445000 ALEXANDRE DIOGENES OLIVEIRA ANALISTA DO MP SALINAS - COMARCA; SALINAS-PJ-02PJ 10.069,62 2.013,92 0,00 0,00 0,00 0,00 0,00 2.486,39 14.569,93 1.745,64 1.973,56 0,00 0,00 3.719,20 10.850,73 30/04/2021
96 463400 ALEXANDRE LEAL WINKELSTROTER ANALISTA DO MP TEÓFILO OTONI - COMARCA; TEOFILO OTONI-PJ-04PJ 10.069,62 2.013,92 0,00 0,00 0,00 0,00 0,00 1.717,00 13.800,54 1.745,64 1.973,56 0,00 0,00 3.719,20 10.081,34 30/04/2021
97 615700 ALEXANDRE LUIZ DE CASTRO MACIEL ANALISTA DO MP IBIRITÉ - COMARCA; IBIRITE-PJ-02PJ 8.436,53 843,65 0,00 0,00 0,00 0,00 0,00 1.717,00 10.997,18 1.297,11 1.325,98 0,00 0,00 2.623,09 8.374,09 30/04/2021
98 356900 ALEXANDRE MOISES MENDONCA E ARAUJO OFICIAL DO MP UBERABA - COMARCA; UBERABA-PJ-13PJ 7.421,79 1.484,36 0,00 0,00 0,00 0,00 0,00 1.717,00 10.623,15 1.237,26 1.239,58 0,00 0,00 2.476,84 8.146,31 30/04/2021
99 633300 ALEXANDRE NONATO MARTINS OFICIAL DO MP IGARAPÉ - COMARCA; IGARAPE-PJ-02PJ 4.817,57 481,76 0,00 0,00 0,00 0,00 0,00 1.717,00 7.016,33 668,35 363,18 0,00 0,00 1.031,53 5.984,80 30/04/2021
100 469900 ALEXANDRE PEREIRA GUEDES ANALISTA DO MP CATAGUASES - COMARCA; CATAGUASES-PJ-03PJ 10.069,62 2.013,92 0,00 0,00 0,00 0,00 0,00 1.717,00 13.800,54 1.745,64 1.973,56 0,00 0,00 3.719,20 10.081,34 30/04/2021
101 208700 ALEXANDRE RESENDE FRAGA ANALISTA DO MP BELO HORIZONTE - COMARCA; BH-19PJ SAUDE-SECRETARIA 130PJ 18.820,14 7.528,06 0,00 0,00 0,00 0,00 0,00 1.717,00 28.065,20 4.027,99 5.112,29 0,00 0,00 9.140,28 18.924,92 30/04/2021
102 216401 ALEXANDRE RIBEIRO DE LIMA MAIORINO ANALISTA DO MP UBERABA - COMARCA; UBERABA-PJ-03PJ 16.750,82 6.700,33 0,00 0,00 0,00 0,00 515,93 7.345,28 31.312,36 3.564,46 4.547,34 0,00 0,00 8.111,80 23.200,56 30/04/2021
103 475100 ALEXANDRE TEOTONIO COSTA ANALISTA DO MP ARAGUARI - COMARCA; ARAGUARI-PJ-01PJ 10.069,62 2.013,92 0,00 0,00 0,00 0,00 0,00 1.717,00 13.800,54 1.745,64 1.869,29 0,00 0,00 3.614,93 10.185,61 30/04/2021
104 339000 ALEXANDRE VITOR CARDOSO OFICIAL DO MP BELO HORIZONTE - COMARCA; PROMOT ESTADUAL DE DEF PATRI CULT E TUR DE MG 6.123,79 1.837,14 0,00 0,00 0,00 0,00 0,00 1.717,00 9.677,93 1.086,03 864,83 0,00 0,00 1.950,86 7.727,07 30/04/2021
105 678900 ALEXIA DUARTE TORRES ASSESSOR PROCURADOR JUSTICA BELO HORIZONTE - COMARCA; GABINETE DE PROCURADOR DE JUSTIÇA - SALA 502 0,00 0,00 7.187,72 0,00 0,00 0,00 0,00 1.717,00 8.904,72 751,99 1.229,92 0,00 0,00 1.981,91 6.922,81 30/04/2021
106 623100 ALEXSANDER BATISTA AGUIAR ANALISTA DO MP BELO HORIZONTE - COMARCA; DIRETORIA DE SUPORTE E MANUTENCAO 8.436,53 843,65 0,00 0,00 0,00 0,00 0,00 2.486,39 11.766,57 1.297,11 1.169,57 0,00 0,00 2.466,68 9.299,89 30/04/2021
107 513300 ALFSON MIRANDA BRAGA ANALISTA DO MP BELO HORIZONTE - COMARCA; BH-12PJ JUIZO CRIMINAL-GAB 092PJ 10.069,62 1.006,96 0,00 0,00 0,00 0,00 0,00 1.717,00 12.793,58 1.584,53 1.740,95 0,00 0,00 3.325,48 9.468,10 30/04/2021
108 618400 ALICE MAGALHAES MACEDO DE CARVALHO ANALISTA DO MP IPATINGA - COMARCA; IPATINGA-PJ-10PJ 8.436,53 843,65 0,00 0,00 3.093,39 0,00 0,00 2.486,39 14.859,96 1.297,11 2.176,67 0,00 0,00 3.473,78 11.386,18 30/04/2021
109 471000 ALICE TITONELI MOREIRA ANALISTA DO MP MIRADOURO - COMARCA; MIRADOURO-PJ-UNPJ 10.069,62 2.013,92 0,00 0,00 0,00 0,00 0,00 2.486,39 14.569,93 1.745,64 1.921,43 0,00 0,00 3.667,07 10.902,86 30/04/2021
110 622400 ALINE BALBINO PORTUGAL LOPES ANALISTA DO MP TRÊS PONTAS - COMARCA; TRES PONTAS-PJ-03PJ 8.436,53 843,65 0,00 0,00 0,00 0,00 0,00 2.486,39 11.766,57 1.297,11 1.325,98 0,00 0,00 2.623,09 9.143,48 30/04/2021
111 373000 ALINE BOTELHO RESENDE OFICIAL DO MP JUIZ DE FORA - COMARCA; JUIZ DE FORA-PJ-22PJ 8.579,10 1.715,82 0,00 0,00 0,00 0,00 0,00 1.717,00 12.011,92 1.459,46 1.560,39 0,00 0,00 3.019,85 8.992,07 30/04/2021
112 699800 ALINE CRISTINA DE OLIVEIRA AMARAL BARBOSA ASSESSOR PROCURADOR JUSTICA BELO HORIZONTE - COMARCA; GABINETE DE PROCURADOR DE JUSTIÇA - SALA 904 0,00 0,00 7.187,72 0,00 0,00 0,00 0,00 1.717,00 8.904,72 751,99 1.125,64 0,00 0,00 1.877,63 7.027,09 30/04/2021
113 407700 ALINE CRISTINA RODRIGUES PEREIRA COORDENADOR/ANALISTA BELO HORIZONTE - COMARCA; DIRETORIA DE PROJETOS DE EDIFICACOES 0,00 2.687,03 13.435,16 0,00 0,00 0,00 0,00 2.486,39 18.608,58 1.745,64 3.084,19 0,00 0,00 4.829,83 13.778,75 30/04/2021
114 193100 ALINE CRISTINA SENA OLIVEIRA OFICIAL DO MP UBERLÂNDIA - COMARCA; UBERLANDIA-PJ-03PJ 14.790,66 5.916,26 0,00 0,00 0,00 0,00 531,48 8.284,33 29.522,73 3.125,38 3.913,43 0,00 0,00 7.038,81 22.483,92 30/04/2021
115 554200 ALINE CRISTINA SILVA SOUZA OFICIAL DO MP TIROS - COMARCA; TIROS-PJ-UNPJ 5.930,75 593,08 0,00 0,00 0,00 0,00 0,00 1.717,00 8.240,83 856,09 689,27 0,00 0,00 1.545,36 6.695,47 30/04/2021
116 505500 ALINE DA CUNHA MARREIROS OLIVEIRA ANALISTA DO MP CARANGOLA - COMARCA; CARANGOLA-PJ-03PJ 10.069,62 1.006,96 0,00 0,00 0,00 0,00 0,00 2.486,39 13.562,97 1.584,53 1.688,82 0,00 0,00 3.273,35 10.289,62 30/04/2021
117 433500 ALINE DE MELO QUEIROZ ASSESSOR/OFICIAL BELO HORIZONTE - COMARCA; ASSESSORIA TECNICA DO PROCON-MG 0,00 2.079,50 10.397,52 0,00 0,00 0,00 0,00 2.486,39 14.963,41 1.459,46 2.160,47 0,00 0,00 3.619,93 11.343,48 30/04/2021
118 691100 ALINE DE MELO SOUZA ASSESSOR PROCURADOR JUSTICA BELO HORIZONTE - COMARCA; GABINETE DE PROCURADOR DE JUSTIÇA - SALA 401 0,00 0,00 7.187,72 0,00 0,00 0,00 0,00 1.717,00 8.904,72 751,99 1.229,92 0,00 0,00 1.981,91 6.922,81 30/04/2021
119 542700 ALINE DE SOUSA ALBINO ANALISTA DO MP CONTAGEM - COMARCA; CONTAGEM-PJ-09PJ 9.146,93 914,69 0,00 0,00 0,00 0,00 0,00 1.717,00 11.778,62 1.422,14 1.506,50 0,00 0,00 2.928,64 8.849,98 30/04/2021
120 330000 ALINE DIORIO MAYRINK OFICIAL DO MP BELO HORIZONTE - COMARCA; BH-15PJ M AMB PAT HIST CULT-GAB 115PJ 7.187,72 1.437,54 0,00 0,00 0,00 0,00 0,00 1.717,00 10.342,26 1.192,32 1.174,70 0,00 0,00 2.367,02 7.975,24 30/04/2021
121 499000 ALINE FERREIRA LOPES ANALISTA DO MP TEÓFILO OTONI - COMARCA; COORD. DE DEF. DO PAT. PUBLICO-JEQUIT./MUCURI 10.069,62 1.006,96 0,00 0,00 0,00 0,00 0,00 1.717,00 12.793,58 1.584,53 1.740,95 0,00 0,00 3.325,48 9.468,10 30/04/2021
122 405300 ALINE LAIA CARDOZO DIRETOR/ANALISTA BELO HORIZONTE - COMARCA; SUPERINTENDENCIA LOGISTICA SERVICOS 0,00 3.482,78 17.413,92 0,00 0,00 0,00 306,48 5.060,47 26.263,65 2.562,53 4.172,54 0,00 0,00 6.735,07 19.528,58 30/04/2021
123 278200 ALINE MARCIA FARIA BARBOSA FERNANDES OFICIAL DO MP BARBACENA - COMARCA; BARBACENA-PJ-SECRETARIA 7.421,79 2.226,54 0,00 0,00 0,00 0,00 0,00 1.717,00 11.365,33 1.356,01 1.254,62 0,00 0,00 2.610,63 8.754,70 30/04/2021
124 389000 ALINE NERI NOBRE ANALISTA DO MP MONTES CLAROS - COMARCA; COORD REG PJ DEF EDUC DIR CRIANCA ADOL NORTE 14.324,23 4.297,27 0,00 0,00 0,00 0,00 68,28 2.461,86 21.151,64 2.791,72 3.483,83 0,00 0,00 6.275,55 14.876,09 30/04/2021
125 294600 ALINE PATRICIA SILVA VIEIRA OFICIAL DO MP UBERLÂNDIA - COMARCA; UBERLANDIA-PJ-03PJ 10.069,62 3.020,89 0,00 0,00 0,00 0,00 1.445,27 1.717,00 16.252,78 1.906,76 2.499,35 0,00 0,00 4.406,11 11.846,67 30/04/2021
126 420000 ALINE RODRIGUES CAMOROPIN ANALISTA DO MP SABARÁ - COMARCA; SABARA-PJ-02PJ 13.011,52 2.602,30 0,00 0,00 0,00 0,00 0,00 1.717,00 17.330,82 2.310,49 2.789,06 0,00 0,00 5.099,55 12.231,27 30/04/2021
127 699600 ALINE SEPULVEDA ROSA PIRES ASSESSOR PROCURADOR JUSTICA BELO HORIZONTE - COMARCA; GABINETE DE PROCURADOR DE JUSTIÇA - SALA 905 0,00 0,00 7.187,72 0,00 0,00 0,00 0,00 1.717,00 8.904,72 751,99 1.229,92 0,00 0,00 1.981,91 6.922,81 30/04/2021
128 408300 ALINE SILVA ARAUJO DE PAULA ANALISTA DO MP SÃO SEBASTIÃO DO PARAÍSO - COMARCA; SAO SEBASTIAO DO PARAISO-PJ-02PJ 13.011,52 2.602,30 0,00 0,00 0,00 0,00 0,00 2.486,39 18.100,21 2.310,49 2.789,06 0,00 0,00 5.099,55 13.000,66 30/04/2021
129 425400 ALINE TRINDADE DE FREITAS CAMPOS OFICIAL DO MP BELO HORIZONTE - COMARCA; BH-14PJ DEFESA CONSUMIDOR-SECRETARIA 8.579,10 1.715,82 0,00 0,00 0,00 0,00 0,00 1.717,00 12.011,92 1.459,46 1.560,39 0,00 0,00 3.019,85 8.992,07 30/04/2021
130 517200 ALISSOM PEREIRA DA SILVA ANALISTA DO MP BORDA DA MATA - COMARCA; BORDA DA MATA-PJ-UNPJ 10.069,62 1.006,96 0,00 0,00 0,00 0,00 0,00 2.486,39 13.562,97 1.584,53 1.740,95 0,00 0,00 3.325,48 10.237,49 30/04/2021
131 442400 ALISSON LABRE ANALISTA DO MP VARGINHA - COMARCA; VARGINHA-PJ-03PJ 10.069,62 2.013,92 0,00 0,00 0,00 0,00 0,00 1.717,00 13.800,54 1.745,64 1.973,56 0,00 0,00 3.719,20 10.081,34 30/04/2021
132 643800 ALLAN PAUL FONSECA DE CASTRO ASSESSOR/OFICIAL CONTAGEM - COMARCA; CONTAGEM-PJ-SECRETARIA 0,00 1.039,75 10.397,52 0,00 138,63 0,00 418,95 2.519,66 14.514,51 730,31 2.227,55 0,00 0,00 2.957,86 11.556,65 30/04/2021
133 612900 ALLAN VINICIUS VIEIRA ARAUJO COORDENADOR/OFICIAL BELO HORIZONTE - COMARCA; DIRETORIA DE GESTAO DOCUMENTAL 0,00 1.343,52 13.435,16 0,00 0,00 0,00 0,00 1.717,00 16.495,68 762,96 2.984,96 0,00 0,00 3.747,92 12.747,76 30/04/2021
134 349000 ALLEC RODRIGUES VIEIRA OFICIAL DO MP BELO HORIZONTE - COMARCA; COORD EST DEF DIR FAM PESSOAS DEFICI IDOSOS 10.069,62 2.013,92 0,00 0,00 0,00 0,00 0,00 1.717,00 13.800,54 1.745,64 1.973,56 0,00 0,00 3.719,20 10.081,34 30/04/2021
135 297300 ALLYSON SALIBA MONTEIRO LAIZO ANALISTA DO MP CONSELHEIRO LAFAIETE - COMARCA; CONSELHEIRO LAFAIETE-PJ-03PJ 18.820,14 5.646,04 0,00 0,00 0,00 0,00 538,26 9.127,66 34.132,10 3.726,87 4.833,95 0,00 0,00 8.560,82 25.571,28 30/04/2021
136 303700 ALMIR LOPES LOURES ANALISTA DO MP BELO HORIZONTE - COMARCA; CENTRAL DE APOIO TECN-SETOR DE MEIO AMBIENTE 18.820,14 5.646,04 0,00 0,00 0,00 0,00 538,26 7.588,88 32.593,32 3.726,87 4.833,95 0,00 0,00 8.560,82 24.032,50 30/04/2021
137 696600 ALOIZIO MARTINS JALES JUNIOR ASSESSOR PROMOTOR JUSTICA CAMPESTRE - COMARCA; CAMPESTRE-PJ-SECRETARIA 0,00 0,00 7.187,72 0,00 0,00 0,00 0,00 1.717,00 8.904,72 751,99 1.229,92 0,00 0,00 1.981,91 6.922,81 30/04/2021
138 515900 ALTAIR NEVES JUNIOR OFICIAL DO MP BELO HORIZONTE - COMARCA; BH-01PJ FAZENDA PUBLICA-SECRETARIA 7.421,79 742,18 0,00 0,00 0,00 0,00 0,00 1.717,00 9.880,97 1.118,51 1.068,14 0,00 0,00 2.186,65 7.694,32 30/04/2021
139 233300 ALVARINDO BATISTA ANALISTA DO MP BELO HORIZONTE - COMARCA; NUCLEO APOIO TECNICO ESP COMUNICACAO 18.820,14 5.646,04 0,00 0,00 0,00 0,00 0,00 2.486,39 26.952,57 3.726,87 4.781,81 0,00 0,00 8.508,68 18.443,89 30/04/2021
140 274100 ALYSSON CARVALHO VIDAL DE LACERDA OFICIAL DO MP MANHUAÇU - COMARCA; MANHUACU-PJ-01PJ 10.069,62 3.020,89 0,00 0,00 0,00 0,00 0,00 1.717,00 14.807,51 1.906,76 2.206,17 0,00 0,00 4.112,93 10.694,58 30/04/2021
141 621000 AMANDA BASTOS ALVES ANALISTA DO MP BELO HORIZONTE - COMARCA; BH-07PJ 01 TRIBUNAL DO JURI-GAB 066PJ 8.436,53 843,65 0,00 0,00 0,00 0,00 0,00 1.717,00 10.997,18 1.297,11 1.325,98 0,00 0,00 2.623,09 8.374,09 30/04/2021
142 521700 AMANDA CRISTINA AGUIAR MACHADO OFICIAL DO MP CONGONHAS - COMARCA; CONGONHAS-PJ-01PJ 5.562,64 556,26 0,00 0,00 0,00 0,00 0,00 1.717,00 7.835,90 792,88 543,16 0,00 0,00 1.336,04 6.499,86 30/04/2021
143 613400 AMANDA DE ASSIS IUNES SANTOS ANALISTA DO MP CONGONHAS - COMARCA; CONGONHAS-PJ-01PJ 8.436,53 843,65 0,00 0,00 0,00 0,00 0,00 1.717,00 10.997,18 1.297,11 1.325,98 0,00 0,00 2.623,09 8.374,09 30/04/2021
144 695900 AMANDA DE OLIVEIRA ASSESSOR PROCURADOR JUSTICA BELO HORIZONTE - COMARCA; PROC JUST ATUACAO TRIBUNAIS SUPERIORES-GAB004 0,00 0,00 7.187,72 0,00 0,00 0,00 0,00 1.717,00 8.904,72 751,99 1.229,92 0,00 0,00 1.981,91 6.922,81 30/04/2021
145 520800 AMANDA DE SOUZA MACHADO ANALISTA DO MP BAEPENDI - COMARCA; BAEPENDI-PJ-UNPJ 10.069,62 1.006,96 0,00 0,00 0,00 0,00 0,00 1.717,00 12.793,58 1.584,53 1.636,68 0,00 0,00 3.221,21 9.572,37 30/04/2021
146 663900 AMANDA DENISE GONCALVES DA SILVA ASSESSOR BELO HORIZONTE - COMARCA; DIRET DE FORMACAO, APERFEIC. E POS-GRADUACAO 0,00 0,00 3.076,28 0,00 0,00 0,00 0,00 1.717,00 4.793,28 449,69 224,40 0,00 0,00 674,09 4.119,19 30/04/2021
147 677000 AMANDA LETICIA MESSIAS PEGO ASSESSOR PROMOTOR JUSTICA CORAÇÃO DE JESUS - COMARCA; CORACAO DE JESUS-PJ-UNPJ 0,00 0,00 7.187,72 0,00 0,00 0,00 0,00 1.717,00 8.904,72 751,99 1.229,92 0,00 0,00 1.981,91 6.922,81 30/04/2021
148 543100 AMANDA VIEIRA FREITAS BRESSANE ANALISTA DO MP VARGINHA - COMARCA; COORD REG DEF ORDEM ECONOMICA TRIB SUL MINAS 9.146,93 914,69 0,00 0,00 0,00 0,00 0,00 1.717,00 11.778,62 1.422,14 1.506,50 0,00 0,00 2.928,64 8.849,98 30/04/2021
149 434400 AMARILIS ASSIS SIMAO CURCIO ANALISTA DO MP MANHUAÇU - COMARCA; MANHUACU-PJ-SECRETARIA 10.069,62 2.013,92 0,00 0,00 0,00 0,00 0,00 1.717,00 13.800,54 1.745,64 1.973,56 0,00 0,00 3.719,20 10.081,34 30/04/2021
150 652000 AMAURI SILVA ALVES ASSESSOR/OFICIAL BELO HORIZONTE - COMARCA; BH-23PJ INFRACIONAL-SEC EXP 0,00 490,23 8.170,49 0,00 0,00 0,00 0,00 1.717,00 10.377,72 563,43 1.357,39 0,00 0,00 1.920,82 8.456,90 30/04/2021
151 273700 AMBROLINA CARNEIRO DE VASCONCELOS OFICIAL DO MP FRUTAL - COMARCA; FRUTAL-PJ-01PJ 11.085,56 7.759,90 0,00 0,00 0,00 0,00 276,40 4.732,27 23.854,13 2.827,55 3.483,43 0,00 0,00 6.310,98 17.543,15 30/04/2021
152 58000 AMELIA GUARIZE DE CASTRO OFICIAL DO MP JUIZ DE FORA - COMARCA; JUIZ DE FORA-PJ-SECRETARIA 6.741,63 6.741,63 0,00 0,00 0,00 1.969,60 0,00 1.717,00 17.169,86 1.969,60 2.838,54 0,00 0,00 4.808,14 12.361,72 30/04/2021
153 324301 AMERICA SUELI FERREIRA DA SILVA ANALISTA DO MP MONTE CARMELO - COMARCA; MONTE CARMELO-PJ-02PJ 10.069,62 2.013,92 0,00 0,00 0,00 0,00 0,00 2.486,39 14.569,93 1.745,64 1.921,43 0,00 0,00 3.667,07 10.902,86 30/04/2021
154 273300 AMUJACY DE BRITO ASSIZ OFICIAL DO MP BELO HORIZONTE - COMARCA; BH-12PJ JUIZO CRIMINAL-SECRETARIA 10.069,62 3.020,89 0,00 0,00 0,00 0,00 0,00 1.717,00 14.807,51 1.906,76 1.997,62 0,00 0,00 3.904,38 10.903,13 30/04/2021
155 482200 ANA ALICE LOPES ACHTSCHIN ANALISTA DO MP BELO HORIZONTE - COMARCA; PROC JUST ATUACAO TRIBUNAIS SUPERIORES-GAB002 10.736,08 2.147,22 0,00 0,00 0,00 0,00 0,00 1.717,00 14.600,30 1.873,61 2.158,30 0,00 0,00 4.031,91 10.568,39 30/04/2021
156 490400 ANA AMELIA PAULINO GARCIA OFICIAL DO MP CONTAGEM - COMARCA; CONTAGEM-PJ-SECRETARIA 7.663,37 766,34 0,00 0,00 2.809,90 0,00 0,00 1.717,00 12.956,61 1.161,03 1.902,25 0,00 0,00 3.063,28 9.893,33 30/04/2021
157 690400 ANA ANGELICA MOREIRA DA CUNHA ASSESSOR PROMOTOR JUSTICA TIMÓTEO - COMARCA; TIMOTEO-PJ-02PJ 0,00 0,00 7.187,72 0,00 0,00 0,00 0,00 1.717,00 8.904,72 751,99 1.229,92 0,00 0,00 1.981,91 6.922,81 30/04/2021
158 279100 ANA CAROLINA ARAUJO PEREIRA ANALISTA DO MP BELO HORIZONTE - COMARCA; DIRETORIA DE PROJETOS DE EDIFICACOES 18.820,14 5.646,04 0,00 0,00 0,00 0,00 0,00 1.717,00 26.183,18 3.726,87 4.781,81 0,00 0,00 8.508,68 17.674,50 30/04/2021
159 653300 ANA CAROLINA CYRNE DINIZ ASSESSOR BELO HORIZONTE - COMARCA; CENTRAL DE APOIO TECNICO-SETOR CONTABIL 0,00 0,00 8.170,49 0,00 0,00 0,00 0,00 1.717,00 9.887,49 751,99 1.500,18 0,00 0,00 2.252,17 7.635,32 30/04/2021
160 359400 ANA CAROLINA DE ABREU FARIA ASSESSOR BELO HORIZONTE - COMARCA; SUPERINTENDÊNCIA DE ENGENHARIA E ARQUITETURA 0,00 0,00 10.397,52 0,00 0,00 0,00 0,00 5.127,96 15.525,48 751,99 2.060,47 0,00 0,00 2.812,46 12.713,02 30/04/2021
161 408500 ANA CAROLINA DE CASTRO CARVALHO ANALISTA DO MP BARBACENA - COMARCA; BARBACENA - SECRETARIA DAS PJS CRIMINAIS 13.011,52 2.602,30 0,00 0,00 0,00 0,00 0,00 1.717,00 17.330,82 2.310,49 2.789,06 0,00 0,00 5.099,55 12.231,27 30/04/2021
162 688000 ANA CAROLINA DE OLIVEIRA PINTO ASSESSOR PROCURADOR JUSTICA BELO HORIZONTE - COMARCA; GABINETE DE PROCURADOR DE JUSTIÇA - SALA 1014 0,00 0,00 7.187,72 0,00 0,00 0,00 0,00 1.717,00 8.904,72 751,99 1.229,92 0,00 0,00 1.981,91 6.922,81 30/04/2021
163 420200 ANA CAROLINA FERNANDES SILVA ANALISTA DO MP BELO HORIZONTE - COMARCA; GABINETE DE PROCURADOR DE JUSTIÇA - SALA 704 12.601,30 2.520,26 0,00 0,00 0,00 0,00 499,01 7.160,76 22.781,33 2.231,73 2.675,34 0,00 0,00 4.907,07 17.874,26 30/04/2021
164 522100 ANA CAROLINA FERNANDINO VIDAL PEREIRA SANTOS OFICIAL DO MP BELO HORIZONTE - COMARCA; SECRETARIA DO PROCON-MG 7.421,79 742,18 0,00 0,00 0,00 0,00 0,00 1.717,00 9.880,97 1.118,51 1.068,14 0,00 0,00 2.186,65 7.694,32 30/04/2021
165 502400 ANA CAROLINA GONCALVES FERNANDES ANALISTA DO MP IPATINGA - COMARCA; IPATINGA-PJ-01PJ 10.069,62 1.006,96 0,00 0,00 0,00 0,00 0,00 2.486,39 13.562,97 1.584,53 1.740,95 0,00 0,00 3.325,48 10.237,49 30/04/2021
166 529900 ANA CAROLINA GONCALVES PECANHA CHEQUER ANALISTA DO MP MANHUAÇU - COMARCA; MANHUACU-PJ-04PJ 9.146,93 914,69 0,00 0,00 0,00 0,00 0,00 3.255,78 13.317,40 1.422,14 1.506,50 0,00 0,00 2.928,64 10.388,76 30/04/2021
167 431900 ANA CAROLINA MOTTA GUATIMOSIM ANALISTA DO MP BELO HORIZONTE - COMARCA; ASSESSORIA JURIDICO-ADMINISTRATIVA 12.601,30 2.520,26 0,00 0,00 0,00 0,00 0,00 2.486,39 17.607,95 2.231,73 2.675,34 0,00 0,00 4.907,07 12.700,88 30/04/2021
168 490600 ANA CAROLINA XAVIER GODOY ANALISTA DO MP BELO HORIZONTE - COMARCA; BH-18PJ DIREITOS HUMANOS-SECRETARIA 10.069,62 1.006,96 0,00 0,00 0,00 0,00 0,00 3.255,78 14.332,36 1.584,53 1.636,68 0,00 0,00 3.221,21 11.111,15 30/04/2021
169 600300 ANA CAROLINE PEREIRA DINIZ ANALISTA DO MP BELO HORIZONTE - COMARCA; COMB CRIMES PRAT POR AG POL MUN-SECRETARIA 9.146,93 914,69 0,00 0,00 0,00 0,00 0,00 2.486,39 12.548,01 1.422,14 1.506,50 0,00 0,00 2.928,64 9.619,37 30/04/2021
170 615800 ANA CAROLINE PEREIRA OLIVEIRA OFICIAL DO MP ALFENAS - COMARCA; ALFENAS-PJ-06PJ 5.387,19 538,72 0,00 0,00 0,00 0,00 0,00 1.717,00 7.642,91 762,96 550,45 0,00 0,00 1.313,41 6.329,50 30/04/2021
171 324800 ANA CECILIA MENDES DA SILVA OFICIAL DO MP OURO FINO - COMARCA; OURO FINO-PJ-01PJ 10.069,62 3.020,89 0,00 0,00 0,00 0,00 0,00 1.717,00 14.807,51 1.906,76 2.154,03 0,00 0,00 4.060,79 10.746,72 30/04/2021
172 698700 ANA CLARA SANTOS ALMEIDA ASSESSOR PROMOTOR JUSTICA SABINÓPOLIS - COMARCA; SABINOPOLIS-PJ-UNPJ 0,00 0,00 7.187,72 0,00 0,00 0,00 0,00 1.717,00 8.904,72 751,99 1.229,92 0,00 0,00 1.981,91 6.922,81 30/04/2021
173 441300 ANA CLAUDIA ALKIMIM MIRANDA BOMTEMPO ANALISTA DO MP MONTES CLAROS - COMARCA; MONTES CLAROS-PJ-11PJ 12.601,30 2.520,26 0,00 0,00 0,00 0,00 0,00 1.717,00 16.838,56 2.231,73 2.571,07 0,00 0,00 4.802,80 12.035,76 30/04/2021
174 642500 ANA CLAUDIA DA COSTA NAVES OFICIAL DO MP MONTE CARMELO - COMARCA; MONTE CARMELO-PJ-02PJ 4.376,03 437,60 0,00 0,00 0,00 0,00 175,04 2.486,39 7.475,06 617,69 347,34 0,00 0,00 965,03 6.510,03 30/04/2021
175 604900 ANA CLAUDIA OLIVEIRA DE MIRANDA OFICIAL DO MP PONTE NOVA - COMARCA; PONTE NOVA-PJ-04PJ 5.387,19 538,72 0,00 0,00 0,00 0,00 0,00 1.717,00 7.642,91 762,96 498,31 0,00 0,00 1.261,27 6.381,64 30/04/2021
176 379300 ANA CRISTINA ALVES FLAVIO ANALISTA DO MP SÃO GOTARDO - COMARCA; SAO GOTARDO-PJ-01PJ 14.324,23 2.864,85 0,00 0,00 0,00 0,00 504,21 7.986,90 25.680,19 2.562,53 3.100,80 0,00 0,00 5.663,33 20.016,86 30/04/2021
177 461200 ANA CRISTINA ALVES PASCHOAL ANALISTA DO MP SANTA LUZIA - COMARCA; SANTA LUZIA-PJ-03PJ 10.069,62 2.013,92 0,00 0,00 0,00 0,00 0,00 1.717,00 13.800,54 1.745,64 1.921,43 0,00 0,00 3.667,07 10.133,47 30/04/2021
178 514100 ANA CRISTINA ARAUJO ASSUNCAO ANALISTA DO MP BELO HORIZONTE - COMARCA; ASSESS JUR DO CONS SUPERIOR DO MINISTERIO PUB 10.069,62 1.006,96 0,00 0,00 0,00 0,00 0,00 2.486,39 13.562,97 1.584,53 1.688,82 0,00 0,00 3.273,35 10.289,62 30/04/2021
179 113400 ANA CRISTINA BRAGA ALBUQUERQUE ASSESSOR/ANALISTA BELO HORIZONTE - COMARCA; ASSESS ESP ADM E FINANCEIRA DO PGJ ADJ ADM 30.090,04 21.063,02 0,00 0,00 0,00 5.486,23 520,11 7.390,96 64.550,36 5.486,23 8.882,75 15.690,84 0,00 30.059,82 34.490,54 30/04/2021
180 233800 ANA CRISTINA BRAGA SOARES OFICIAL DO MP CONTAGEM - COMARCA; CONTAGEM-PJ-SECRETARIA 10.736,08 3.220,82 0,00 0,00 0,00 0,00 0,00 1.717,00 15.673,90 2.045,38 2.302,03 0,00 0,00 4.347,41 11.326,49 30/04/2021
181 186400 ANA CRISTINA DE AZEVEDO LOPES OFICIAL DO MP UBÁ - COMARCA; UBA-PJ-01PJ 14.790,66 5.916,26 0,00 0,00 0,00 0,00 303,70 5.030,11 26.040,73 3.125,38 3.965,56 0,00 0,00 7.090,94 18.949,79 30/04/2021
182 693000 ANA CRISTINA DE MELO SILVEIRA ASSESSOR PROCURADOR JUSTICA BELO HORIZONTE - COMARCA; GABINETE DE PROCURADOR DE JUSTIÇA - SALA 504 0,00 0,00 7.187,72 0,00 0,00 0,00 0,00 2.486,39 9.674,11 751,99 1.229,92 0,00 0,00 1.981,91 7.692,20 30/04/2021
183 465100 ANA CRISTINA DE OLIVEIRA GUIMARAES ANALISTA DO MP ITAJUBA - COMARCA; ITAJUBA-PJ-05PJ 10.069,62 2.013,92 0,00 0,00 0,00 0,00 0,00 3.255,78 15.339,32 1.745,64 1.869,29 0,00 0,00 3.614,93 11.724,39 30/04/2021
184 500600 ANA CRISTINA LATADO SUDARIO ANALISTA DO MP UBERLÂNDIA - COMARCA; UBERLANDIA-PJ-09PJ 10.069,62 1.006,96 0,00 0,00 0,00 0,00 0,00 1.717,00 12.793,58 1.584,53 1.740,95 0,00 0,00 3.325,48 9.468,10 30/04/2021
185 331400 ANA CRISTINA RIBEIRO ALVES OFICIAL DO MP BAMBUÍ - COMARCA; BAMBUI-PJ-UNPJ 9.146,93 2.744,08 0,00 0,00 0,00 0,00 0,00 1.717,00 13.608,01 1.714,84 1.876,95 0,00 0,00 3.591,79 10.016,22 30/04/2021
186 249300 ANA ELOINA MARTINS OFICIAL DO MP BETIM - COMARCA; BETIM-PJ-02PJ 12.601,30 5.040,52 0,00 0,00 0,00 0,00 64,69 2.422,67 20.129,18 2.634,97 3.257,52 0,00 0,00 5.892,49 14.236,69 30/04/2021
187 257400 ANA FLAVIA CAMBRAIA ANALISTA DO MP BELO HORIZONTE - COMARCA; BH-19PJ SAUDE-SECRETARIA 150PJ 18.103,37 5.431,01 0,00 0,00 0,00 0,00 517,76 7.365,25 31.417,39 3.577,78 4.566,57 0,00 0,00 8.144,35 23.273,04 30/04/2021
188 248201 ANA FLAVIA DE MORAIS SOUZA ANALISTA DO MP DIVINÓPOLIS - COMARCA; DIVINOPOLIS-PJ-01PJ 10.069,62 3.020,89 0,00 0,00 0,00 0,00 0,00 2.486,39 15.576,90 1.906,76 2.101,90 0,00 0,00 4.008,66 11.568,24 30/04/2021
189 621100 ANA FLAVIA DINIZ TEODORO OFICIAL DO MP SANTA LUZIA - COMARCA; SANTA LUZIA-PJ-06PJ 5.387,19 538,72 0,00 0,00 0,00 0,00 0,00 1.717,00 7.642,91 762,96 550,45 0,00 0,00 1.313,41 6.329,50 30/04/2021
190 238600 ANA FLAVIA FRANCO OFICIAL DO MP BELO HORIZONTE - COMARCA; DIRETORIA DE PESSOAL ADMINISTRATIVO - DPAD 13.011,52 3.903,46 0,00 0,00 0,00 0,00 62,02 2.393,60 19.370,60 2.518,67 3.089,63 0,00 0,00 5.608,30 13.762,30 30/04/2021
191 690000 ANA FLAVIA LURIAN DE PAIVA ASSESSOR PROCURADOR JUSTICA BELO HORIZONTE - COMARCA; GABINETE DE PROCURADOR DE JUSTIÇA - SALA 609 0,00 0,00 7.187,72 0,00 0,00 0,00 0,00 1.717,00 8.904,72 751,99 1.229,92 0,00 0,00 1.981,91 6.922,81 30/04/2021
192 402900 ANA FLAVIA PORTES DE CARVALHO ANALISTA DO MP BELO HORIZONTE - COMARCA; DIRET DE PLANOS PROJETOS E PROGRAMAS INST 14.324,23 2.864,85 0,00 0,00 0,00 0,00 63,03 2.404,56 19.656,67 2.562,53 3.100,80 0,00 0,00 5.663,33 13.993,34 30/04/2021
193 382700 ANA KARENINA SALDANHA GONTIJO ANALISTA DO MP BELO HORIZONTE - COMARCA; ASSESS TECNICO-JUR JUNTO AS PROC. DE JUST 13.872,60 2.774,52 0,00 0,00 0,00 0,00 0,00 2.486,39 19.133,51 2.475,82 3.027,75 0,00 0,00 5.503,57 13.629,94 30/04/2021
194 620500 ANA KARINE DE ANDRADE OLIVEIRA ANALISTA DO MP RIBEIRÃO DAS NEVES - COMARCA; RIBEIRAO NEVES-SEC PJ EXECUCAO PENAL 7.663,37 766,34 0,00 0,00 0,00 0,00 0,00 1.717,00 10.146,71 1.161,03 1.129,53 0,00 0,00 2.290,56 7.856,15 30/04/2021
195 462200 ANA LUCIA ANDRADE TOMICH OTTONI ANALISTA DO MP TEÓFILO OTONI - COMARCA; TEOFILO OTONI-PJ-07PJ 10.069,62 2.013,92 0,00 0,00 0,00 0,00 0,00 1.717,00 13.800,54 1.745,64 1.921,43 0,00 0,00 3.667,07 10.133,47 30/04/2021
196 504100 ANA LUCIA CATAO DE CARVALHO OFICIAL DO MP BELO HORIZONTE - COMARCA; BH-09PJ AUDITORIA MILITAR-SECRETARIA 7.663,37 766,34 0,00 0,00 0,00 0,00 0,00 1.717,00 10.146,71 1.161,03 1.077,39 0,00 0,00 2.238,42 7.908,29 30/04/2021
197 274700 ANA LUCIA DE ALENCAR BRAGATO OFICIAL DO MP UBERABA - COMARCA; UBERABA-PJ-07PJ 10.069,62 3.020,89 0,00 0,00 0,00 0,00 0,00 1.717,00 14.807,51 1.906,76 2.206,17 0,00 0,00 4.112,93 10.694,58 30/04/2021
198 509400 ANA LUCIA DORNELAS MALLOSTO ANALISTA DO MP JUIZ DE FORA - COMARCA; JUIZ DE FORA-PJ-25PJ 10.069,62 1.006,96 0,00 0,00 0,00 0,00 0,00 1.717,00 12.793,58 1.584,53 1.688,82 0,00 0,00 3.273,35 9.520,23 30/04/2021
199 302600 ANA LUCIA LOPES SANTOS OFICIAL DO MP BELO HORIZONTE - COMARCA; DIVISÃO DE FISCALIZAÇÃO DAS RELAÇÕES DE CONSU 10.069,62 3.020,89 0,00 0,00 0,00 0,00 1.445,27 1.717,00 16.252,78 1.906,76 2.551,48 0,00 0,00 4.458,24 11.794,54 30/04/2021
200 702000 ANA LUISA DE OLIVEIRA RIBEIRO ASSESSOR PROCURADOR JUSTICA BELO HORIZONTE - COMARCA; ASSESS TECNICO-JUR JUNTO AS PROC. DE JUST 0,00 0,00 7.187,72 0,00 0,00 0,00 0,00 1.717,00 8.904,72 751,99 1.229,92 0,00 0,00 1.981,91 6.922,81 30/04/2021
201 493400 ANA LUISA NOGUEIRA MOREIRA ANALISTA DO MP BELO HORIZONTE - COMARCA; BH-19PJ SAUDE-SECRETARIA 130PJ 10.069,62 1.006,96 0,00 0,00 0,00 0,00 0,00 1.717,00 12.793,58 1.584,53 1.740,95 0,00 0,00 3.325,48 9.468,10 30/04/2021
202 389300 ANA LUISA REUTER LIMA ASSESSOR/ANALISTA BELO HORIZONTE - COMARCA; DIRETORIA DE SISTEMAS DE INFORMACAO 11.819,15 2.363,83 2.184,22 0,00 0,00 0,00 0,00 1.717,00 18.084,20 2.081,55 3.059,19 0,00 0,00 5.140,74 12.943,46 30/04/2021
203 480600 ANA LUIZA FERNANDES FRAGA E GRECO COORDENADOR/OFICIAL BELO HORIZONTE - COMARCA; OUVIDORIA DO MPMG 0,00 2.246,57 11.232,83 0,00 0,00 0,00 0,00 1.717,00 15.196,40 1.124,69 2.497,23 0,00 112,57 3.734,49 11.461,91 30/04/2021
204 481400 ANA MARCIA CANDIDA FERREIRA OFICIAL DO MP BRUMADINHO - COMARCA; BRUMADINHO-PJ-02PJ 6.123,79 1.224,76 0,00 0,00 0,00 0,00 0,00 1.717,00 9.065,55 988,05 879,78 0,00 0,00 1.867,83 7.197,72 30/04/2021
205 643100 ANA MARIA LOPES MIRANDA ANALISTA DO MP BELO HORIZONTE - COMARCA; CAO-FUNDACOES 7.421,79 742,18 0,00 0,00 98,96 0,00 296,87 1.717,00 10.276,80 841,65 1.253,13 0,00 0,00 2.094,78 8.182,02 30/04/2021
206 556400 ANA MARIA OLIVEIRA SOUZA OFICIAL DO MP ITAPECERICA - COMARCA; ITAPECERICA-PJ-UNPJ 5.930,75 593,08 0,00 0,00 0,00 0,00 0,00 1.717,00 8.240,83 856,09 689,27 0,00 0,00 1.545,36 6.695,47 30/04/2021
207 409600 ANA OLIVIA FARIA ROSENBURG ANALISTA DO MP BELO HORIZONTE - COMARCA; DIRETORIA DO COLEGIO E DA CAMARA DE PJ 13.011,52 3.903,46 0,00 0,00 0,00 0,00 496,17 7.129,79 24.540,94 2.518,67 3.089,63 0,00 0,00 5.608,30 18.932,64 30/04/2021
208 461500 ANA PAULA ALVES CARVALHO ANALISTA DO MP UBERLÂNDIA - COMARCA; UBERLANDIA-PJ-25PJ 10.069,62 2.013,92 0,00 0,00 0,00 0,00 132,92 2.705,39 14.921,85 1.745,64 1.973,56 0,00 0,00 3.719,20 11.202,65 30/04/2021
209 523200 ANA PAULA ALVES DA SILVA OFICIAL DO MP GOVERNADOR VALADARES - COMARCA; GOVERNADOR VALADARES-PJ-10PJ 7.421,79 742,18 0,00 0,00 0,00 0,00 0,00 4.793,47 12.957,44 1.118,51 963,87 0,00 0,00 2.082,38 10.875,06 30/04/2021
210 381200 ANA PAULA BARROS PEREIRA RIGHI ANALISTA DO MP BELO HORIZONTE - COMARCA; PROC JUST ATUACAO TRIBUNAIS SUPERIORES-GAB003 14.324,23 2.864,85 0,00 0,00 0,00 0,00 63,03 3.173,95 20.426,06 2.562,53 3.100,80 0,00 0,00 5.663,33 14.762,73 30/04/2021
211 696400 ANA PAULA CARVALHO SILVA ASSESSOR PROMOTOR JUSTICA PERDÕES - COMARCA; PERDOES-PJ-UNPJ 0,00 0,00 7.187,72 0,00 0,00 0,00 0,00 1.717,00 8.904,72 751,99 1.229,92 0,00 0,00 1.981,91 6.922,81 30/04/2021
212 700900 ANA PAULA CRAVO SALOME ASSESSOR BELO HORIZONTE - COMARCA; PROCURADOR-GERAL DE JUSTIÇA 0,00 0,00 3.076,28 0,00 0,00 0,00 0,00 1.717,00 4.793,28 449,69 224,40 0,00 0,00 674,09 4.119,19 30/04/2021
213 227200 ANA PAULA DA SILVA CAMPOLINA ANALISTA DO MP BELO HORIZONTE - COMARCA; DIRETORIA DE ORCAMENTO-DIOR/SPC 18.820,14 9.410,07 0,00 0,00 0,00 0,00 517,55 7.363,04 36.110,80 4.329,11 5.703,44 0,00 0,00 10.032,55 26.078,25 30/04/2021
214 278500 ANA PAULA DIAS CAPANEMA OFICIAL DO MP BELO HORIZONTE - COMARCA; DIRETORIA DE SEGURANCA 10.069,62 3.020,89 0,00 0,00 0,00 0,00 0,00 1.717,00 14.807,51 1.906,76 2.206,17 0,00 0,00 4.112,93 10.694,58 30/04/2021
215 327300 ANA PAULA GARCIA MAXIMO OFICIAL DO MP UNAÍ - COMARCA; UNAI-PJ-01PJ 11.085,56 4.434,22 0,00 0,00 0,00 0,00 0,00 1.717,00 17.236,78 2.295,44 2.610,92 0,00 0,00 4.906,36 12.330,42 30/04/2021
216 270000 ANA PAULA GOULART CRUZ DE MAGALHAES ANALISTA DO MP BELO HORIZONTE - COMARCA; COMB CRIMES PRAT POR AG POL MUN-ASSESSORIA 13.872,60 4.161,78 0,00 0,00 0,00 0,00 0,00 1.717,00 19.751,38 2.697,78 3.348,21 0,00 0,00 6.045,99 13.705,39 30/04/2021
217 262100 ANA PAULA KOMATSUZAKI ABIJAUDI ANALISTA DO MP BELO HORIZONTE - COMARCA; BH-17PJ PATRIMONIO PUBLICO-SECRETARIA 18.103,37 7.241,35 0,00 0,00 0,00 0,00 0,00 1.717,00 27.061,72 3.867,43 4.932,62 0,00 0,00 8.800,05 18.261,67 30/04/2021
218 278900 ANA PAULA MOREIRA GURGEL ANALISTA DO MP BELO HORIZONTE - COMARCA; DIRETORIA-GERAL 18.820,14 7.528,06 0,00 0,00 0,00 0,00 483,05 6.986,64 33.817,89 4.027,99 5.268,70 0,00 0,00 9.296,69 24.521,20 30/04/2021
219 425701 ANA PAULA ROCHA ANALISTA DO MP BELO HORIZONTE - COMARCA; ASSESSORIA DE COMUNICACAO INTEGRADA 8.858,43 885,84 0,00 0,00 0,00 0,00 0,00 2.486,39 12.230,66 1.371,36 1.433,19 0,00 0,00 2.804,55 9.426,11 30/04/2021
220 692700 ANA PAULA RODRIGUES GOMES GONCALVES ASSESSOR PROCURADOR JUSTICA BELO HORIZONTE - COMARCA; GABINETE DE PROCURADOR DE JUSTIÇA - SALA 1012 0,00 0,00 7.187,72 0,00 0,00 0,00 0,00 2.486,39 9.674,11 751,99 1.177,78 0,00 0,00 1.929,77 7.744,34 30/04/2021
221 395601 ANA PAULA SALGE OLIVEIRA ANALISTA DO MP UBERABA - COMARCA; UBERABA-PJ-15PJ 10.069,62 3.020,89 0,00 0,00 0,00 0,00 0,00 1.717,00 14.807,51 1.906,76 2.206,17 0,00 0,00 4.112,93 10.694,58 30/04/2021
222 473200 ANA PAULA SCOTTON BRASIL ANALISTA DO MP JUIZ DE FORA - COMARCA; JUIZ DE FORA-PJ-07PJ 10.069,62 2.013,92 0,00 0,00 0,00 0,00 44,31 2.969,73 15.097,58 1.745,64 1.973,56 0,00 0,00 3.719,20 11.378,38 30/04/2021
223 633600 ANA PAULA SILVA FERNANDES OFICIAL DO MP CATAGUASES - COMARCA; CATAGUASES-PJ-04PJ 5.217,34 521,73 0,00 0,00 0,00 0,00 0,00 1.717,00 7.456,07 734,31 506,95 0,00 0,00 1.241,26 6.214,81 30/04/2021
224 470900 ANA PAULA VALADARES ANALISTA DO MP PITANGUI - COMARCA; PITANGUI-PJ-01PJ 10.069,62 2.013,92 0,00 0,00 0,00 0,00 0,00 1.717,00 13.800,54 1.745,64 1.869,29 0,00 0,00 3.614,93 10.185,61 30/04/2021
225 447000 ANA PAULA VALENTIM DE ARAUJO ANALISTA DO MP BELO HORIZONTE - COMARCA; COMB CRIMES PRAT POR AG POL MUN-ASSESSORIA 10.069,62 2.013,92 0,00 0,00 0,00 0,00 44,31 2.200,34 14.328,19 1.745,64 1.973,56 0,00 0,00 3.719,20 10.608,99 30/04/2021
226 604200 ANA PAULA VIANA E SILVA OFICIAL DO MP BELO HORIZONTE - COMARCA; BH-17PJ PATRIMONIO PUBLICO-SECRETARIA 5.930,75 593,08 0,00 0,00 0,00 0,00 0,00 1.717,00 8.240,83 856,09 689,27 0,00 0,00 1.545,36 6.695,47 30/04/2021
227 505400 ANA PAULA VIEIRA SOUTO OFICIAL DO MP ALMENARA - COMARCA; ALMENARA-PJ-01PJ 6.123,79 1.837,14 0,00 0,00 0,00 0,00 0,00 1.717,00 9.677,93 1.086,03 969,10 0,00 0,00 2.055,13 7.622,80 30/04/2021
228 280200 ANA RACHEL BRANDAO LADEIRA ROLAND ANALISTA DO MP BELO HORIZONTE - COMARCA; DIRETORIA-GERAL 17.413,92 5.224,18 0,00 0,00 0,00 0,00 0,00 1.717,00 24.355,10 3.434,37 4.411,67 0,00 0,00 7.846,04 16.509,06 30/04/2021
229 691000 ANA RACHEL DOS REIS E SENA COSTA ASSESSOR PROMOTOR JUSTICA BELO HORIZONTE - COMARCA; GABINETE DE PROCURADOR DE JUSTIÇA - SALA 601 0,00 0,00 7.187,72 0,00 0,00 0,00 0,00 1.717,00 8.904,72 751,99 1.229,92 0,00 0,00 1.981,91 6.922,81 30/04/2021
230 601200 ANA REGINA RIBEIRO COORDENADOR/ANALISTA BELO HORIZONTE - COMARCA; DIV FISCAL ADM CONT TERCEIRIZACAO 0,00 1.181,92 11.819,15 0,00 0,00 0,00 0,00 1.717,00 14.718,07 1.422,14 2.314,85 0,00 0,00 3.736,99 10.981,08 30/04/2021
231 384700 ANA RODRIGUES PEREIRA MARRA ANALISTA DO MP COROMANDEL - COMARCA; COROMANDEL-PJ-UNPJ 10.069,62 2.013,92 0,00 0,00 0,00 0,00 0,00 2.486,39 14.569,93 1.745,64 1.869,29 0,00 0,00 3.614,93 10.955,00 30/04/2021
232 232700 ANA SILVIA SEMBLANO NAKAMURA ASSESSOR/OFICIAL BELO HORIZONTE - COMARCA; CENT DE APOIO TEC-SETOR DEF,IDOSO E INFANC 0,00 3.119,26 10.397,52 0,00 0,00 0,00 0,00 1.717,00 15.233,78 1.906,76 2.323,40 0,00 0,00 4.230,16 11.003,62 30/04/2021
233 602100 ANACLETO FRANCISCO MARCIER PIMENTA OFICIAL DO MP SÃO JOÃO DEL REI - COMARCA; SAO JOAO DEL REI-PJ-03PJ 5.387,19 538,72 0,00 0,00 0,00 0,00 0,00 1.717,00 7.642,91 762,96 312,25 0,00 0,00 1.075,21 6.567,70 30/04/2021
234 310400 ANADEJE DO CARMO DINIZ ARAUJO OFICIAL DO MP BELO HORIZONTE - COMARCA; DIRETORIA DE PESSOAL ADMINISTRATIVO - DPAD 10.069,62 3.020,89 0,00 0,00 0,00 0,00 0,00 1.717,00 14.807,51 1.906,76 2.206,17 0,00 0,00 4.112,93 10.694,58 30/04/2021
235 337000 ANAILDES MARIA MENDES OFICIAL DO MP JANAÚBA - COMARCA; JANAUBA-PJ-02PJ 9.444,70 2.833,41 0,00 0,00 0,00 0,00 0,00 2.486,39 14.764,50 1.776,77 2.018,51 0,00 0,00 3.795,28 10.969,22 30/04/2021
236 192900 ANATALIA CERQUEIRA LIMA PERES OFICIAL DO MP UBERABA - COMARCA; COORD REG SAUDE MACROR SANIT TRIANGULO SUL 11.085,56 4.434,22 0,00 0,00 0,00 0,00 0,00 1.717,00 17.236,78 2.295,44 2.767,33 0,00 0,00 5.062,77 12.174,01 30/04/2021
237 377400 ANDEIRSON DA MATTA BARBOSA ANALISTA DO MP POUSO ALEGRE - COMARCA; POUSO ALEGRE-PJ-01PJ 10.069,62 2.013,92 0,00 0,00 0,00 0,00 0,00 2.486,39 14.569,93 1.745,64 1.973,56 0,00 0,00 3.719,20 10.850,73 30/04/2021
238 317400 ANDERSON DA SILVA BICALHO OFICIAL DO MP CONTAGEM - COMARCA; CONTAGEM-PJ-SECRETARIA 9.146,93 2.744,08 0,00 0,00 0,00 0,00 0,00 1.717,00 13.608,01 1.714,84 1.772,68 0,00 0,00 3.487,52 10.120,49 30/04/2021
239 506900 ANDERSON DE SOUZA DAMIANI ANALISTA DO MP BELO HORIZONTE - COMARCA; DIRETORIA DE PAGAMENTO DE PESSOAL-DPAG 10.069,62 3.020,89 0,00 0,00 0,00 0,00 0,00 1.717,00 14.807,51 1.906,76 2.101,90 0,00 0,00 4.008,66 10.798,85 30/04/2021
240 410000 ANDERSON DE SOUZA NETO ASSESSOR BELO HORIZONTE - COMARCA; DIRETORIA DE ADMINISTRACAO FINANCEIRA 0,00 0,00 5.136,32 0,00 0,00 0,00 0,00 1.717,00 6.853,32 738,09 669,60 0,00 0,00 1.407,69 5.445,63 30/04/2021
241 181900 ANDERSON FLAVIO DE OLIVEIRA OFICIAL DO MP ITAGUARA - COMARCA; ITAGUARA-PJ-SECRETARIA 13.011,52 5.204,61 0,00 0,00 0,00 0,00 0,00 1.717,00 19.933,13 2.726,86 3.390,19 0,00 0,00 6.117,05 13.816,08 30/04/2021
242 333200 ANDERSON JOSE DE FREITAS OFICIAL DO MP IPATINGA - COMARCA; IPATINGA-PJ-04PJ 9.444,70 2.833,41 0,00 0,00 0,00 0,00 1.445,27 1.717,00 15.440,38 1.776,77 2.259,55 0,00 0,00 4.036,32 11.404,06 30/04/2021
243 699400 ANDERSON LUIZ CABRAL ASSESSOR PROMOTOR JUSTICA ALÉM PARAÍBA - COMARCA; ALEM PARAIBA-PJ-03PJ 0,00 0,00 7.187,72 0,00 0,00 0,00 0,00 1.717,00 8.904,72 751,99 1.229,92 0,00 0,00 1.981,91 6.922,81 30/04/2021
244 462100 ANDERSON LUIZ GUIMARAES CARDOSO ANALISTA DO MP BARBACENA - COMARCA; BARBACENA-PJ-02PJ 10.736,08 2.147,22 0,00 0,00 0,00 0,00 0,00 1.717,00 14.600,30 1.873,61 2.158,30 0,00 0,00 4.031,91 10.568,39 30/04/2021
245 429700 ANDERSON MELO DE SOUZA ASSESSOR/OFICIAL BELO HORIZONTE - COMARCA; DIRET DE ESTAGIOS E CONVENIOS ACADEMICOS 0,00 2.079,50 10.397,52 0,00 0,00 0,00 0,00 1.717,00 14.194,02 988,05 2.290,11 0,00 0,00 3.278,16 10.915,86 30/04/2021
246 545600 ANDERSON MENDES PROCOPIO FERREIRA ANALISTA DO MP BELO HORIZONTE - COMARCA; BH-12PJ JUIZO CRIMINAL-GAB 089PJ 9.146,93 914,69 0,00 0,00 0,00 0,00 0,00 1.717,00 11.778,62 1.422,14 1.506,50 0,00 0,00 2.928,64 8.849,98 30/04/2021
247 519900 ANDERSON MOREIRA DOEHLER ANALISTA DO MP TEÓFILO OTONI - COMARCA; COORD REG SAUDE MACRORREGIAO SANIT NORDESTE 10.069,62 3.020,89 0,00 0,00 0,00 0,00 0,00 1.717,00 14.807,51 1.906,76 2.206,17 0,00 0,00 4.112,93 10.694,58 30/04/2021
248 103000 ANDERSON TADEU DE DEUS ASSESSOR BELO HORIZONTE - COMARCA; BH-26 CRIME CONT CRIAN ADOL-SECRETARIA 0,00 3.595,42 5.136,32 0,00 0,00 0,00 0,00 1.717,00 10.448,74 751,99 1.654,52 0,00 0,00 2.406,51 8.042,23 30/04/2021
249 309200 ANDITYAS SOARES DE MOURA COSTA MATOS ANALISTA DO MP BELO HORIZONTE - COMARCA; GABINETE DE PROCURADOR DE JUSTIÇA - SALA 909 14.790,66 4.437,20 0,00 0,00 0,00 0,00 0,00 1.717,00 20.944,86 2.888,73 3.623,90 0,00 0,00 6.512,63 14.432,23 30/04/2021
250 519200 ANDRE BORJA LANA ANALISTA DO MP BELO HORIZONTE - COMARCA; CENTRO JORNALISMO 10.069,62 1.006,96 0,00 0,00 0,00 0,00 0,00 1.717,00 12.793,58 1.584,53 1.740,95 0,00 0,00 3.325,48 9.468,10 30/04/2021
251 637200 ANDRE FERNANDES DA CUNHA OFICIAL DO MP MORADA NOVA DE MINAS - COMARCA; MORADA NOVA DE MINAS-PJ-UNPJ 5.217,34 521,73 0,00 0,00 0,00 0,00 0,00 1.717,00 7.456,07 734,00 507,03 0,00 0,00 1.241,03 6.215,04 30/04/2021
252 651500 ANDRE GONCALVES MARANHAO OFICIAL DO MP JACINTO - COMARCA; JACINTO-PJ-SECRETARIA 4.376,03 262,56 0,00 0,00 0,00 0,00 0,00 1.717,00 6.355,59 570,31 279,23 0,00 0,00 849,54 5.506,05 30/04/2021
253 521900 ANDRE LUIS GOMES SILVA ANALISTA DO MP FORMIGA - COMARCA; FORMIGA-PJ-02PJ 10.069,62 1.006,96 0,00 0,00 0,00 0,00 0,00 2.486,39 13.562,97 1.584,53 1.259,64 0,00 0,00 2.844,17 10.718,80 30/04/2021
254 304300 ANDRE LUIZ AVELAR ANALISTA DO MP BELO HORIZONTE - COMARCA; DIRETORIA DE REDES E BANCOS DE DADOS 8.436,53 2.530,96 0,00 0,00 0,00 0,00 0,00 1.717,00 12.684,49 1.567,08 1.663,62 0,00 0,00 3.230,70 9.453,79 30/04/2021
255 397400 ANDRE PATARO MYRRHA DE PAULA E SILVA ANALISTA DO MP BELO HORIZONTE - COMARCA; ASSESSORIA JURIDICO-ADMINISTRATIVA 14.324,23 2.864,85 0,00 0,00 0,00 0,00 0,00 2.486,39 19.675,47 2.562,53 3.152,94 0,00 0,00 5.715,47 13.960,00 30/04/2021
256 650100 ANDRE THOME VARGAS OFICIAL DO MP LEOPOLDINA - COMARCA; LEOPOLDINA-PJ-04PJ 4.817,57 289,05 0,00 0,00 0,00 0,00 0,00 1.717,00 6.823,62 635,97 369,77 0,00 0,00 1.005,74 5.817,88 30/04/2021
257 548500 ANDRE VINICIUS CARVALHO MEIRA ANALISTA DO MP JUIZ DE FORA - COMARCA; JUIZ DE FORA-PJ-24PJ 9.146,93 914,69 0,00 0,00 3.353,87 0,00 516,50 7.351,51 21.283,50 1.422,14 2.428,81 0,00 0,00 3.850,95 17.432,55 30/04/2021
258 297200 ANDRE WILLE ROSARIO ANALISTA DO MP BELO HORIZONTE - COMARCA; ASSESSORIA ESPECIAL DO PGJ 17.413,92 5.224,18 0,00 0,00 0,00 0,00 498,04 7.150,14 30.286,28 3.434,37 4.307,39 0,00 0,00 7.741,76 22.544,52 30/04/2021
259 423600 ANDREA COSTA GUALBERTO ALVES ANALISTA DO MP GOVERNADOR VALADARES - COMARCA; COORD REG PJ DEF EDU DIR CRIANCA ADOL RIODOCE 12.601,30 8.820,91 0,00 0,00 0,00 0,00 314,19 5.144,55 26.880,95 3.239,83 4.078,66 0,00 0,00 7.318,49 19.562,46 30/04/2021
260 198600 ANDREA CRISTINA ANDRADE COSTA E SOUZA OFICIAL DO MP MONTES CLAROS - COMARCA; MONTES CLAROS-PJ-15PJ 15.272,02 6.108,81 0,00 0,00 0,00 0,00 548,77 7.703,63 29.633,23 3.233,21 4.069,10 0,00 0,00 7.302,31 22.330,92 30/04/2021
261 467300 ANDREA DE CASSIA PENNA ALVERNAZ ANALISTA DO MP PONTE NOVA - COMARCA; PONTE NOVA-PJ-01PJ 10.069,62 2.013,92 0,00 0,00 0,00 0,00 0,00 1.717,00 13.800,54 1.745,64 1.921,43 0,00 0,00 3.667,07 10.133,47 30/04/2021
262 308000 ANDREA DE CASSIA SANTOS OLIVEIRA ANALISTA DO MP BELO HORIZONTE - COMARCA; COORD DE GABINETE DO PGJ 16.750,82 5.025,25 0,00 0,00 0,00 0,00 479,07 6.943,26 29.198,40 3.296,45 4.160,40 0,00 0,00 7.456,85 21.741,55 30/04/2021
263 349500 ANDREA DE OLIVEIRA LOIOLA REGIS OFICIAL DO MP IGUATAMA - COMARCA; IGUATAMA-PJ-UNPJ 9.752,14 1.950,43 0,00 0,00 0,00 0,00 0,00 1.717,00 13.419,57 1.684,69 1.833,42 0,00 0,00 3.518,11 9.901,46 30/04/2021
264 287900 ANDREA FERNANDES PENA MARTINS OFICIAL DO MP MONTES CLAROS - COMARCA; MONTES CLAROS-PJ-09PJ 10.069,62 3.020,89 0,00 0,00 0,00 0,00 0,00 1.717,00 14.807,51 1.906,76 2.101,90 0,00 0,00 4.008,66 10.798,85 30/04/2021
265 300800 ANDREA FERREIRA ANALISTA DO MP LAVRAS - COMARCA; LAVRAS-PJ-04PJ 15.272,02 4.581,61 0,00 0,00 0,00 0,00 0,00 1.717,00 21.570,63 2.988,86 3.768,45 0,00 0,00 6.757,31 14.813,32 30/04/2021
266 316700 ANDREA FRANCISCA DIAS DE SOUZA ASSESSOR BELO HORIZONTE - COMARCA; ASSESSORIA JURIDICA DO PROCON-MG 0,00 0,00 3.076,28 0,00 0,00 0,00 0,00 2.486,39 5.562,67 449,69 224,40 0,00 0,00 674,09 4.888,58 30/04/2021
267 395100 ANDREA LANNA MENDES NOVAIS ANALISTA DO MP BELO HORIZONTE - COMARCA; PROMOT ESTADUAL DE DEF PATRI CULT E TUR DE MG 14.324,23 2.864,85 0,00 0,00 0,00 0,00 0,00 1.717,00 18.906,08 2.562,53 3.100,80 0,00 0,00 5.663,33 13.242,75 30/04/2021
268 67300 ANDREA LEAO MAGALHAES ROQUE ASSESSOR BELO HORIZONTE - COMARCA; COORD ESTADUAL COMBATE CRIMES CIBERNETICOS 0,00 7.278,26 10.397,52 0,00 5.891,93 0,00 0,00 1.717,00 25.284,71 751,99 5.682,28 0,00 0,00 6.434,27 18.850,44 30/04/2021
269 335700 ANDREA LOPES PEREIRA ANALISTA DO MP GOVERNADOR VALADARES - COMARCA; COORD REG DO MA DA BACIA DO RIO DOCE 16.750,82 5.025,25 0,00 0,00 7.258,69 0,00 479,07 6.943,26 36.457,09 3.296,45 6.208,68 0,00 0,00 9.505,13 26.951,96 30/04/2021
270 389200 ANDREA TUPINI DOS SANTOS TRISTAO DA ROCHA COORDENADOR/OFICIAL BELO HORIZONTE - COMARCA; BH-13ª PJ JUÍZO DE TÓXICOS-SECRETARIA 0,00 2.363,83 11.819,15 0,00 4.727,66 2.081,55 0,00 1.717,00 22.709,19 2.081,55 4.331,07 0,00 0,00 6.412,62 16.296,57 30/04/2021
271 419000 ANDREIA BARBOSA DE ALMEIDA ANALISTA DO MP BELO HORIZONTE - COMARCA; GABINETE DE PROCURADOR DE JUSTIÇA - SALA 705 12.601,30 2.520,26 0,00 0,00 0,00 0,00 0,00 1.717,00 16.838,56 2.231,73 2.675,34 0,00 0,00 4.907,07 11.931,49 30/04/2021
272 281501 ANDREIA CARLA COSTA ANALISTA DO MP UBÁ - COMARCA; UBA-PJ-02PJ 13.011,52 2.602,30 0,00 0,00 0,00 0,00 0,00 1.717,00 17.330,82 2.310,49 2.789,06 0,00 0,00 5.099,55 12.231,27 30/04/2021
273 477100 ANDREIA DE ALMEIDA RIBEIRO MELO OFICIAL DO MP CONTAGEM - COMARCA; CONTAGEM-PJ-SECRETARIA 7.663,37 1.532,67 0,00 0,00 0,00 0,00 0,00 1.717,00 10.913,04 1.283,64 1.306,55 0,00 0,00 2.590,19 8.322,85 30/04/2021
274 619000 ANDREIA FERREIRA NORONHA COORDENADOR/OFICIAL BELO HORIZONTE - COMARCA; DIRETORIA DE SERVICO CRIMINAL 0,00 1.343,52 13.435,16 0,00 0,00 0,00 0,00 1.717,00 16.495,68 762,96 2.984,96 0,00 0,00 3.747,92 12.747,76 30/04/2021
275 424000 ANDREIA LUCIA COUTO ANALISTA DO MP BELO HORIZONTE - COMARCA; BH-18PJ DIREITOS HUMANOS-SECRETARIA 13.011,52 2.602,30 0,00 0,00 0,00 0,00 0,00 1.717,00 17.330,82 2.310,49 2.789,06 0,00 0,00 5.099,55 12.231,27 30/04/2021
276 370100 ANDREIA MARIA SILVA PINTO OFICIAL DO MP CORONEL FABRICIANO - COMARCA; CORONEL FABRICIANO-PJ-01PJ 9.146,93 1.829,39 0,00 0,00 0,00 0,00 0,00 2.486,39 13.462,71 1.568,49 1.717,79 0,00 0,00 3.286,28 10.176,43 30/04/2021
277 382100 ANDREIA NATALI PEREIRA DE OLIVEIRA OFICIAL DO MP PRADOS - COMARCA; PRADOS-PJ-UNPJ 8.858,43 1.771,69 0,00 0,00 0,00 0,00 0,00 1.717,00 12.347,12 1.513,10 1.637,82 0,00 0,00 3.150,92 9.196,20 30/04/2021
278 275200 ANDREIA RIBEIRO FREITAS OFICIAL DO MP VIÇOSA - COMARCA; VICOSA-PJ-04PJ 10.069,62 3.020,89 0,00 0,00 0,00 0,00 0,00 1.717,00 14.807,51 1.906,76 2.154,03 0,00 0,00 4.060,79 10.746,72 30/04/2021
279 352200 ANDREIA XAVIER PEREIRA OFICIAL DO MP CLÁUDIO - COMARCA; CLAUDIO-PJ-UNPJ 9.752,14 1.950,43 0,00 0,00 0,00 0,00 0,00 1.717,00 13.419,57 1.684,69 1.885,56 0,00 0,00 3.570,25 9.849,32 30/04/2021
280 638500 ANDRESA ALVES FEITOSA CASAGRANDE ANALISTA DO MP LAVRAS - COMARCA; COORD REG DO MA DA BACIA DO RIO GRANDE 8.170,49 817,05 0,00 0,00 0,00 0,00 0,00 1.717,00 10.704,54 841,65 1.370,76 0,00 0,00 2.212,41 8.492,13 30/04/2021
281 383700 ANDRESSA EDUARDO SOUZA ANALISTA DO MP OURO BRANCO - COMARCA; OURO BRANCO-PJ-SECRETARIA 14.324,23 2.864,85 0,00 0,00 0,00 0,00 0,00 2.486,39 19.675,47 2.562,53 3.152,94 0,00 0,00 5.715,47 13.960,00 30/04/2021
282 678400 ANDRESSA LUIZA SILVA LOPES ASSESSOR PROMOTOR JUSTICA CARMO DO PARANAÍBA - COMARCA; CARMO DO PARANAIBA-PJ-02PJ 0,00 0,00 7.187,72 0,00 0,00 0,00 0,00 1.717,00 8.904,72 751,99 1.229,92 0,00 0,00 1.981,91 6.922,81 30/04/2021
283 426200 ANDRESSA MENDES CASAL OFICIAL DO MP BELO HORIZONTE - COMARCA; DIR ESTRUTURA E PROCESSOS ORGANIZACIONAIS 7.421,79 1.484,36 0,00 0,00 0,00 0,00 0,00 1.717,00 10.623,15 1.237,26 1.239,58 0,00 0,00 2.476,84 8.146,31 30/04/2021
284 390100 ANDRESSA RIBEIRO PUCCI OFICIAL DO MP UBERABA - COMARCA; UBERABA-PJ-14PJ 6.741,63 1.348,33 0,00 0,00 0,00 0,00 0,00 1.717,00 9.806,96 1.106,67 1.051,04 0,00 0,00 2.157,71 7.649,25 30/04/2021
285 462500 ANDREZA APARECIDA COSTA E SILVA ANALISTA DO MP CONSELHEIRO LAFAIETE - COMARCA; CONSELHEIRO LAFAIETE-PJ-02PJ 10.069,62 2.013,92 0,00 0,00 0,00 0,00 0,00 1.717,00 13.800,54 1.745,64 1.973,56 0,00 0,00 3.719,20 10.081,34 30/04/2021
286 677700 ANDREZA DE LOURDES FERREIRA DE PAIVA ASSESSOR PROMOTOR JUSTICA ABRE CAMPO - COMARCA; ABRE CAMPO-PJ-01PJ 0,00 0,00 7.187,72 0,00 0,00 0,00 0,00 1.717,00 8.904,72 751,99 1.229,92 0,00 0,00 1.981,91 6.922,81 30/04/2021
287 537800 ANDREZZA LUZIA DE OLIVEIRA ALVES ANALISTA DO MP PATOS DE MINAS - COMARCA; COORD REG PJ DEF EDU DIR CRI ADO AL PAR NOROE 9.146,93 914,69 0,00 0,00 0,00 0,00 0,00 1.717,00 11.778,62 1.422,14 1.454,36 0,00 0,00 2.876,50 8.902,12 30/04/2021
288 491600 ANE PATRICIA RIBEIRO ANALISTA DO MP SETE LAGOAS - COMARCA; SETE LAGOAS-PJ-11PJ 10.069,62 1.006,96 0,00 0,00 0,00 0,00 0,00 1.717,00 12.793,58 1.584,53 1.688,82 0,00 0,00 3.273,35 9.520,23 30/04/2021
289 465800 ANELISE GAMA ASSESSOR BELO HORIZONTE - COMARCA; BH-18PJ VIOLENCIA DOMESTICA-SECRETARIA 0,00 0,00 8.170,49 0,00 0,00 0,00 0,00 1.717,00 9.887,49 751,99 1.500,18 0,00 0,00 2.252,17 7.635,32 30/04/2021
290 535200 ANELIZE FERNANDA ALVES VILARINHO OFICIAL DO MP CAPINÓPOLIS - COMARCA; CAPINOPOLIS-PJ-UNPJ 5.387,19 538,72 0,00 0,00 0,00 0,00 0,00 2.486,39 8.412,30 762,96 550,45 0,00 0,00 1.313,41 7.098,89 30/04/2021
291 197200 ANGELA COELHO SALDANHA OFICIAL DO MP PARÁ DE MINAS - COMARCA; PARA DE MINAS-PJ-03PJ 15.272,02 6.108,81 0,00 0,00 0,00 0,00 548,77 7.703,63 29.633,23 3.233,21 4.121,24 0,00 0,00 7.354,45 22.278,78 30/04/2021
292 307400 ANGELA CRISTINA GONCALVES MUNIZ ANALISTA DO MP UBERLÂNDIA - COMARCA; UBERLANDIA-PJ-SEC FAMILIA 17.413,92 6.965,57 0,00 0,00 0,00 0,00 0,00 1.409,24 25.788,73 3.713,00 4.761,79 0,00 0,00 8.474,79 17.313,94 30/04/2021
293 191800 ANGELA MARIA DE OLIVEIRA OFICIAL DO MP GUARANÉSIA - COMARCA; GUARANESIA-PJ-SECRETARIA 15.272,02 10.690,41 0,00 0,00 0,00 3.966,27 0,00 1.717,00 31.645,70 3.966,27 6.270,31 0,00 0,00 10.236,58 21.409,12 30/04/2021
294 497400 ANGELA MARIA HENRIQUES ANALISTA DO MP BELO HORIZONTE - COMARCA; COORD REG BACIAS RIO VELHAS E PARAOPEBA 10.069,62 1.006,96 0,00 0,00 0,00 0,00 0,00 1.717,00 12.793,58 1.584,53 1.740,95 0,00 0,00 3.325,48 9.468,10 30/04/2021
295 260700 ANGELICA CRISTINA AZEVEDO MOREIRA MOUCO OFICIAL DO MP UBÁ - COMARCA; UBA-PJ-05PJ 12.601,30 3.780,39 0,00 0,00 0,00 0,00 0,00 1.717,00 18.098,69 2.433,35 2.966,43 0,00 0,00 5.399,78 12.698,91 30/04/2021
296 334600 ANGELICA PANISSA DE FREITAS GALLATI OFICIAL DO MP GUAXUPÉ - COMARCA; GUAXUPE-PJ-02PJ 10.069,62 3.020,89 0,00 0,00 0,00 0,00 0,00 2.486,39 15.576,90 1.906,76 2.154,03 0,00 0,00 4.060,79 11.516,11 30/04/2021
297 521100 ANGELICA SALES MOREIRA OFICIAL DO MP BELO HORIZONTE - COMARCA; BH-02PJ FAMILIA-SECRETARIA 7.421,79 742,18 0,00 0,00 2.721,32 0,00 0,00 1.717,00 12.602,29 1.118,51 1.816,50 0,00 0,00 2.935,01 9.667,28 30/04/2021
298 466500 ANGELLO MARQUES AGRELLI ANALISTA DO MP MAR DE ESPANHA - COMARCA; MAR DE ESPANHA-PJ-UNPJ 10.069,62 2.013,92 0,00 0,00 0,00 0,00 0,00 1.717,00 13.800,54 1.745,64 1.973,56 0,00 0,00 3.719,20 10.081,34 30/04/2021
299 363300 ANGELO VERDOLIN HENRIQUES ANALISTA DO MP SETE LAGOAS - COMARCA; SETE LAGOAS-PJ-04PJ 15.272,02 6.108,81 0,00 0,00 0,00 0,00 313,59 5.907,32 27.601,74 3.233,21 4.121,24 0,00 0,00 7.354,45 20.247,29 30/04/2021
300 250900 ANISIO APARECIDO SANTOS OFICIAL DO MP MARIANA - COMARCA; MARIANA-PJ-02PJ 6.123,79 2.449,52 0,00 0,00 0,00 0,00 0,00 1.717,00 10.290,31 1.184,01 536,13 0,00 0,00 1.720,14 8.570,17 30/04/2021
301 651200 ANITA MARIA SANT ANA DE MATTOS FONTES OFICIAL DO MP ERVÁLIA - COMARCA; ERVALIA-PJ-UNPJ 4.817,57 3.372,30 0,00 0,00 0,00 0,00 210,21 4.010,16 12.410,24 1.122,66 1.021,99 0,00 0,00 2.144,65 10.265,59 30/04/2021
302 698100 ANNA CAROLINA POLICARIO BERTOLIN ASSESSOR PROCURADOR JUSTICA BELO HORIZONTE - COMARCA; PROC. JUSTICA DIR. DIFUSOS E COLETIVOS-SEC 0,00 0,00 7.187,72 0,00 0,00 0,00 0,00 1.717,00 8.904,72 751,99 1.229,92 0,00 0,00 1.981,91 6.922,81 30/04/2021
303 253400 ANNA FLAVIA LEHMAN BATTAGLIA ANALISTA DO MP BELO HORIZONTE - COMARCA; CAO-PATRIMONIO PUBLICO 18.103,37 5.431,01 0,00 0,00 0,00 0,00 517,76 7.365,25 31.417,39 3.577,78 4.462,29 0,00 0,00 8.040,07 23.377,32 30/04/2021
304 688800 ANNA LUIZA MATTOS DUARTE ASSESSOR PROCURADOR JUSTICA BELO HORIZONTE - COMARCA; GABINETE DE PROCURADOR DE JUSTIÇA - SALA 305 0,00 0,00 7.187,72 0,00 0,00 0,00 0,00 1.717,00 8.904,72 751,99 1.229,92 0,00 0,00 1.981,91 6.922,81 30/04/2021
305 447600 ANNGELUCE ALCANTARA DE CAMPOS OFICIAL DO MP DIVINÓPOLIS - COMARCA; DIVINOPOLIS-PJ-SECRETARIA 7.421,79 1.484,36 0,00 0,00 0,00 0,00 0,00 1.717,00 10.623,15 1.237,26 1.239,58 0,00 0,00 2.476,84 8.146,31 30/04/2021
306 119600 ANSELMO BORGES PARREIRAS OFICIAL DO MP BONFIM - COMARCA; BONFIM-PJ-UNPJ 7.912,85 6.330,29 0,00 0,00 0,00 2.091,18 0,00 1.717,00 18.051,32 2.091,18 2.995,37 0,00 0,00 5.086,55 12.964,77 30/04/2021
307 630300 ANTONIA GOMES RAMALHO OFICIAL DO MP NOVO CRUZEIRO - COMARCA; NOVO CRUZEIRO-PJ-UNPJ 5.387,19 538,72 0,00 0,00 0,00 0,00 0,00 3.255,78 9.181,69 762,96 550,45 0,00 0,00 1.313,41 7.868,28 30/04/2021
308 332400 ANTONIA MARIA MAMEDE OFICIAL DO MP UBERLÂNDIA - COMARCA; COORD REG PP TRIANGULO MINEIRO UBERLANDIA 9.752,14 2.925,64 0,00 0,00 0,00 1.840,72 0,00 1.717,00 16.235,50 1.840,72 2.617,03 0,00 0,00 4.457,75 11.777,75 30/04/2021
309 401600 ANTONIO CARLOS GUEDES AROUCA ANALISTA DO MP BELO HORIZONTE - COMARCA; CAO-IDOSOS E PESSOAS COM DEFICIENCIA 11.819,15 2.363,83 0,00 0,00 0,00 0,00 0,00 1.717,00 15.899,98 2.081,55 2.458,53 0,00 0,00 4.540,08 11.359,90 30/04/2021
310 333900 ANTONIO GONCALVES DE SOUZA FILHO OFICIAL DO MP BELO HORIZONTE - COMARCA; DIRETORIA DE CONTABILIDADE 9.752,14 2.925,64 0,00 0,00 0,00 0,00 0,00 1.717,00 14.394,78 1.840,72 2.110,83 0,00 0,00 3.951,55 10.443,23 30/04/2021
311 176100 ANTONIO MARCELO CAMPOS CAMPANELLA OFICIAL DO MP BELO HORIZONTE - COMARCA; COORD DE GABINETE DO PGJ 15.272,02 7.636,01 0,00 0,00 0,00 0,00 503,98 7.214,93 30.626,94 3.477,56 4.474,02 0,00 0,00 7.951,58 22.675,36 30/04/2021
312 321001 ANTONIO OLINTO VIEIRA MACHADO ANALISTA DO MP BELO HORIZONTE - COMARCA; CENTRAL DE APOIO TECN-SETOR DE MEIO AMBIENTE 14.324,23 2.864,85 0,00 0,00 0,00 0,00 63,03 2.404,56 19.656,67 2.562,53 3.048,67 0,00 0,00 5.611,20 14.045,47 30/04/2021
313 356200 ANTONIO PAULA DA SILVA OFICIAL DO MP JUIZ DE FORA - COMARCA; JUIZ DE FORA-PJ-20PJ 8.579,10 2.573,73 0,00 0,00 0,00 0,00 0,00 1.717,00 12.869,83 1.596,73 1.758,57 0,00 0,00 3.355,30 9.514,53 30/04/2021
314 119900 ANTONIO RODRIGUES DE PINHO OFICIAL DO MP GUANHÃES - COMARCA; GUANHAES-PJ-01PJ 14.790,66 10.353,46 0,00 0,00 0,00 0,00 460,98 7.515,21 33.120,31 3.835,34 4.886,28 0,00 0,00 8.721,62 24.398,69 30/04/2021
315 373300 ANTONIO SERGIO ANANIAS OFICIAL DO MP AIURUOCA - COMARCA; AIURUOCA-PJ-UNPJ 8.579,10 1.715,82 0,00 0,00 0,00 0,00 0,00 1.717,00 12.011,92 1.459,46 1.560,39 0,00 0,00 3.019,85 8.992,07 30/04/2021
316 608100 ANTONIO SIDINEY VIEIRA LEMOS ANALISTA DO MP PIRAPORA - COMARCA; PIRAPORA-PJ-01PJ 8.436,53 3.374,61 0,00 0,00 0,00 0,00 0,00 1.717,00 13.528,14 1.702,06 1.910,64 0,00 0,00 3.612,70 9.915,44 30/04/2021
317 374700 ANTONIO SILVA NETO OFICIAL DO MP BELO HORIZONTE - COMARCA; GAECO - SECRETARIA 8.858,43 1.771,69 0,00 0,00 3.543,37 0,00 0,00 1.717,00 15.890,49 1.513,10 2.612,25 0,00 0,00 4.125,35 11.765,14 30/04/2021
318 636700 ANTONIUS VITORIANO FERNANDES OFICIAL DO MP BELO HORIZONTE - COMARCA; ASSESSORIA JURIDICA DO PROCON-MG 4.817,57 481,76 0,00 0,00 0,00 0,00 0,00 1.717,00 7.016,33 665,84 406,41 0,00 0,00 1.072,25 5.944,08 30/04/2021
319 413200 ANY PEREIRA SILVA ANALISTA DO MP TRÊS PONTAS - COMARCA; TRES PONTAS-PJ-01PJ 12.601,30 2.520,26 0,00 0,00 0,00 0,00 0,00 1.717,00 16.838,56 2.231,73 2.675,34 0,00 0,00 4.907,07 11.931,49 30/04/2021
320 151401 APARECIDA DE FATIMA MENDES DE ALMEIDA ASSESSOR JUIZ DE FORA - COMARCA; JUIZ DE FORA-PJ-SECRETARIA 0,00 0,00 5.136,32 0,00 0,00 0,00 0,00 1.717,00 6.853,32 738,09 669,60 0,00 0,00 1.407,69 5.445,63 30/04/2021
321 329300 APARECIDA MARIA MELO DE ASSIS OFICIAL DO MP BELO HORIZONTE - COMARCA; BH-18PJ DIREITOS HUMANOS-SECRETARIA 10.069,62 3.020,89 0,00 0,00 0,00 0,00 0,00 1.717,00 14.807,51 1.906,76 2.206,17 0,00 0,00 4.112,93 10.694,58 30/04/2021
322 475300 APARECIDA MARLENE FREIRE ROSA ANALISTA DO MP BELO HORIZONTE - COMARCA; BH-02PJ FAMILIA-SECRETARIA 12.204,02 10.983,62 0,00 0,00 0,00 3.522,30 0,00 1.717,00 28.426,94 3.522,30 5.507,24 0,00 0,00 9.029,54 19.397,40 30/04/2021
323 653000 APARECIDA ROSA DE LIMA ASSESSOR BELO HORIZONTE - COMARCA; SECRETARIA PROCESSOS DISCIPES ADMINISTRATIVOS 0,00 0,00 8.170,49 0,00 0,00 0,00 0,00 1.717,00 9.887,49 751,99 1.500,18 0,00 0,00 2.252,17 7.635,32 30/04/2021
324 354500 APARECIDA VIEIRA DE CARVALHO OFICIAL DO MP BELO HORIZONTE - COMARCA; DIVISÃO DE EDUCAÇÃO PARA O CONSUMO 7.663,37 1.532,67 0,00 0,00 0,00 0,00 0,00 1.717,00 10.913,04 1.283,64 1.306,55 0,00 0,00 2.590,19 8.322,85 30/04/2021
325 551000 ARACELES BICALHO FELIX ANALISTA DO MP MANHUAÇU - COMARCA; MANHUACU-PJ-02PJ 9.146,93 914,69 0,00 0,00 0,00 0,00 0,00 1.717,00 11.778,62 1.422,14 1.506,50 0,00 0,00 2.928,64 8.849,98 30/04/2021
326 286200 ARACELI MEDRADO DOS SANTOS LIMA OFICIAL DO MP PARACATU - COMARCA; PARACATU-PJ-03PJ 6.123,79 1.837,14 0,00 0,00 0,00 0,00 0,00 1.717,00 9.677,93 1.086,03 1.021,24 0,00 0,00 2.107,27 7.570,66 30/04/2021
327 112200 ARAQUEM AUGUSTO DE MATOS AGENTE DO MP BELO HORIZONTE - COMARCA; BH-23PJ CIVEL-SEC EXP CIVEIS 8.858,43 7.086,74 0,00 0,00 0,00 2.363,50 526,19 7.457,26 26.292,12 2.363,50 3.359,15 0,00 0,00 5.722,65 20.569,47 30/04/2021
328 280600 ARDUINO FRATTEZI ANALISTA DO MP BELO HORIZONTE - COMARCA; CENTRAL DE APOIO TECNICO-SETOR CONTABIL 17.413,92 5.224,18 0,00 0,00 0,00 0,00 498,04 7.150,14 30.286,28 3.434,37 4.411,67 0,00 0,00 7.846,04 22.440,24 30/04/2021
329 520201 ARIANE DE FATIMA CARVALHO ALMEIDA RODRIGUES ANALISTA DO MP VESPASIANO - COMARCA; VESPASIANO-PJ-04PJ 8.436,53 843,65 0,00 0,00 0,00 0,00 0,00 2.486,39 11.766,57 1.297,11 1.169,57 0,00 0,00 2.466,68 9.299,89 30/04/2021
330 537600 ARIELA FREIRE MONTIJO ANALISTA DO MP ARCOS - COMARCA; ARCOS-PJ-01PJ 9.146,93 914,69 0,00 0,00 0,00 0,00 0,00 2.486,39 12.548,01 1.422,14 1.402,22 0,00 0,00 2.824,36 9.723,65 30/04/2021
331 182000 ARILSON ALEXANDRE MARTINS MAGALHAES OFICIAL DO MP JOÃO MONLEVADE - COMARCA; JOAO MONLEVADE-PJ-01PJ 14.790,66 7.395,33 0,00 0,00 0,00 0,00 488,09 8.580,42 31.254,50 3.362,04 4.098,68 0,00 0,00 7.460,72 23.793,78 30/04/2021
332 511000 ARISLANE CAROLINA DA SILVA ANALISTA DO MP CAMPINA VERDE - COMARCA; CAMPINA VERDE-PJ-UNPJ 10.069,62 1.006,96 0,00 0,00 0,00 0,00 0,00 3.255,78 14.332,36 1.584,53 1.740,95 0,00 0,00 3.325,48 11.006,88 30/04/2021
333 170000 ARLEY BRITES DA SILVA ASSESSOR BELO HORIZONTE - COMARCA; BH-14PJ DEFESA CONSUMIDOR-SECRETARIA 0,00 2.054,53 5.136,32 0,00 0,00 0,00 0,00 1.717,00 8.907,85 751,99 604,62 0,00 0,00 1.356,61 7.551,24 30/04/2021
334 120400 ARLINDO CASSIO DA CRUZ OFICIAL DO MP SÃO GONÇALO DO SAPUCAÍ - COMARCA; SAO GONCALO DO SAPUCAI-PJ-01PJ 18.820,14 15.056,11 0,00 0,00 0,00 5.232,48 0,00 1.717,00 40.825,73 5.232,48 8.342,33 0,00 0,00 13.574,81 27.250,92 30/04/2021
335 243700 ARLINDO MARCIO LACERDA OFICIAL DO MP CONTAGEM - COMARCA; CONTAGEM-PJ-SECRETARIA 12.601,30 5.040,52 0,00 0,00 0,00 0,00 1.445,27 1.717,00 20.804,09 2.634,97 3.654,97 0,00 0,00 6.289,94 14.514,15 30/04/2021
336 392100 ARNALDO DE ANDRADE OFICIAL DO MP DIVINÓPOLIS - COMARCA; DIVINOPOLIS-PJ-02PJ 8.858,43 1.771,69 0,00 0,00 0,00 0,00 1.976,59 8.282,58 20.889,29 1.513,10 1.983,13 0,00 0,00 3.496,23 17.393,06 30/04/2021
337 642400 ARTANE INARDE DE SIQUEIRA DAMASCENO ANALISTA DO MP BELO HORIZONTE - COMARCA; PROC JUST ATUACAO TRIBUNAIS SUPERIORES-GAB005 8.170,49 490,23 0,00 0,00 0,00 0,00 0,00 1.717,00 10.377,72 841,65 1.280,88 0,00 0,00 2.122,53 8.255,19 30/04/2021
338 302100 AUGUSTO ROUSSEAU DE CASTRO ANALISTA DO MP CATAGUASES - COMARCA; CATAGUASES-PJ-02PJ 18.820,14 5.646,04 0,00 0,00 0,00 0,00 179,42 3.674,29 28.319,89 3.726,87 4.833,95 0,00 0,00 8.560,82 19.759,07 30/04/2021
339 540200 AUREA AVELAR BITTENCOURT OFICIAL DO MP BELO HORIZONTE - COMARCA; GRUPO ESP PROM JUST DEF PROB ADM PAT PUB 5.387,19 538,72 0,00 0,00 0,00 0,00 0,00 1.717,00 7.642,91 762,96 446,18 0,00 0,00 1.209,14 6.433,77 30/04/2021
340 633501 AUREA GONTIJO BIRCHAL ASSESSOR BELO HORIZONTE - COMARCA; PROCURADORIA-GERAL DE JUSTICA 0,00 0,00 6.264,04 0,00 0,00 0,00 0,00 1.444,73 7.708,77 751,99 901,03 0,00 0,00 1.653,02 6.055,75 30/04/2021
341 183200 AURELIANO MAGELA DE REZENDE COORDENADOR/OFICIAL BELO HORIZONTE - COMARCA; COORD DE GABINETE DO PGJ 15.499,20 6.199,68 2.687,03 0,00 0,00 0,00 536,49 7.569,62 32.492,02 3.284,10 4.933,64 0,00 0,00 8.217,74 24.274,28 30/04/2021
342 629400 AYESKA DA COSTA VAL MOURA DABIEN OFICIAL DO MP BELO HORIZONTE - COMARCA; BH-09PJ AUDITORIA MILITAR-SECRETARIA 5.387,19 538,72 0,00 0,00 0,00 0,00 0,00 1.717,00 7.642,91 762,96 550,45 0,00 0,00 1.313,41 6.329,50 30/04/2021
343 701600 BARBARA CHAVES OLIVEIRA ASSESSOR PROCURADOR JUSTICA BELO HORIZONTE - COMARCA; PROC. JUSTICA DIR. DIFUSOS E COLETIVOS-SEC 0,00 0,00 7.187,72 0,00 0,00 0,00 0,00 1.717,00 8.904,72 751,99 1.229,92 0,00 0,00 1.981,91 6.922,81 30/04/2021
344 691900 BARBARA COUTINHO REIS ASSESSOR PROCURADOR JUSTICA BELO HORIZONTE - COMARCA; GABINETE DE PROCURADOR DE JUSTIÇA - SALA 912 0,00 0,00 7.187,72 0,00 0,00 0,00 0,00 1.717,00 8.904,72 751,99 1.229,92 0,00 0,00 1.981,91 6.922,81 30/04/2021
345 692200 BARBARA CRISTINA MENDES BANDEIRA DE MELO ASSESSOR PROCURADOR JUSTICA BELO HORIZONTE - COMARCA; GABINETE DE PROCURADOR DE JUSTIÇA - SALA 1009 0,00 0,00 7.187,72 0,00 0,00 0,00 0,00 1.717,00 8.904,72 751,99 1.229,92 0,00 0,00 1.981,91 6.922,81 30/04/2021
346 652800 BARBARA JULIANNE MOREIRA CASTRO ASSESSOR PROCURADOR JUSTICA BELO HORIZONTE - COMARCA; ASSESS TECNICO-JUR JUNTO AS PROC. DE JUST 0,00 0,00 7.187,72 0,00 2.723,50 0,00 978,27 9.887,49 20.776,98 751,99 2.041,94 0,00 0,00 2.793,93 17.983,05 30/04/2021
347 663600 BARBARA REGINA PEREIRA DE PINHO MAGALHAES ASSESSOR BELO HORIZONTE - COMARCA; CAO-DH CONT EXT ATIV POLIC E AP COMUNIT-REC 0,00 0,00 8.170,49 0,00 0,00 0,00 0,00 1.717,00 9.887,49 751,99 1.500,18 0,00 0,00 2.252,17 7.635,32 30/04/2021
348 692400 BARBARA SOUZA OLIVEIRA ASSESSOR PROMOTOR JUSTICA DIVINO - COMARCA; DIVINO-PJ-UNPJ 0,00 0,00 7.187,72 0,00 0,00 0,00 0,00 1.717,00 8.904,72 751,99 1.229,92 0,00 0,00 1.981,91 6.922,81 30/04/2021
349 546500 BARBARA ZACARONI GOULART OFICIAL DO MP BETIM - COMARCA; BETIM-PJ-08PJ 5.387,19 538,72 0,00 0,00 0,00 0,00 0,00 1.717,00 7.642,91 762,96 550,45 0,00 0,00 1.313,41 6.329,50 30/04/2021
350 316500 BEATRIZ ABILVIA DA SILVA ANALISTA DO MP GOVERNADOR VALADARES - COMARCA; GOVERNADOR VALADARES-PJ-07PJ 16.750,82 5.025,25 0,00 0,00 0,00 0,00 479,07 6.943,26 29.198,40 3.296,45 4.212,54 0,00 0,00 7.508,99 21.689,41 30/04/2021
351 311800 BEATRIZ APARECIDA SOARES GANEM OFICIAL DO MP ITAMBACURI - COMARCA; ITAMBACURI-PJ-02PJ 10.069,62 3.020,89 0,00 0,00 0,00 0,00 0,00 1.717,00 14.807,51 1.906,76 2.049,76 0,00 0,00 3.956,52 10.850,99 30/04/2021
352 266800 BEATRIZ AUGUSTA VILACA GOMES DE HUBER OFICIAL DO MP BELO HORIZONTE - COMARCA; BH-05PJ-JUÍZO SUCESSÕES-SEC 9.146,93 2.744,08 0,00 0,00 0,00 0,00 0,00 1.717,00 13.608,01 1.714,84 1.929,09 0,00 0,00 3.643,93 9.964,08 30/04/2021
353 235200 BEATRIZ BOTELHO BATISTA OFICIAL DO MP BELO HORIZONTE - COMARCA; BH-21PJ TUTELA FUNDACOES-SECRETARIA 10.069,62 4.027,85 0,00 0,00 0,00 0,00 0,00 1.717,00 15.814,47 2.067,87 2.438,78 0,00 0,00 4.506,65 11.307,82 30/04/2021
354 182300 BEATRIZ PAULA SOUSA RAMOS OFICIAL DO MP MARIANA - COMARCA; MARIANA-PJ-01PJ 14.790,66 7.395,33 0,00 0,00 0,00 0,00 0,00 1.717,00 23.902,99 3.362,04 4.255,09 0,00 0,00 7.617,13 16.285,86 30/04/2021
355 507000 BELCHIOR FRANKLIN AMARAL LEITE ANALISTA DO MP BELO HORIZONTE - COMARCA; CENTRAL DE APOIO TECNICO 10.069,62 1.006,96 0,00 0,00 3.692,19 0,00 0,00 2.486,39 17.255,16 1.584,53 2.599,89 0,00 0,00 4.184,42 13.070,74 30/04/2021
356 345100 BENITO ELIAS RODRIGUES ANALISTA DO MP BARBACENA - COMARCA; BARBACENA - SECRETARIA DAS PJS CRIMINAIS 15.272,02 4.581,61 0,00 0,00 0,00 0,00 1.689,60 3.488,56 25.031,79 3.233,21 4.121,24 0,00 0,00 7.354,45 17.677,34 30/04/2021
357 207300 BENITO VIEIRA DOS SANTOS ANALISTA DO MP BELO HORIZONTE - COMARCA; COMB CRIMES PRAT POR AG POL MUN-ASSESSORIA 18.820,14 7.528,06 0,00 0,00 0,00 4.027,99 483,05 6.986,64 37.845,88 4.027,99 5.167,94 0,00 0,00 9.195,93 28.649,95 30/04/2021
358 480200 BERNADETE NUNES DOS SANTOS ANALISTA DO MP GUANHÃES - COMARCA; GUANHAES-PJ-02PJ 10.069,62 3.020,89 0,00 0,00 0,00 0,00 0,00 1.717,00 14.807,51 1.906,76 2.206,17 0,00 0,00 4.112,93 10.694,58 30/04/2021
359 378400 BETANIA FARNESI DE SOUZA E SILVA OFICIAL DO MP SETE LAGOAS - COMARCA; SETE LAGOAS-PJ-SEC CRIMINAIS 8.858,43 3.543,37 0,00 0,00 0,00 0,00 545,68 7.669,86 20.617,34 1.796,57 1.994,94 0,00 0,00 3.791,51 16.825,83 30/04/2021
360 387400 BETANIA MENDONCA DE ASSIS CARVALHO ANALISTA DO MP JUIZ DE FORA - COMARCA; JUIZ DE FORA-PJ-03PJ 14.324,23 2.864,85 0,00 0,00 0,00 0,00 0,00 1.717,00 18.906,08 2.562,53 3.100,80 0,00 0,00 5.663,33 13.242,75 30/04/2021
361 450300 BIANCA OLIVEIRA DE ALBUQUERQUE ANALISTA DO MP BELO HORIZONTE - COMARCA; BH-10PJ EXECUÇÃO PENAL-SECRETARIA 10.069,62 2.013,92 0,00 0,00 0,00 0,00 0,00 1.717,00 13.800,54 1.745,64 1.973,56 0,00 0,00 3.719,20 10.081,34 30/04/2021
362 535400 BIANCA SALOTO ROSSI ANALISTA DO MP SANTOS DUMONT - COMARCA; SANTOS DUMONT-PJ-01PJ 9.146,93 914,69 0,00 0,00 0,00 0,00 0,00 2.486,39 12.548,01 1.422,14 1.506,50 0,00 0,00 2.928,64 9.619,37 30/04/2021
363 120800 BRAS MARQUES DE SOUZA ANALISTA DO MP BELO HORIZONTE - COMARCA; SUPERINTENDENCIA DE GESTAO ADMINISTRATIVA 23.757,25 19.005,81 0,00 0,00 0,00 5.486,23 520,11 7.390,96 56.160,36 5.486,23 8.778,48 7.300,84 0,00 21.565,55 34.594,81 30/04/2021
364 460900 BRENO CRISTIANO DE SOUZA REZENDE ANALISTA DO MP ITAÚNA - COMARCA; ITAUNA-PJ-02PJ 9.752,14 1.950,43 0,00 0,00 0,00 0,00 0,00 1.717,00 13.419,57 1.684,69 1.885,56 0,00 0,00 3.570,25 9.849,32 30/04/2021
365 239000 BRENO VENANCIO ROMANINI OFICIAL DO MP BELO HORIZONTE - COMARCA; BH-20PJ ORD ECON TRIBUTARIA-SECRETARIA 10.069,62 3.020,89 0,00 0,00 0,00 0,00 144,00 3.287,86 16.522,37 1.906,76 2.206,17 0,00 0,00 4.112,93 12.409,44 30/04/2021
366 202201 BRIGITTE AMARALINA DE CALDAS LIMA OFICIAL DO MP NANUQUE - COMARCA; NANUQUE-PJ-03PJ 10.069,62 4.027,85 0,00 0,00 0,00 0,00 0,00 1.717,00 15.814,47 2.067,87 2.178,09 0,00 0,00 4.245,96 11.568,51 30/04/2021
367 642300 BRUNA IZABELITA DE FATIMA OLIVEIRA COSTA OFICIAL DO MP BELO HORIZONTE - COMARCA; BH-02PJ FAMILIA-SECRETARIA 5.217,34 521,73 0,00 0,00 0,00 0,00 0,00 1.717,00 7.456,07 734,31 506,95 0,00 0,00 1.241,26 6.214,81 30/04/2021
368 513600 BRUNA KARLA MARTINS CARVALHO ANALISTA DO MP GOVERNADOR VALADARES - COMARCA; GOVERNADOR VALADARES-PJ-14PJ 10.069,62 1.006,96 0,00 0,00 0,00 0,00 0,00 1.717,00 12.793,58 1.584,53 1.740,95 0,00 0,00 3.325,48 9.468,10 30/04/2021
369 415100 BRUNA MARIA SOARES OLIVEIRA COSTA RAMOS ANALISTA DO MP UBÁ - COMARCA; COORD REG BACIA DO RIO PARAIBA DO SUL 13.011,52 2.602,30 0,00 0,00 0,00 0,00 0,00 1.717,00 17.330,82 2.310,49 2.789,06 0,00 0,00 5.099,55 12.231,27 30/04/2021
370 692900 BRUNA MENDES COELHO ASSESSOR PROCURADOR JUSTICA BELO HORIZONTE - COMARCA; GABINETE DE PROCURADOR DE JUSTIÇA - SALA 801 0,00 0,00 7.187,72 0,00 0,00 0,00 0,00 1.717,00 8.904,72 751,99 1.229,92 0,00 0,00 1.981,91 6.922,81 30/04/2021
371 470000 BRUNA MORAES ANALISTA DO MP TOMBOS - COMARCA; TOMBOS-PJ-UNPJ 12.204,02 2.440,80 0,00 0,00 0,00 0,00 0,00 1.717,00 16.361,82 2.155,45 2.408,81 0,00 0,00 4.564,26 11.797,56 30/04/2021
372 614700 BRUNA NATTANY DE LIMA OFICIAL DO MP MANTENA - COMARCA; MANTENA-PJ-01PJ 5.387,19 538,72 0,00 0,00 0,00 0,00 0,00 1.717,00 7.642,91 762,96 550,45 0,00 0,00 1.313,41 6.329,50 30/04/2021
373 693300 BRUNA RAMONY ROCHA DA CRUZ ASSESSOR PROMOTOR JUSTICA JAIBA - COMARCA; JAIBA-PJ-UNPJ 0,00 0,00 7.187,72 0,00 0,00 0,00 0,00 1.717,00 8.904,72 751,99 1.229,92 0,00 0,00 1.981,91 6.922,81 30/04/2021
374 631800 BRUNA RAPOSO JORGE OFICIAL DO MP JUIZ DE FORA - COMARCA; JUIZ DE FORA-PJ-06PJ 5.387,19 538,72 0,00 0,00 0,00 0,00 0,00 1.717,00 7.642,91 762,96 550,45 0,00 0,00 1.313,41 6.329,50 30/04/2021
375 697400 BRUNA SILVA SANTOS ASSESSOR PROMOTOR JUSTICA TIMÓTEO - COMARCA; TIMOTEO-PJ-04PJ 0,00 0,00 7.187,72 0,00 0,00 0,00 0,00 1.717,00 8.904,72 751,99 1.229,92 0,00 0,00 1.981,91 6.922,81 30/04/2021
376 699300 BRUNA URSINE TIMO ASSESSOR PROCURADOR JUSTICA BELO HORIZONTE - COMARCA; COMB CRIMES PRAT POR AG POL MUN-ASSESSORIA 0,00 0,00 7.187,72 0,00 0,00 0,00 0,00 1.717,00 8.904,72 751,99 1.229,92 0,00 0,00 1.981,91 6.922,81 30/04/2021
377 463800 BRUNO ALVES TEIXEIRA ANALISTA DO MP UBERLÂNDIA - COMARCA; UBERLANDIA-PJ-04PJ 10.069,62 2.013,92 0,00 0,00 0,00 0,00 0,00 1.717,00 13.800,54 1.745,64 1.973,56 0,00 0,00 3.719,20 10.081,34 30/04/2021
378 538500 BRUNO AUGUSTO DA SILVA OFICIAL DO MP SANTA LUZIA - COMARCA; SANTA LUZIA-PJ-03PJ 5.930,75 593,08 0,00 0,00 0,00 0,00 0,00 1.717,00 8.240,83 856,09 689,27 0,00 0,00 1.545,36 6.695,47 30/04/2021
379 318200 BRUNO BARROS DE SOUZA OFICIAL DO MP UBÁ - COMARCA; UBA-PJ-04PJ 10.069,62 3.020,89 0,00 0,00 0,00 0,00 0,00 1.717,00 14.807,51 1.906,76 1.827,17 0,00 0,00 3.733,93 11.073,58 30/04/2021
380 459600 BRUNO CASTELAR LUGAO MENDES OFICIAL DO MP BELO HORIZONTE - COMARCA; PROC JUST RECURSOS ESP E EXTRAORD CRIMINAIS 7.912,85 1.582,57 0,00 0,00 0,00 0,00 0,00 1.717,00 11.212,42 1.331,54 1.375,71 0,00 0,00 2.707,25 8.505,17 30/04/2021
381 427400 BRUNO CESAR RIBEIRO DE PAIVA ANALISTA DO MP BELO HORIZONTE - COMARCA; ASSESS JUR DO CONS SUPERIOR DO MINISTERIO PUB 13.011,52 2.602,30 0,00 0,00 0,00 0,00 0,00 1.717,00 17.330,82 2.310,49 2.789,06 0,00 0,00 5.099,55 12.231,27 30/04/2021
382 380900 BRUNO CIRILO ANTUNES OFICIAL DO MP VARGINHA - COMARCA; VARGINHA-PJ-05PJ 8.579,10 1.715,82 0,00 0,00 0,00 0,00 0,00 1.717,00 12.011,92 1.459,46 1.560,39 0,00 0,00 3.019,85 8.992,07 30/04/2021
383 329000 BRUNO DE MELO REIS ANALISTA DO MP PATROCÍNIO - COMARCA; PATROCINIO-PJ-02PJ 16.750,82 5.025,25 0,00 0,00 0,00 0,00 479,07 8.482,04 30.737,18 3.296,45 4.108,26 0,00 0,00 7.404,71 23.332,47 30/04/2021
384 697800 BRUNO GAZZOLA BEZERRA FALCAO ASSESSOR PROCURADOR JUSTICA BELO HORIZONTE - COMARCA; PROCURADOR-GERAL ADJUNTO JURIDICO- GABINETE 0,00 0,00 7.187,72 0,00 0,00 0,00 0,00 1.717,00 8.904,72 751,99 1.229,92 0,00 0,00 1.981,91 6.922,81 30/04/2021
385 378300 BRUNO HERDY LOPES DE OLIVEIRA ANALISTA DO MP GOVERNADOR VALADARES - COMARCA; GOVERNADOR VALADARES-PJ-03PJ 14.324,23 2.864,85 0,00 0,00 0,00 0,00 504,21 7.217,51 24.910,80 2.562,53 3.152,94 0,00 0,00 5.715,47 19.195,33 30/04/2021
386 529700 BRUNO JOSE BUENO DIAS OFICIAL DO MP SÃO SEBASTIÃO DO PARAÍSO - COMARCA; SAO SEBASTIAO DO PARAISO-PJ-02PJ 5.930,75 593,08 0,00 0,00 0,00 0,00 0,00 1.717,00 8.240,83 856,09 637,13 0,00 0,00 1.493,22 6.747,61 30/04/2021
387 691600 BRUNO JOSE RIBEIRO ASSESSOR PROMOTOR JUSTICA CLÁUDIO - COMARCA; CLAUDIO-PJ-UNPJ 0,00 0,00 7.187,72 0,00 0,00 0,00 0,00 1.717,00 8.904,72 751,99 1.229,92 0,00 0,00 1.981,91 6.922,81 30/04/2021
388 350100 BRUNO LAUD SERRANO DOS REIS OFICIAL DO MP UBÁ - COMARCA; UBA-PJ-02PJ 9.444,70 2.833,41 0,00 0,00 0,00 0,00 0,00 1.717,00 13.995,11 1.776,77 1.966,37 0,00 0,00 3.743,14 10.251,97 30/04/2021
389 373800 BRUNO MARTINO DE ALBUQUERQUE ANALISTA DO MP PONTE NOVA - COMARCA; PONTE NOVA-PJ-03PJ 14.324,23 2.864,85 0,00 0,00 0,00 0,00 63,03 2.404,56 19.656,67 2.562,53 3.048,67 0,00 0,00 5.611,20 14.045,47 30/04/2021
390 470400 BRUNO NOVAIS CABRAL ANALISTA DO MP MUTUM - COMARCA; MUTUM-PJ-UNPJ 10.069,62 2.013,92 0,00 0,00 0,00 0,00 0,00 2.486,39 14.569,93 1.745,64 1.869,29 0,00 0,00 3.614,93 10.955,00 30/04/2021
391 648600 BRUNO RIBEIRO E MELO ASSESSOR BELO HORIZONTE - COMARCA; CENTRO CERIMONIAL 0,00 0,00 8.170,49 0,00 0,00 0,00 0,00 1.717,00 9.887,49 751,99 1.500,18 0,00 0,00 2.252,17 7.635,32 30/04/2021
392 369200 BRUNO ROBERTO DIAS DE OLIVEIRA OFICIAL DO MP BELO HORIZONTE - COMARCA; BH-22PJ PES COM DEF E IDOSOS-SECRETARIA 9.146,93 1.829,39 0,00 0,00 0,00 0,00 0,00 1.717,00 12.693,32 1.568,49 1.717,79 0,00 0,00 3.286,28 9.407,04 30/04/2021
393 547700 BRUNO ROBERTO SOUZA GONCALVES ANALISTA DO MP PARACATU - COMARCA; PARACATU-PJ-03PJ 9.146,93 914,69 0,00 0,00 0,00 0,00 0,00 3.255,78 13.317,40 1.422,14 1.506,50 0,00 0,00 2.928,64 10.388,76 30/04/2021
394 546100 BRUNO SA VIEIRA ANALISTA DO MP BARBACENA - COMARCA; BARBACENA-PJ-SECRETARIA 9.146,93 914,69 0,00 0,00 0,00 0,00 0,00 1.717,00 11.778,62 1.422,14 1.454,36 0,00 0,00 2.876,50 8.902,12 30/04/2021
395 438200 BRUNO SALES PEREIRA ANALISTA DO MP BELO HORIZONTE - COMARCA; CENTRAL DE APOIO TECNICO-SETOR CONTABIL 12.204,02 2.440,80 0,00 0,00 0,00 0,00 0,00 2.486,39 17.131,21 2.155,45 2.513,08 0,00 0,00 4.668,53 12.462,68 30/04/2021
396 537400 BRUNO SANT'ANA CESAR ANALISTA DO MP CONTAGEM - COMARCA; CONTAGEM-PJ-21PJ 9.146,93 914,69 0,00 0,00 0,00 0,00 0,00 1.717,00 11.778,62 1.422,14 1.506,50 0,00 0,00 2.928,64 8.849,98 30/04/2021
397 679000 BRUNO WILLIANS PAULINO DE MELLO ASSESSOR PROCURADOR JUSTICA BELO HORIZONTE - COMARCA; GABINETE DE PROCURADOR DE JUSTIÇA - SALA 1006 0,00 0,00 7.187,72 0,00 0,00 0,00 0,00 1.717,00 8.904,72 751,99 1.229,92 0,00 0,00 1.981,91 6.922,81 30/04/2021
398 405800 CAIO FERNANDO RODRIGUES DE OLIVEIRA ANALISTA DO MP BELO HORIZONTE - COMARCA; GABINETE DE PROCURADOR DE JUSTIÇA - SALA 805 13.011,52 2.602,30 0,00 0,00 0,00 0,00 0,00 1.717,00 17.330,82 2.310,49 2.789,06 0,00 0,00 5.099,55 12.231,27 30/04/2021
399 530000 CAIO GUEDES DE OLIVEIRA ANALISTA DO MP DIAMANTINA - COMARCA; DIAMANTINA-PJ-02PJ 10.069,62 1.006,96 0,00 0,00 0,00 0,00 0,00 2.486,39 13.562,97 1.584,53 1.688,82 0,00 0,00 3.273,35 10.289,62 30/04/2021
400 491400 CAIO MIRANDA JUNQUEIRA ANALISTA DO MP BUENO BRANDAO - COMARCA; BUENO BRANDAO-PJ-UNPJ 10.069,62 1.006,96 0,00 0,00 0,00 0,00 0,00 2.101,69 13.178,27 1.584,53 1.636,68 0,00 0,00 3.221,21 9.957,06 30/04/2021
401 415800 CAMILA ALVES DA SILVA ANALISTA DO MP CAETÉ - COMARCA; CAETE-PJ-01PJ 13.011,52 2.602,30 0,00 0,00 0,00 0,00 515,26 7.337,98 23.467,06 2.310,49 2.789,06 0,00 0,00 5.099,55 18.367,51 30/04/2021
402 555800 CAMILA CAROLINE ROCHA CHAVES OFICIAL DO MP SALINAS - COMARCA; SALINAS-PJ-01PJ 5.930,75 593,08 0,00 0,00 0,00 0,00 0,00 1.717,00 8.240,83 856,09 689,27 0,00 0,00 1.545,36 6.695,47 30/04/2021
403 445200 CAMILA CONDE ROCHA ANALISTA DO MP CONTAGEM - COMARCA; CONTAGEM-PJ-08PJ 10.069,62 2.013,92 0,00 0,00 0,00 0,00 0,00 2.486,39 14.569,93 1.745,64 1.973,56 0,00 0,00 3.719,20 10.850,73 30/04/2021
404 419900 CAMILA CUNNINGHAM PIMENTA DE PADUA ANALISTA DO MP BELO HORIZONTE - COMARCA; ASSESSORIA PSICOSSOCIAL 13.011,52 2.602,30 0,00 0,00 0,00 0,00 0,00 1.717,00 17.330,82 2.310,49 2.789,06 0,00 0,00 5.099,55 12.231,27 30/04/2021
405 507700 CAMILA ELIZABETH RODRIGUES ANALISTA DO MP BELO HORIZONTE - COMARCA; BH-02PJ FAMILIA-SECRETARIA 10.736,08 1.073,61 0,00 0,00 0,00 0,00 0,00 1.717,00 13.526,69 1.701,83 1.910,30 0,00 0,00 3.612,13 9.914,56 30/04/2021
406 372700 CAMILA FONSECA LIMONGE ANALISTA DO MP BETIM - COMARCA; BETIM-PJ-01PJ 14.324,23 2.864,85 0,00 0,00 0,00 0,00 63,03 3.173,95 20.426,06 2.562,53 3.152,94 0,00 0,00 5.715,47 14.710,59 30/04/2021
407 621300 CAMILA GOLFETO DE SOUSA VALENTE OFICIAL DO MP ESPERA FELIZ - COMARCA; ESPERA FELIZ-PJ-UNPJ 5.387,19 538,72 0,00 0,00 0,00 0,00 0,00 2.870,54 8.796,45 762,96 397,56 0,00 0,00 1.160,52 7.635,93 30/04/2021
408 409800 CAMILA GONCALVES COSTA RIBEIRO ANALISTA DO MP INHAPIM - COMARCA; INHAPIM-PJ-02PJ 10.069,62 2.013,92 0,00 0,00 0,00 0,00 0,00 2.486,39 14.569,93 1.745,64 1.921,43 0,00 0,00 3.667,07 10.902,86 30/04/2021
409 335000 CAMILA GONTIJO DE PAIVA ANALISTA DO MP BELO HORIZONTE - COMARCA; COORD DE CONTROLE DA CONSTITUCIONALIDADE 16.112,82 4.833,85 0,00 0,00 0,00 0,00 537,63 7.582,07 29.066,37 3.163,74 3.968,81 0,00 0,00 7.132,55 21.933,82 30/04/2021
410 693400 CAMILA HECKSHER MONTEIRO ASSESSOR PROCURADOR JUSTICA BELO HORIZONTE - COMARCA; GABINETE DE PROCURADOR DE JUSTIÇA - SALA 613 0,00 0,00 7.187,72 0,00 0,00 0,00 0,00 1.717,00 8.904,72 751,99 1.229,92 0,00 0,00 1.981,91 6.922,81 30/04/2021
411 696000 CAMILA IMACULADA OLIVEIRA ASSESSOR PROCURADOR JUSTICA BELO HORIZONTE - COMARCA; GABINETE DE PROCURADOR DE JUSTIÇA - SALA 804 0,00 0,00 7.187,72 0,00 0,00 0,00 0,00 1.717,00 8.904,72 751,99 1.229,92 0,00 0,00 1.981,91 6.922,81 30/04/2021
412 547800 CAMILA MATTARELLI DE ABREU E SILVA ANALISTA DO MP BELO HORIZONTE - COMARCA; CAO-VIOLENCIA DOMESTICA E FAMILIAR 9.146,93 914,69 0,00 0,00 0,00 0,00 0,00 1.717,00 11.778,62 1.422,14 1.506,50 0,00 0,00 2.928,64 8.849,98 30/04/2021
413 430000 CANDIDA MARINA COSTA ANALISTA DO MP BELO HORIZONTE - COMARCA; DIVISAO DE DOCUMENTACAO JURIDICA 13.011,52 2.602,30 0,00 0,00 0,00 0,00 0,00 1.717,00 17.330,82 2.310,49 2.789,06 0,00 0,00 5.099,55 12.231,27 30/04/2021
414 614300 CARINA CORTIELHA OFICIAL DO MP BELO HORIZONTE - COMARCA; BH-23PJ CIVEL-SEC EXP CIVEIS 4.974,42 497,44 0,00 0,00 0,00 0,00 0,00 1.717,00 7.188,86 694,23 444,49 0,00 0,00 1.138,72 6.050,14 30/04/2021
415 380400 CARINA DIAS FACANHA DE SOUZA ANALISTA DO MP SANTA RITA DO SAPUCAÍ - COMARCA; SANTA RITA DO SAPUCAI-PJ-SECRETARIA 14.324,23 2.864,85 0,00 0,00 0,00 0,00 0,00 1.717,00 18.906,08 2.562,53 3.152,94 0,00 0,00 5.715,47 13.190,61 30/04/2021
416 698300 CARINA ESTEPHANY FAVATO FERREIRA JUSTE ASSESSOR PROCURADOR JUSTICA BELO HORIZONTE - COMARCA; PROC. JUSTICA DIR. DIFUSOS E COLETIVOS-SEC 0,00 0,00 7.187,72 0,00 0,00 0,00 0,00 1.717,00 8.904,72 751,99 1.229,92 0,00 0,00 1.981,91 6.922,81 30/04/2021
417 255000 CARLA ADRIANA DE MENEZES OFICIAL DO MP BELO HORIZONTE - COMARCA; CENT DE APOIO TEC-SETOR DEF,IDOSO E INFANC 10.069,62 3.020,89 0,00 0,00 0,00 0,00 0,00 1.717,00 14.807,51 1.906,76 2.206,17 0,00 0,00 4.112,93 10.694,58 30/04/2021
418 425100 CARLA ADRIANA DINIZ AMARAL OFICIAL DO MP CONTAGEM - COMARCA; CONTAGEM-PJ-SECRETARIA 8.579,10 1.715,82 0,00 0,00 0,00 0,00 0,00 1.717,00 12.011,92 1.459,46 1.560,39 0,00 0,00 3.019,85 8.992,07 30/04/2021
419 508100 CARLA ALESSANDRA FONSECA ANALISTA DO MP BELO HORIZONTE - COMARCA; CAO-ORDEM ECONOMICA E TRIBUTARIA-SECRETARIA 10.069,62 1.006,96 0,00 0,00 0,00 0,00 0,00 1.717,00 12.793,58 1.584,53 1.740,95 0,00 0,00 3.325,48 9.468,10 30/04/2021
420 607100 CARLA ANGELICA DIAS MIRANDA OFICIAL DO MP JABOTICATUBAS - COMARCA; JABOTICATUBAS-PJ-UNPJ 5.930,75 593,08 0,00 0,00 0,00 0,00 0,00 1.717,00 8.240,83 856,09 532,86 0,00 0,00 1.388,95 6.851,88 30/04/2021
421 351500 CARLA APARECIDA MENDES RAMIRIO OFICIAL DO MP PASSOS - COMARCA; PASSOS-PJ-01PJ 9.146,93 1.829,39 0,00 0,00 0,00 0,00 0,00 1.717,00 12.693,32 1.568,49 1.665,66 0,00 0,00 3.234,15 9.459,17 30/04/2021
422 442800 CARLA GONCALVES COSTA SOALHEIRO ANALISTA DO MP GOVERNADOR VALADARES - COMARCA; GOVERNADOR VALADARES-PJ-11PJ 10.069,62 2.013,92 0,00 0,00 0,00 0,00 0,00 2.486,39 14.569,93 1.745,64 1.921,43 0,00 0,00 3.667,07 10.902,86 30/04/2021
423 321500 CARLA GONCALVES MASSOTE OFICIAL DO MP CAMPO BELO - COMARCA; CAMPO BELO-PJ-01PJ 10.069,62 3.020,89 0,00 0,00 0,00 0,00 144,00 3.287,86 16.522,37 1.906,76 2.206,17 0,00 0,00 4.112,93 12.409,44 30/04/2021
424 429200 CARLA HAUTEQUESTT BECHARA COORDENADOR/ANALISTA BELO HORIZONTE - COMARCA; DIRET DE INFORMACAO E CONHECIMENTO-DINC/CEAF 13.011,52 2.602,30 2.687,03 0,00 0,00 0,00 0,00 1.717,00 20.017,85 2.310,49 3.527,99 0,00 0,00 5.838,48 14.179,37 30/04/2021
425 247500 CARLA MATILDE GUIMARAES DE OLIVEIRA OFICIAL DO MP ITAJUBA - COMARCA; ITAJUBA-PJ-SECRETARIA 10.069,62 4.027,85 0,00 0,00 0,00 0,00 0,00 1.717,00 15.814,47 2.067,87 2.386,64 0,00 0,00 4.454,51 11.359,96 30/04/2021
426 226100 CARLA MERLI DA CONCEICAO ANALISTA DO MP BELO HORIZONTE - COMARCA; CENTRAL DE APOIO TECNICO-SETOR CONTABIL 18.820,14 5.646,04 0,00 0,00 0,00 0,00 538,26 7.588,88 32.593,32 3.726,87 4.781,81 0,00 0,00 8.508,68 24.084,64 30/04/2021
427 181401 CARLO MICHEL GAUDENSI COELHO ANALISTA DO MP BELO HORIZONTE - COMARCA; BH-08PJ JUIZADO ESPECIAL-SECRETARIA 12.601,30 5.040,52 0,00 0,00 0,00 0,00 64,69 2.422,67 20.129,18 2.634,97 3.257,52 0,00 0,00 5.892,49 14.236,69 30/04/2021
428 634000 CARLOS ALBERTO AMORMINO TRIGUEIRO ANALISTA DO MP BELO HORIZONTE - COMARCA; DIRET DE APOIO AS PROCURADORIAS DE JUSTICA 8.170,49 817,05 0,00 0,00 0,00 0,00 0,00 2.486,39 11.473,93 1.250,28 1.206,25 0,00 0,00 2.456,53 9.017,40 30/04/2021
429 637900 CARLOS ALBERTO DE MOURA OFICIAL DO MP SETE LAGOAS - COMARCA; SETE LAGOAS-PJ-07PJ 5.217,34 521,73 0,00 0,00 1.913,02 0,00 0,00 1.717,00 9.369,09 734,00 980,98 0,00 0,00 1.714,98 7.654,11 30/04/2021
430 638700 CARLOS ALBERTO FERREIRA BRAGA ANALISTA DO MP MATOZINHOS - COMARCA; MATOZINHOS-PJ-01PJ 8.170,49 817,05 0,00 0,00 0,00 0,00 0,00 1.717,00 10.704,54 841,65 1.266,49 0,00 0,00 2.108,14 8.596,40 30/04/2021
431 375801 CARLOS ALBERTO ROCHA ANALISTA DO MP VARGINHA - COMARCA; GAECO REGIONAL DE VARGINHA 10.069,62 1.006,96 0,00 0,00 0,00 0,00 0,00 1.717,00 12.793,58 1.584,53 1.740,95 0,00 0,00 3.325,48 9.468,10 30/04/2021
432 462800 CARLOS ANDREI SOARES FAGUNDES ANALISTA DO MP MONTES CLAROS - COMARCA; MONTES CLAROS-PJ-09PJ 10.069,62 2.013,92 0,00 0,00 0,00 0,00 0,00 1.717,00 13.800,54 1.745,64 1.921,43 0,00 0,00 3.667,07 10.133,47 30/04/2021
433 370300 CARLOS AUGUSTO BUENO DIAS ASSESSOR BELO HORIZONTE - COMARCA; SUPERINTENDÊNCIA DE ENGENHARIA E ARQUITETURA 0,00 0,00 10.397,52 0,00 0,00 0,00 0,00 1.717,00 12.114,52 751,99 1.463,96 0,00 0,00 2.215,95 9.898,57 30/04/2021
434 701800 CARLOS AUGUSTO GOMES DE MORAES SALLES ASSESSOR PROCURADOR JUSTICA BELO HORIZONTE - COMARCA; PROC JUST ATUACAO TRIBUNAIS SUPERIORES-GAB004 0,00 0,00 7.187,72 0,00 0,00 0,00 0,00 1.717,00 8.904,72 751,99 1.229,92 0,00 0,00 1.981,91 6.922,81 30/04/2021
435 505100 CARLOS CEZAR CARVALHO ANALISTA DO MP RIBEIRÃO DAS NEVES - COMARCA; RIBEIRAO DAS NEVES-PJ-04PJ 10.069,62 4.027,85 0,00 0,00 0,00 0,00 0,00 1.717,00 15.814,47 2.067,87 2.334,51 0,00 0,00 4.402,38 11.412,09 30/04/2021
436 195900 CARLOS DE SOUZA FERREIRA OFICIAL DO MP COROMANDEL - COMARCA; COROMANDEL-PJ-UNPJ 10.069,62 8.055,69 0,00 0,00 6.041,77 2.712,33 0,00 1.717,00 28.596,41 2.712,33 5.776,59 0,00 0,00 8.488,92 20.107,49 30/04/2021
437 196800 CARLOS EDUARDO DE OLIVEIRA MARINHO OFICIAL DO MP ALPINÓPOLIS - COMARCA; ALPINOPOLIS-PJ-UNPJ 15.272,02 10.690,41 0,00 0,00 0,00 0,00 475,98 6.909,49 33.347,90 3.966,27 5.127,45 0,00 0,00 9.093,72 24.254,18 30/04/2021
438 650800 CARLOS EDUARDO NIZA DA SILVA OFICIAL DO MP IGARAPÉ - COMARCA; IGARAPE-PJ-01PJ 4.376,03 262,56 0,00 0,00 0,00 0,00 0,00 1.717,00 6.355,59 563,43 199,60 0,00 0,00 763,03 5.592,56 30/04/2021
439 491800 CARLOS EDUARDO ROMAN OFICIAL DO MP BARBACENA - COMARCA; BARBACENA-PJ-09PJ 7.663,37 1.532,67 0,00 0,00 0,00 0,00 0,00 1.717,00 10.913,04 1.283,64 1.306,55 0,00 0,00 2.590,19 8.322,85 30/04/2021
440 299300 CARLOS HENRIQUE BICALHO ANALISTA DO MP BELO HORIZONTE - COMARCA; BH-17PJ PATRIMONIO PUBLICO-SECRETARIA 17.413,92 6.965,57 0,00 0,00 0,00 0,00 536,35 8.337,47 33.253,31 3.713,00 4.813,92 0,00 0,00 8.526,92 24.726,39 30/04/2021
441 205100 CARLOS HENRIQUE ESTEVES OFICIAL DO MP ITAMBACURI - COMARCA; ITAMBACURI-PJ-01PJ 15.272,02 6.108,81 0,00 0,00 0,00 0,00 313,59 5.137,93 26.832,35 3.233,21 4.069,10 0,00 0,00 7.302,31 19.530,04 30/04/2021
442 351600 CARLOS HENRIQUE FELICIO DA FONSECA OFICIAL DO MP JUIZ DE FORA - COMARCA; JUIZ DE FORA-PJ-21PJ 9.752,14 2.925,64 0,00 0,00 0,00 0,00 0,00 1.717,00 14.394,78 1.840,72 2.058,69 0,00 0,00 3.899,41 10.495,37 30/04/2021
443 85400 CARLOS JOSE VIEIRA OFICIAL DO MP BELO HORIZONTE - COMARCA; DIRETORIA DO COLEGIO E DA CAMARA DE PJ 23.757,25 19.005,81 0,00 0,00 0,00 0,00 520,11 7.390,96 50.674,13 5.486,23 7.374,04 7.300,84 0,00 20.161,11 30.513,02 30/04/2021
444 229100 CARLOS MERCES DE OLIVEIRA ANALISTA DO MP BELO HORIZONTE - COMARCA; CENTRAL DE APOIO TECN-SETOR DE MEIO AMBIENTE 18.820,14 7.528,06 0,00 0,00 0,00 0,00 0,00 1.717,00 28.065,20 4.027,99 4.124,54 0,00 0,00 8.152,53 19.912,67 30/04/2021
445 538300 CARLOS RANGEL SILVA DE MELO ANALISTA DO MP BELO HORIZONTE - COMARCA; DIVISAO DE CONTROLE IMOBILIARIO 9.146,93 2.744,08 0,00 0,00 0,00 0,00 0,00 2.486,39 14.377,40 1.714,84 1.929,09 0,00 0,00 3.643,93 10.733,47 30/04/2021
446 265100 CARLOS REIFF MIRANDA ANALISTA DO MP BELO HORIZONTE - COMARCA; BH-19PJ SAUDE-SECRETARIA 150PJ 18.820,14 5.646,04 0,00 0,00 0,00 0,00 0,00 1.717,00 26.183,18 3.726,87 4.833,95 0,00 0,00 8.560,82 17.622,36 30/04/2021
447 305400 CARLOS ROCHA DE SOUZA OFICIAL DO MP MONTALVÂNIA - COMARCA; MONTALVANIA-PJ-SECRETARIA 6.123,79 1.837,14 0,00 0,00 0,00 0,00 0,00 1.717,00 9.677,93 1.086,03 812,69 0,00 0,00 1.898,72 7.779,21 30/04/2021
448 365100 CARLOS WAGNER SANDER MORAIS COORDENADOR/OFICIAL BELO HORIZONTE - COMARCA; DIRETORIA DE ADMINISTRACAO FINANCEIRA 0,00 2.687,03 13.435,16 0,00 0,00 2.391,83 0,00 1.717,00 20.231,02 2.391,83 3.564,24 0,00 0,00 5.956,07 14.274,95 30/04/2021
449 399900 CARMELITA EVANGELISTA DE SOUZA OFICIAL DO MP JOÃO PINHEIRO - COMARCA; JOAO PINHEIRO-PJ-01PJ 7.912,85 1.582,57 0,00 0,00 0,00 0,00 0,00 1.717,00 11.212,42 1.331,54 1.375,71 0,00 0,00 2.707,25 8.505,17 30/04/2021
450 202000 CARMEN LUCIA MARIZ DE MACEDO OFICIAL DO MP BELO HORIZONTE - COMARCA; DIRETORIA GESTAO COMPRAS LICITACOES 14.790,66 10.353,47 0,00 0,00 0,00 0,00 0,00 1.717,00 26.861,13 3.835,34 4.886,28 0,00 0,00 8.721,62 18.139,51 30/04/2021
451 701900 CAROLINA CARVALHO COSTA ASSESSOR PROCURADOR JUSTICA BELO HORIZONTE - COMARCA; GABINETE DE PROCURADOR DE JUSTIÇA - SALA 811 0,00 0,00 7.187,72 0,00 0,00 0,00 0,00 1.717,00 8.904,72 751,99 1.229,92 0,00 0,00 1.981,91 6.922,81 30/04/2021
452 228500 CAROLINA CHIARELLA DOS SANTOS RIBEIRO COORDENADOR/OFICIAL BELO HORIZONTE - COMARCA; DIVISAO TRANSPORTES 0,00 3.545,75 11.819,15 0,00 0,00 0,00 0,00 1.717,00 17.081,90 1.567,08 2.820,77 0,00 0,00 4.387,85 12.694,05 30/04/2021
453 446500 CAROLINA COSTA VAL RODRIGUES ANALISTA DO MP CONTAGEM - COMARCA; CONTAGEM-PJ-05PJ 12.601,30 2.520,26 0,00 0,00 0,00 0,00 0,00 1.717,00 16.838,56 2.231,73 2.675,34 0,00 0,00 4.907,07 11.931,49 30/04/2021
454 603501 CAROLINA DOMINGOS BRANDAO RABELLO ANALISTA DO MP BARROSO - COMARCA; BARROSO-PJ-01PJ 9.146,93 914,69 0,00 0,00 0,00 0,00 0,00 1.717,00 11.778,62 1.422,14 1.506,50 0,00 0,00 2.928,64 8.849,98 30/04/2021
455 404300 CAROLINA DOS SANTOS VIEIRA ANALISTA DO MP BELO HORIZONTE - COMARCA; BH-08PJ JUIZADO ESPECIAL-SECRETARIA 14.324,23 2.864,85 0,00 0,00 0,00 0,00 0,00 1.717,00 18.906,08 2.562,53 3.048,67 0,00 0,00 5.611,20 13.294,88 30/04/2021
456 551200 CAROLINA LOPES ARANTES MASCARENHAS ANALISTA DO MP BELO HORIZONTE - COMARCA; COORD EST DEF DIR FAM PESSOAS DEFICI IDOSOS 9.146,93 914,69 0,00 0,00 0,00 0,00 0,00 2.486,39 12.548,01 1.422,14 1.402,22 0,00 0,00 2.824,36 9.723,65 30/04/2021
457 622600 CAROLINA LOREDO LOPES CATIZANI OFICIAL DO MP RIBEIRÃO DAS NEVES - COMARCA; RIBEIRAO DAS NEVES-PJ-12PJ 4.974,42 497,44 0,00 0,00 0,00 0,00 0,00 1.717,00 7.188,86 694,23 444,49 0,00 0,00 1.138,72 6.050,14 30/04/2021
458 382200 CAROLINA MENDES CHAVES LIN ANALISTA DO MP BELO HORIZONTE - COMARCA; BH-12PJ JUIZO CRIMINAL-GAB 088PJ 10.069,62 2.013,92 0,00 0,00 0,00 0,00 531,68 8.286,49 20.901,71 1.745,64 1.921,43 0,00 0,00 3.667,07 17.234,64 30/04/2021
459 461900 CAROLINA MURTA TEIXEIRA DIAS ANALISTA DO MP BELO HORIZONTE - COMARCA; PROCURADOR-GERAL DE JUSTIÇA 10.069,62 2.013,92 0,00 0,00 0,00 0,00 708,88 1.717,00 14.509,42 1.859,06 2.137,31 0,00 0,00 3.996,37 10.513,05 30/04/2021
460 509600 CAROLINA PINTO DE OLIVEIRA SOUZA ANALISTA DO MP MURIAÉ - COMARCA; MURIAE-PJ-01PJ 10.069,62 1.006,96 0,00 0,00 0,00 0,00 0,00 2.486,39 13.562,97 1.584,53 1.584,54 0,00 0,00 3.169,07 10.393,90 30/04/2021
461 629100 CAROLINA RODRIGUES AMARAL ANALISTA DO MP BELO HORIZONTE - COMARCA; PROC. JUSTICA DIR. DIFUSOS E COLETIVOS-SEC 8.436,53 843,65 0,00 0,00 0,00 0,00 0,00 1.717,00 10.997,18 1.297,11 1.325,98 0,00 0,00 2.623,09 8.374,09 30/04/2021
462 502600 CAROLINA RODRIGUES RUBEN ANALISTA DO MP BELO HORIZONTE - COMARCA; BH-18PJ VIOLENCIA DOMESTICA-SECRETARIA 10.069,62 1.006,96 0,00 0,00 3.692,19 0,00 0,00 3.255,78 18.024,55 1.584,53 2.652,03 0,00 0,00 4.236,56 13.787,99 30/04/2021
463 529600 CAROLINA VAZ DE MELO MAMBRINI ANALISTA DO MP BELO HORIZONTE - COMARCA; BH-14PJ DEFESA CONSUMIDOR-GAB 005PJ 9.146,93 914,69 0,00 0,00 3.353,87 0,00 0,00 1.717,00 15.132,49 1.422,14 2.428,81 0,00 0,00 3.850,95 11.281,54 30/04/2021
464 619100 CAROLINA ZAKHIA NARDELLI RODRIGUES ANALISTA DO MP NEPOMUCENO - COMARCA; NEPOMUCENO-PJ-UNPJ 8.436,53 843,65 0,00 0,00 0,00 0,00 0,00 2.486,39 11.766,57 1.297,11 1.325,98 0,00 0,00 2.623,09 9.143,48 30/04/2021
465 517600 CAROLINE ALVES DE OLIVEIRA MULLER ANALISTA DO MP VISCONDE DO RIO BRANCO - COMARCA; VISCONDE DO RIO BRANCO-PJ-01PJ 10.069,62 1.006,96 0,00 0,00 0,00 0,00 0,00 2.486,39 13.562,97 1.584,53 1.688,82 0,00 0,00 3.273,35 10.289,62 30/04/2021
466 373200 CAROLINE ANTUNES RIBEIRO OFICIAL DO MP JACUI - COMARCA; JACUI-PJ-UNPJ 8.858,43 1.771,69 0,00 0,00 0,00 0,00 0,00 1.717,00 12.347,12 1.513,10 1.481,41 0,00 0,00 2.994,51 9.352,61 30/04/2021
467 556800 CAROLINE DE SOUZA CARDOSO DOMINGUES OFICIAL DO MP BRASÍLIA DE MINAS - COMARCA; BRASILIA DE MINAS-PJ-02PJ 5.930,75 593,08 0,00 0,00 0,00 0,00 0,00 1.717,00 8.240,83 856,09 689,27 0,00 0,00 1.545,36 6.695,47 30/04/2021
468 499400 CAROLINE MARQUES DE LOURDES MARZULLO OFICIAL DO MP JUIZ DE FORA - COMARCA; JUIZ DE FORA-PJ-08PJ 7.663,37 766,34 0,00 0,00 0,00 0,00 0,00 2.870,54 11.300,25 1.161,03 1.129,53 0,00 0,00 2.290,56 9.009,69 30/04/2021
469 616800 CAROLINE MONTEIRO DE BARROS ANALISTA DO MP CONTAGEM - COMARCA; CONTAGEM-PJ-11PJ 8.436,53 843,65 0,00 0,00 0,00 0,00 0,00 1.717,00 10.997,18 1.297,11 1.325,98 0,00 0,00 2.623,09 8.374,09 30/04/2021
470 618100 CAROLINE VASCONCELOS COSTA LANZA ANALISTA DO MP PARAOPEBA - COMARCA; PARAOPEBA-PJ-UNPJ 8.436,53 843,65 0,00 0,00 0,00 0,00 0,00 4.025,17 13.305,35 1.297,11 1.325,98 0,00 0,00 2.623,09 10.682,26 30/04/2021
471 699000 CAROLLINA RODRIGUES SOUTO AMARAL ASSESSOR PROCURADOR JUSTICA BELO HORIZONTE - COMARCA; GABINETE DE PROCURADOR DE JUSTIÇA - SALA 405 0,00 0,00 7.187,72 0,00 0,00 0,00 0,00 1.717,00 8.904,72 751,99 1.229,92 0,00 0,00 1.981,91 6.922,81 30/04/2021
472 604000 CASSIA APARECIDA DA SILVA OFICIAL DO MP PARACATU - COMARCA; PARACATU-PJ-01PJ 5.930,75 593,08 0,00 0,00 0,00 0,00 0,00 1.717,00 8.240,83 856,09 689,27 0,00 0,00 1.545,36 6.695,47 30/04/2021
473 268800 CASSIA BEATRIZ TEIXEIRA OFICIAL DO MP BELO HORIZONTE - COMARCA; COMB CRIMES PRAT POR AG POL MUN-SECRETARIA 12.601,30 3.780,39 0,00 0,00 0,00 0,00 0,00 1.717,00 18.098,69 2.433,35 2.966,43 0,00 0,00 5.399,78 12.698,91 30/04/2021
474 500000 CASSIA DE OLIVEIRA COSTA VIANA ANALISTA DO MP SETE LAGOAS - COMARCA; SETE LAGOAS-PJ-09PJ 10.069,62 5.034,81 0,00 0,00 0,00 0,00 443,06 6.550,42 22.097,91 2.228,99 2.671,39 0,00 0,00 4.900,38 17.197,53 30/04/2021
475 368800 CASSIA LUISA BATISTA MENDONCA WEBER OFICIAL DO MP BELO HORIZONTE - COMARCA; DIVISÃO DE EDUCAÇÃO PARA O CONSUMO 7.663,37 1.532,67 0,00 0,00 0,00 0,00 0,00 1.717,00 10.913,04 1.283,64 1.306,55 0,00 0,00 2.590,19 8.322,85 30/04/2021
476 622200 CASSIA VAZ DE AZEVEDO LISBOA MARZANO ASSESSOR BELO HORIZONTE - COMARCA; CGMP-SECRETARIA DA CORREGEDORIA-GERAL DO MP 0,00 0,00 3.076,28 0,00 0,00 0,00 0,00 2.486,39 5.562,67 449,69 133,57 0,00 0,00 583,26 4.979,41 30/04/2021
477 121000 CASSIO HENRIQUE AFONSO DA SILVA OFICIAL DO MP BELO HORIZONTE - COMARCA; ASSESS TECNICA DA CORREGEDORIA-GERAL DO MP 18.820,14 13.174,10 0,00 0,00 0,00 0,00 469,25 6.836,08 39.299,57 4.931,36 6.468,66 0,00 0,00 11.400,02 27.899,55 30/04/2021
478 512001 CATARINA NATALINO CALIXTO COORDENADOR/ANALISTA BELO HORIZONTE - COMARCA; DIRETORIA GESTAO TRANSPORTES 0,00 1.343,52 13.435,16 0,00 0,00 0,00 0,00 1.717,00 16.495,68 1.297,11 2.838,07 0,00 0,00 4.135,18 12.360,50 30/04/2021
479 606200 CATARINE DE SIQUEIRA DE QUADROS ANALISTA DO MP RIBEIRÃO DAS NEVES - COMARCA; RIBEIRAO DAS NEVES-PJ-02PJ 9.146,93 914,69 0,00 0,00 3.353,87 0,00 0,00 1.717,00 15.132,49 1.422,14 2.324,54 0,00 0,00 3.746,68 11.385,81 30/04/2021
480 622300 CECILIA APARECIDA PEREIRA ASSUNCAO OFICIAL DO MP TRÊS PONTAS - COMARCA; TRES PONTAS-PJ-SECRETARIA 5.387,19 538,72 0,00 0,00 0,00 0,00 0,00 3.255,78 9.181,69 762,96 498,31 0,00 0,00 1.261,27 7.920,42 30/04/2021
481 538000 CECILIA FONTES DE MATOS PIMENTEL ANALISTA DO MP PALMA - COMARCA; PALMA-PJ-UNPJ 9.146,93 914,69 0,00 0,00 3.353,87 0,00 0,00 2.486,39 15.901,88 1.422,14 2.428,81 0,00 0,00 3.850,95 12.050,93 30/04/2021
482 261300 CECILIO ANTONIO CAMPOS DOS REIS ANALISTA DO MP BELO HORIZONTE - COMARCA; AUDITORIA INTERNA 18.103,37 5.431,01 0,00 0,00 0,00 0,00 517,76 7.365,25 31.417,39 3.577,78 4.618,71 0,00 0,00 8.196,49 23.220,90 30/04/2021
483 386400 CEFAS AMORELI DE FIGUEIREDO OFICIAL DO MP CABO VERDE - COMARCA; CABO VERDE-PJ-SECRETARIA 6.123,79 1.224,76 0,00 0,00 0,00 0,00 0,00 1.717,00 9.065,55 988,05 879,78 0,00 0,00 1.867,83 7.197,72 30/04/2021
484 149000 CELIA MAGALHAES CLAROS SOSSI OFICIAL DO MP GOVERNADOR VALADARES - COMARCA; GAECO REGIONAL DE GOVERNADOR VALADARES 16.750,82 11.725,57 0,00 0,00 0,00 4.368,50 522,07 7.412,28 40.779,24 4.368,50 6.961,65 0,00 0,00 11.330,15 29.449,09 30/04/2021
485 421000 CELINA BENEDITA DE SOUZA ALMEIDA OFICIAL DO MP CAMBUÍ - COMARCA; CAMBUI-PJ-01PJ 8.579,10 4.289,55 0,00 0,00 0,00 0,00 0,00 1.717,00 14.585,65 1.871,26 2.102,79 0,00 0,00 3.974,05 10.611,60 30/04/2021
486 252900 CELIO DE MELO CASTOR ANALISTA DO MP BELO HORIZONTE - COMARCA; BH-02PJ FAMILIA-SECRETARIA 18.103,37 5.431,01 0,00 0,00 0,00 0,00 0,00 1.717,00 25.251,38 3.577,78 4.618,71 0,00 0,00 8.196,49 17.054,89 30/04/2021
487 395700 CELIO FERREIRA LIMA OFICIAL DO MP CONTAGEM - COMARCA; CONTAGEM-PJ-SECRETARIA 8.579,10 1.715,82 0,00 0,00 0,00 0,00 0,00 2.486,39 12.781,31 1.459,46 1.508,25 0,00 0,00 2.967,71 9.813,60 30/04/2021
488 281300 CELMA REGINA PEREIRA SANTOS ANALISTA DO MP BELO HORIZONTE - COMARCA; PROMOT ESTADUAL DE DEF PATRI CULT E TUR DE MG 18.820,14 5.646,04 0,00 0,00 0,00 0,00 0,00 1.717,00 26.183,18 3.726,87 4.833,95 0,00 0,00 8.560,82 17.622,36 30/04/2021
489 535600 CELSO MEDEIROS DE PAIVA OFICIAL DO MP RIO PRETO - COMARCA; RIO PRETO-PJ-SECRETARIA 5.387,19 538,72 0,00 0,00 0,00 0,00 0,00 1.717,00 7.642,91 762,96 498,31 0,00 0,00 1.261,27 6.381,64 30/04/2021
490 367000 CESAR NARVAES DE AVELAR COORDENADOR/OFICIAL BELO HORIZONTE - COMARCA; DIVISAO DE MEMORIA INSTITUCIONAL 0,00 2.363,83 11.819,15 0,00 0,00 0,00 0,00 1.717,00 15.899,98 1.568,49 2.599,62 0,00 0,00 4.168,11 11.731,87 30/04/2021
491 226500 CESAR SILVEIRA BARROUIN OFICIAL DO MP BELO HORIZONTE - COMARCA; DIRETORIA DE ADMINISTRACAO FINANCEIRA 12.601,30 5.040,52 0,00 0,00 0,00 0,00 64,69 2.422,67 20.129,18 2.634,97 3.257,52 0,00 0,00 5.892,49 14.236,69 30/04/2021
492 121400 CEZAR MORENO CONCEICAO TAVARES OFICIAL DO MP BELO HORIZONTE - COMARCA; COORD DE INCLUSAO E MOBILIZACAO SOCIAIS 16.750,82 11.725,57 0,00 0,00 0,00 0,00 522,07 8.181,67 37.180,13 4.368,50 5.656,04 0,00 0,00 10.024,54 27.155,59 30/04/2021
493 243800 CHARLES MARTINS MUNIZ OFICIAL DO MP BELO HORIZONTE - COMARCA; LAB TECNOLOGIA CONTRA LAVAGEM DINHEIRO 12.601,30 5.040,52 0,00 0,00 0,00 0,00 64,69 1.903,67 19.610,18 2.634,97 3.257,52 0,00 0,00 5.892,49 13.717,69 30/04/2021
494 193500 CHARLIN CESAR KOURLY OFICIAL DO MP ARAGUARI - COMARCA; ARAGUARI-PJ-07PJ 15.272,02 6.108,81 0,00 0,00 0,00 0,00 313,59 5.137,93 26.832,35 3.233,21 4.121,24 0,00 0,00 7.354,45 19.477,90 30/04/2021
495 385500 CHILLEN PEIXOTO DE MOURA OFICIAL DO MP BELO HORIZONTE - COMARCA; DIVISÃO DE FISCALIZAÇÃO DAS RELAÇÕES DE CONSU 8.579,10 1.715,82 0,00 0,00 0,00 0,00 0,00 1.717,00 12.011,92 1.459,46 1.560,39 0,00 0,00 3.019,85 8.992,07 30/04/2021
496 534500 CHRISTIAN DOUGLAS BRITO RUAS OFICIAL DO MP SÃO JOÃO DA PONTE - COMARCA; SAO JOAO DA PONTE-PJ-SECRETARIA 5.930,75 593,08 0,00 0,00 0,00 0,00 0,00 1.717,00 8.240,83 856,09 689,27 0,00 0,00 1.545,36 6.695,47 30/04/2021
497 370600 CHRISTIAN KARINE FELIX PRATES ASSESSOR BELO HORIZONTE - COMARCA; SUPRIN DE PLANEJAMENTO E COORDENACAO 0,00 0,00 10.397,52 0,00 0,00 0,00 419,37 6.291,91 17.108,80 751,99 2.112,61 0,00 0,00 2.864,60 14.244,20 30/04/2021
498 435800 CHRISTIANA BAHIA ANDRADE PINA ANALISTA DO MP BELO HORIZONTE - COMARCA; LABORATORIO TECNOLOGIA INTELIGENCIA 13.011,52 2.602,30 0,00 0,00 0,00 0,00 0,00 2.486,39 18.100,21 2.310,49 2.789,06 0,00 0,00 5.099,55 13.000,66 30/04/2021
499 516800 CHRISTIANE FERREIRA DO NASCIMENTO ANALISTA DO MP POUSO ALEGRE - COMARCA; POUSO ALEGRE-PJ-08PJ 10.069,62 1.006,96 0,00 0,00 0,00 0,00 0,00 1.717,00 12.793,58 1.584,53 1.740,95 0,00 0,00 3.325,48 9.468,10 30/04/2021
500 176000 CHRISTIANE JUNQUEIRA PULITI ANDRADE DE BARROS ASSESSOR BELO HORIZONTE - COMARCA; PROCURADORIA-GERAL ADJUNTA INSTITUCIONAL 0,00 9.157,17 11.446,46 0,00 0,00 3.108,86 302,19 5.013,58 29.028,26 3.108,86 4.796,64 0,00 0,00 7.905,50 21.122,76 30/04/2021
501 319200 CHRISTIANE MARIA DE ASSIS RUSSO OFICIAL DO MP BELO HORIZONTE - COMARCA; CAO-ORDEM ECONOMICA E TRIBUTARIA-SECRETARIA 11.085,56 3.325,67 0,00 0,00 0,00 0,00 0,00 1.717,00 16.128,23 2.118,07 2.459,12 0,00 0,00 4.577,19 11.551,04 30/04/2021
502 510300 CHRISTIANE MARY DE CARVALHO FERREIRA ANALISTA DO MP BELO HORIZONTE - COMARCA; DIRETORIA DE SISTEMAS DE INFORMACAO 10.069,62 1.006,96 0,00 0,00 0,00 0,00 0,00 1.717,00 12.793,58 1.584,53 1.688,82 0,00 0,00 3.273,35 9.520,23 30/04/2021
503 424900 CHRISTIANE PEREIRA TURNER DE ARAUJO OFICIAL DO MP BELO HORIZONTE - COMARCA; CAO-PATRIMONIO PUBLICO 8.579,10 1.715,82 0,00 0,00 0,00 0,00 0,00 2.486,39 12.781,31 1.459,46 1.456,12 0,00 0,00 2.915,58 9.865,73 30/04/2021
504 513700 CHRISTIANE VIEIRA SOARES PEDERSOLI ASSESSOR/ANALISTA BELO HORIZONTE - COMARCA; ASSESSORIA JURIDICA DO PROCON-MG 0,00 1.144,65 11.446,46 0,00 0,00 0,00 0,00 1.717,00 14.308,11 1.584,53 2.157,45 0,00 0,00 3.741,98 10.566,13 30/04/2021
505 412300 CHRYSTIAN MACHADO RIBEIRO ANALISTA DO MP VARGINHA - COMARCA; VARGINHA-PJ-04PJ 13.011,52 2.602,30 0,00 0,00 0,00 0,00 400,75 6.088,87 22.103,44 2.310,49 2.789,06 0,00 0,00 5.099,55 17.003,89 30/04/2021
506 513800 CHRYSTIANE DO NASCIMENTO DE MAGALHAES OFICIAL DO MP UBERLÂNDIA - COMARCA; UBERLANDIA-PJ-10PJ 7.421,79 742,18 0,00 0,00 0,00 0,00 0,00 1.717,00 9.880,97 1.118,51 963,87 0,00 0,00 2.082,38 7.798,59 30/04/2021
507 497900 CIBELE DE FREITAS SANCHES DIAS ANALISTA DO MP SABARÁ - COMARCA; SABARA-PJ-03PJ 10.069,62 1.006,96 0,00 0,00 0,00 0,00 0,00 1.717,00 12.793,58 1.584,53 1.688,82 0,00 0,00 3.273,35 9.520,23 30/04/2021
508 500900 CIBELLE SILVA PRADO ALVARENGA ANALISTA DO MP ITANHANDU - COMARCA; ITANHANDU-PJ-UNPJ 10.069,62 1.006,96 0,00 0,00 0,00 0,00 0,00 3.255,78 14.332,36 1.584,53 1.740,95 0,00 0,00 3.325,48 11.006,88 30/04/2021
509 296400 CINTIA APARECIDA MOREIRA NAVES E RODRIGUES ANALISTA DO MP CAMPO BELO - COMARCA; CAMPO BELO-PJ-02PJ 17.413,92 5.224,18 0,00 0,00 0,00 0,00 498,04 7.150,14 30.286,28 3.434,37 4.411,67 0,00 0,00 7.846,04 22.440,24 30/04/2021
510 407900 CINTIA NETO COMELLI ANALISTA DO MP BELO HORIZONTE - COMARCA; CENTRAL DE APOIO TECNICO-SETOR CONTABIL 13.011,52 2.602,30 0,00 0,00 0,00 0,00 0,00 2.486,39 18.100,21 2.310,49 2.736,92 0,00 0,00 5.047,41 13.052,80 30/04/2021
511 304700 CINTIA QUEIROZ OFICIAL DO MP BELO HORIZONTE - COMARCA; OUVIDORIA DO MPMG 10.069,62 3.020,89 0,00 0,00 0,00 0,00 527,98 7.476,82 21.095,31 1.906,76 2.206,17 0,00 0,00 4.112,93 16.982,38 30/04/2021
512 286100 CIRO CANGUSSU CORDEIRO OFICIAL DO MP IPATINGA - COMARCA; IPATINGA-PJ-09PJ 7.663,37 2.299,01 0,00 0,00 0,00 0,00 0,00 1.717,00 11.679,38 1.406,26 1.379,30 0,00 0,00 2.785,56 8.893,82 30/04/2021
513 689900 CISSA NOGUEIRA NUNES ASSESSOR PROCURADOR JUSTICA BELO HORIZONTE - COMARCA; GABINETE DE PROCURADOR DE JUSTIÇA - SALA 608 0,00 0,00 7.187,72 0,00 0,00 0,00 0,00 1.717,00 8.904,72 751,99 1.229,92 0,00 0,00 1.981,91 6.922,81 30/04/2021
514 681700 CLARA FERREIRA ALKIMIM ASSESSOR PROMOTOR JUSTICA ARAÇUAÍ - COMARCA; ARACUAI-PJ-01PJ 0,00 0,00 7.187,72 0,00 0,00 0,00 0,00 1.717,00 8.904,72 751,99 1.229,92 0,00 0,00 1.981,91 6.922,81 30/04/2021
515 695500 CLARA RODRIGUES BLACH ASSESSOR PROCURADOR JUSTICA BELO HORIZONTE - COMARCA; GABINETE DE PROCURADOR DE JUSTIÇA - SALA 1003 0,00 0,00 7.187,72 0,00 0,00 0,00 0,00 1.717,00 8.904,72 751,99 1.229,92 0,00 0,00 1.981,91 6.922,81 30/04/2021
516 412500 CLARICE GOMES MAROTTA ANALISTA DO MP BELO HORIZONTE - COMARCA; COORD ESTADUAL DE DEFESA DOS ANIMAIS 13.011,52 3.903,46 0,00 0,00 0,00 0,00 62,02 2.393,60 19.370,60 2.518,67 3.089,63 0,00 0,00 5.608,30 13.762,30 30/04/2021
517 605300 CLARISSA AZEVEDO ROCHA OFICIAL DO MP BELO HORIZONTE - COMARCA; DIRET DE DESENV DE RECURSOS HUMANOS-DDRH 5.930,75 593,08 0,00 0,00 0,00 0,00 0,00 1.717,00 8.240,83 856,09 689,27 0,00 0,00 1.545,36 6.695,47 30/04/2021
518 308100 CLARISSA DUARTE BELLONI DIRETOR/ANALISTA BELO HORIZONTE - COMARCA; DIRETORIA-GERAL 0,00 7.409,35 24.697,83 0,00 0,00 0,00 470,91 9.161,23 41.739,32 3.434,37 6.963,53 0,00 0,00 10.397,90 31.341,42 30/04/2021
519 497100 CLARISSA ROCHA GUIDI ANALISTA DO MP BELO HORIZONTE - COMARCA; BH-02PJ FAMILIA-SECRETARIA 10.736,08 1.073,61 0,00 0,00 0,00 0,00 0,00 3.255,78 15.065,47 1.701,83 1.858,16 0,00 0,00 3.559,99 11.505,48 30/04/2021
520 641800 CLARISSE TAVARES GONCALVES OFICIAL DO MP BELO HORIZONTE - COMARCA; BH-07PJ 01 TRIBUNAL JURI-SECRETARIA 5.217,34 521,73 0,00 0,00 0,00 0,00 0,00 1.717,00 7.456,07 734,00 507,03 0,00 0,00 1.241,03 6.215,04 30/04/2021
521 463700 CLAUDIA ADRIANA FERRAO DIAS ANALISTA DO MP SETE LAGOAS - COMARCA; SETE LAGOAS-PJ-06PJ 10.069,62 2.013,92 0,00 0,00 0,00 0,00 0,00 1.717,00 13.800,54 1.745,64 1.973,56 0,00 0,00 3.719,20 10.081,34 30/04/2021
522 415400 CLAUDIA ALMEIDA DE VASCONCELLOS BARROS ASSESSOR/OFICIAL BELO HORIZONTE - COMARCA; DIVISAO DE SERVICOS 0,00 2.079,50 10.397,52 0,00 0,00 0,00 0,00 1.717,00 14.194,02 1.808,60 2.064,46 0,00 0,00 3.873,06 10.320,96 30/04/2021
523 207000 CLAUDIA APARECIDA VILELA MACHADO ANALISTA DO MP BELO HORIZONTE - COMARCA; CENTRAL DE APOIO TECNICO-SETOR CONTABIL 18.820,14 7.528,06 0,00 0,00 0,00 0,00 483,05 6.986,64 33.817,89 4.027,99 5.112,29 0,00 0,00 9.140,28 24.677,61 30/04/2021
524 365700 CLAUDIA BREGUEZ CUNHA ANALISTA DO MP VARGINHA - COMARCA; VARGINHA-PJ-07PJ 14.790,66 2.958,13 0,00 0,00 0,00 0,00 65,08 2.426,95 20.240,82 2.652,08 3.282,24 0,00 0,00 5.934,32 14.306,50 30/04/2021
525 430500 CLAUDIA CECILIA SANTANA VENCESLAU OFICIAL DO MP BELO HORIZONTE - COMARCA; DIR ANALISES TECNOLOGIA INTELIGENCIA 8.579,10 1.715,82 0,00 0,00 0,00 0,00 37,75 2.128,80 12.461,47 1.459,46 1.508,25 0,00 0,00 2.967,71 9.493,76 30/04/2021
526 112400 CLAUDIA CRISTINA FIUZA DE AVELAR AGENTE DO MP BELO HORIZONTE - COMARCA; SERVICO MEDICO-DEPTO PERIC MEDICA SAUDE OCUP 10.069,62 7.048,73 0,00 0,00 0,00 2.551,21 0,00 1.717,00 21.386,56 2.551,21 3.838,19 0,00 0,00 6.389,40 14.997,16 30/04/2021
527 480400 CLAUDIA GOULART DE SOUZA OFICIAL DO MP PASSOS - COMARCA; PASSOS-PJ-06PJ 7.663,37 1.532,67 0,00 0,00 0,00 0,00 0,00 1.717,00 10.913,04 1.283,64 1.306,55 0,00 0,00 2.590,19 8.322,85 30/04/2021
528 519800 CLAUDIA HELENA CORREA DE ALMEIDA ANALISTA DO MP BELO HORIZONTE - COMARCA; BH-12PJ JUIZO CRIMINAL-GAB 096PJ 10.069,62 1.006,96 0,00 0,00 0,00 0,00 0,00 1.717,00 12.793,58 1.584,53 1.740,95 0,00 0,00 3.325,48 9.468,10 30/04/2021
529 422100 CLAUDIA IACOMINI CABRAL ANALISTA DO MP BELO HORIZONTE - COMARCA; CENT DE APOIO TEC-SETOR DEF,IDOSO E INFANC 13.011,52 9.108,06 0,00 0,00 0,00 0,00 486,63 7.025,70 29.631,91 3.351,41 4.291,89 0,00 0,00 7.643,30 21.988,61 30/04/2021
530 258200 CLAUDIA LAGE MICHALAROS ANALISTA DO MP BELO HORIZONTE - COMARCA; CENTRAL DE APOIO TECN-SETOR DE MEIO AMBIENTE 18.103,37 12.672,36 0,00 0,00 0,00 4.736,39 0,00 1.717,00 37.229,12 4.736,39 7.541,83 0,00 0,00 12.278,22 24.950,90 30/04/2021
531 284600 CLAUDIA LENI DE FREITAS OFICIAL DO MP CONTAGEM - COMARCA; CONTAGEM-PJ-SECRETARIA 6.123,79 2.449,52 0,00 0,00 0,00 0,00 0,00 1.717,00 10.290,31 1.184,01 1.162,70 0,00 0,00 2.346,71 7.943,60 30/04/2021
532 433600 CLAUDIA LUIZA SANTIAGO FELICIO ANALISTA DO MP BELO HORIZONTE - COMARCA; CENT DE APOIO TEC-SETOR DEF,IDOSO E INFANC 13.011,52 2.602,30 0,00 0,00 0,00 0,00 0,00 1.717,00 17.330,82 2.310,49 2.684,78 0,00 0,00 4.995,27 12.335,55 30/04/2021
533 317000 CLAUDIA MACHADO ALVES ASSESSOR/OFICIAL BELO HORIZONTE - COMARCA; DIR GOVERNANCA TECNOLOGIA INFORMACAO 0,00 3.119,26 10.397,52 0,00 0,00 0,00 0,00 1.717,00 15.233,78 1.596,73 2.408,65 0,00 0,00 4.005,38 11.228,40 30/04/2021
534 155300 CLAUDIA MACIEL MIRANDA OFICIAL DO MP CONGONHAS - COMARCA; CONGONHAS-PJ-02PJ 16.750,82 8.375,41 0,00 0,00 0,00 0,00 0,00 1.717,00 26.843,23 3.832,47 4.882,15 0,00 0,00 8.714,62 18.128,61 30/04/2021
535 242200 CLAUDIA MICHELLE DIAS MUNIZ BALEEIRO OFICIAL DO MP MONTE AZUL - COMARCA; MONTE AZUL-PJ-SECRETARIA 12.601,30 5.040,52 0,00 0,00 0,00 0,00 64,69 2.422,67 20.129,18 2.634,97 3.205,39 0,00 0,00 5.840,36 14.288,82 30/04/2021
536 623000 CLAUDIA PATRICIA SILVA RODRIGUES RAPOSEIRAS OFICIAL DO MP PARÁ DE MINAS - COMARCA; PARA DE MINAS-PJ-02PJ 5.387,19 538,72 0,00 0,00 0,00 0,00 0,00 2.486,39 8.412,30 762,96 498,31 0,00 0,00 1.261,27 7.151,03 30/04/2021
537 418400 CLAUDIA REGINA MARTINS BONIFACIO OFICIAL DO MP ITUIUTABA - COMARCA; ITUIUTABA-PJ-06PJ 8.579,10 1.715,82 0,00 0,00 0,00 0,00 0,00 1.717,00 12.011,92 1.459,46 1.456,12 0,00 0,00 2.915,58 9.096,34 30/04/2021
538 498300 CLAUDIA SOUTO FARIAS BRAUN OFICIAL DO MP TEÓFILO OTONI - COMARCA; TEOFILO OTONI-PJ-SECRETARIA 6.123,79 612,38 0,00 0,00 0,00 0,00 0,00 1.717,00 8.453,17 890,06 634,05 0,00 0,00 1.524,11 6.929,06 30/04/2021
539 206500 CLAUDIA VALERIA FONSECA ANDRADE ANALISTA DO MP BELO HORIZONTE - COMARCA; BH-23PJ INF-FISC MED SOC FEC 18.820,14 9.410,07 0,00 0,00 0,00 4.329,11 517,55 7.363,04 40.439,91 4.329,11 6.893,95 0,00 0,00 11.223,06 29.216,85 30/04/2021
540 277500 CLAUDIO ANTONIO BORGES BRUNSWICK ALVARES OFICIAL DO MP BELO HORIZONTE - COMARCA; BH-15PJ M AMB 16PJ HAB URB-SECRETARIA 10.069,62 3.020,89 0,00 0,00 0,00 0,00 0,00 1.717,00 14.807,51 1.906,76 2.206,17 0,00 0,00 4.112,93 10.694,58 30/04/2021
541 444800 CLAUDIO ARESIO DO CARMO ANALISTA DO MP SETE LAGOAS - COMARCA; SETE LAGOAS-PJ-01PJ 10.069,62 4.027,85 0,00 0,00 0,00 0,00 0,00 1.717,00 15.814,47 2.067,87 2.386,64 0,00 0,00 4.454,51 11.359,96 30/04/2021
542 545100 CLAUDIO HENRIQUE MACEDO DE SOUZA FRANSOZO ANALISTA DO MP OURO PRETO - COMARCA; OURO PRETO-PJ-03PJ 9.146,93 914,69 0,00 0,00 0,00 0,00 0,00 2.486,39 12.548,01 1.422,14 1.506,50 0,00 0,00 2.928,64 9.619,37 30/04/2021
543 353500 CLAUDIO HENRIQUE PEDRO DA ROCHA OFICIAL DO MP BELO HORIZONTE - COMARCA; DIVISAO TRANSPORTES 9.752,14 1.950,43 0,00 0,00 0,00 0,00 0,00 1.717,00 13.419,57 1.684,69 1.781,28 0,00 0,00 3.465,97 9.953,60 30/04/2021
544 265800 CLAUDIO KUPIDLOWSKY FERNANDES OFICIAL DO MP BELO HORIZONTE - COMARCA; SECRETARIA DO PROCON-MG 10.069,62 3.020,89 0,00 0,00 0,00 0,00 0,00 1.717,00 14.807,51 1.906,76 1.409,08 0,00 0,00 3.315,84 11.491,67 30/04/2021
545 193600 CLAUDIO LEITE FONTES OFICIAL DO MP ITUIUTABA - COMARCA; ITUIUTABA-PJ-02PJ 9.146,93 3.658,77 0,00 0,00 0,00 0,00 0,00 1.717,00 14.522,70 1.861,19 1.837,88 0,00 0,00 3.699,07 10.823,63 30/04/2021
546 329400 CLAUDIO MARCIO BERNARDES OFICIAL DO MP ITAÚNA - COMARCA; ITAUNA-PJ-03PJ 10.069,62 7.048,73 0,00 0,00 0,00 0,00 0,00 2.486,39 19.604,74 2.551,21 3.084,47 0,00 0,00 5.635,68 13.969,06 30/04/2021
547 270200 CLAUDIO RABELO ALVES OFICIAL DO MP FORMIGA - COMARCA; FORMIGA-PJ-03PJ 10.736,08 3.220,82 0,00 0,00 0,00 0,00 0,00 1.717,00 15.673,90 2.045,38 2.249,90 0,00 0,00 4.295,28 11.378,62 30/04/2021
548 264700 CLAUDIO ROBERTO KFURI DE ARAUJO ANALISTA DO MP BELO HORIZONTE - COMARCA; CENTRAL DE APOIO TECNICO-SETOR DE INFORMATICA 18.103,37 5.431,01 0,00 0,00 0,00 0,00 0,00 1.717,00 25.251,38 3.577,78 4.514,43 0,00 0,00 8.092,21 17.159,17 30/04/2021
549 188600 CLAUDIO SALES OFICIAL DO MP NEPOMUCENO - COMARCA; NEPOMUCENO-PJ-SECRETARIA 14.790,66 11.832,53 0,00 0,00 0,00 0,00 0,00 1.717,00 28.340,19 4.071,99 5.332,22 0,00 0,00 9.404,21 18.935,98 30/04/2021
550 543300 CLAUDIO SILVA DE CARVALHO ANALISTA DO MP CAMPO BELO - COMARCA; CAMPO BELO-PJ-03PJ 8.436,53 843,65 0,00 0,00 0,00 0,00 0,00 1.717,00 10.997,18 1.297,11 1.273,85 0,00 0,00 2.570,96 8.426,22 30/04/2021
551 160700 CLAUDIO VICENTE HESS ASSESSOR BELO HORIZONTE - COMARCA; CENTRAL DE APOIO TECNICO-SETOR DE INFORMATICA 0,00 6.717,58 13.435,16 0,00 0,00 0,00 295,57 4.941,44 25.389,75 751,99 4.691,02 0,00 0,00 5.443,01 19.946,74 30/04/2021
552 312900 CLAUDIO VIEIRA FIRPE OFICIAL DO MP BELO HORIZONTE - COMARCA; CENTRO CERIMONIAL 10.069,62 3.020,89 0,00 0,00 0,00 0,00 0,00 1.717,00 14.807,51 1.906,76 2.206,17 0,00 0,00 4.112,93 10.694,58 30/04/2021
553 634100 CLEA CRISTINA GUERRA DE FREITAS COSTA OFICIAL DO MP BELO HORIZONTE - COMARCA; BH-18PJ VIOLENCIA DOMESTICA-SECRETARIA 5.217,34 521,73 0,00 0,00 0,00 0,00 0,00 1.717,00 7.456,07 734,31 454,81 0,00 0,00 1.189,12 6.266,95 30/04/2021
554 459200 CLEIA ZILLE PEREIRA ANALISTA DO MP BELO HORIZONTE - COMARCA; BH-07PJ 01 TRIBUNAL JURI-SECRETARIA 10.069,62 2.013,92 0,00 0,00 0,00 0,00 0,00 1.717,00 13.800,54 1.745,64 1.973,56 0,00 0,00 3.719,20 10.081,34 30/04/2021
555 481800 CLEIDE CARDOSO DA SILVA ANALISTA DO MP MANHUAÇU - COMARCA; MANHUACU-PJ-04PJ 10.069,62 2.013,92 0,00 0,00 0,00 0,00 0,00 1.717,00 13.800,54 1.745,64 1.869,29 0,00 0,00 3.614,93 10.185,61 30/04/2021
556 347600 CLEIDIMAR DE OLIVEIRA SILVA OFICIAL DO MP PATOS DE MINAS - COMARCA; PATOS DE MINAS-PJ-03PJ 9.444,70 2.833,41 0,00 0,00 0,00 0,00 0,00 1.717,00 13.995,11 1.776,77 1.809,96 0,00 0,00 3.586,73 10.408,38 30/04/2021
557 396500 CLEIDISON BATISTA DE ANDRADE OFICIAL DO MP RESPLENDOR - COMARCA; RESPLENDOR-PJ-UNPJ 8.170,49 1.634,10 0,00 0,00 0,00 0,00 0,00 2.486,39 12.290,98 1.381,01 1.342,85 0,00 0,00 2.723,86 9.567,12 30/04/2021
558 535100 CLEISON ALVES DA SILVA ANALISTA DO MP BOA ESPERANÇA - COMARCA; BOA ESPERANCA-PJ-01PJ 9.146,93 914,69 0,00 0,00 0,00 0,00 0,00 1.717,00 11.778,62 1.422,14 1.402,22 0,00 0,00 2.824,36 8.954,26 30/04/2021
559 298100 CLEONICE AUGUSTA BARROS DE OLIVEIRA ANALISTA DO MP JUIZ DE FORA - COMARCA; JUIZ DE FORA-PJ-08PJ 18.820,14 5.646,04 0,00 0,00 0,00 0,00 0,00 1.717,00 26.183,18 3.726,87 4.833,95 0,00 0,00 8.560,82 17.622,36 30/04/2021
560 264100 CLETO HENRIQUE ANDRADE SILVA ANALISTA DO MP BELO HORIZONTE - COMARCA; DIRETORIA DE SISTEMAS DE INFORMACAO 18.103,37 5.431,01 0,00 0,00 0,00 0,00 517,76 7.365,25 31.417,39 3.577,78 4.514,43 0,00 0,00 8.092,21 23.325,18 30/04/2021
561 334400 CLEUBA DE OLIVEIRA BARCELOS GONCALVES OFICIAL DO MP DIVINÓPOLIS - COMARCA; COORD REG SAUDE MACRORREGIAO SANITARIA OESTE 10.069,62 3.020,89 0,00 0,00 0,00 0,00 0,00 1.717,00 14.807,51 1.906,76 2.101,90 0,00 0,00 4.008,66 10.798,85 30/04/2021
562 347500 CLEUSA CORDEIRO DA MATA PIMENTA OFICIAL DO MP CAMPO BELO - COMARCA; CAMPO BELO-PJ-02PJ 10.069,62 8.055,69 0,00 0,00 0,00 2.712,33 66,46 2.442,01 23.346,11 2.712,33 4.010,83 0,00 0,00 6.723,16 16.622,95 30/04/2021
563 510200 CLEZIO SALES SILVA OFICIAL DO MP BRASÓPOLIS - COMARCA; BRASOPOLIS-PJ-UNPJ 6.123,79 612,38 0,00 0,00 0,00 0,00 0,00 3.682,40 10.418,57 890,06 738,32 0,00 0,00 1.628,38 8.790,19 30/04/2021
564 323000 CLOTILDE DE PADUA VIEIRA OFICIAL DO MP BELO HORIZONTE - COMARCA; BH-19PJ SAUDE-SECRETARIA 129PJ 7.421,79 2.226,54 0,00 0,00 0,00 0,00 0,00 1.717,00 11.365,33 1.356,01 1.411,03 0,00 0,00 2.767,04 8.598,29 30/04/2021
565 285200 CLOVIS ANDRE LUDTKE OFICIAL DO MP BELO HORIZONTE - COMARCA; DIVISAO DE MANUTENCAO PREDIAL 10.069,62 3.020,89 0,00 0,00 0,00 0,00 0,00 1.717,00 14.807,51 1.906,76 2.206,17 0,00 0,00 4.112,93 10.694,58 30/04/2021
566 381100 CONCEICAO APARECIDA TEIXEIRA ARANTES ANALISTA DO MP BELO HORIZONTE - COMARCA; BH-23PJ INFRACIONAL-ASS JURIDICA 13.872,60 2.774,52 0,00 0,00 0,00 0,00 0,00 2.486,39 19.133,51 2.475,82 2.975,61 0,00 0,00 5.451,43 13.682,08 30/04/2021
567 249900 CONSTANTINO CEZAR GOMES MOTA OFICIAL DO MP MONTES CLAROS - COMARCA; COORD REG BACIA RIOS VERDE GRANDE E PARDO 9.444,70 2.833,41 0,00 0,00 0,00 0,00 0,00 1.717,00 13.995,11 1.776,77 1.914,23 0,00 0,00 3.691,00 10.304,11 30/04/2021
568 481000 CRISHMA ANALIA LOMBELLO ANALISTA DO MP JUIZ DE FORA - COMARCA; JUIZ DE FORA-PJ-13PJ 10.069,62 2.013,92 0,00 0,00 0,00 0,00 531,68 7.517,10 20.132,32 1.745,64 1.921,43 0,00 0,00 3.667,07 16.465,25 30/04/2021
569 523900 CRISTHYANE BAZOLI COSTA GUEDES COUTO OFICIAL DO MP BELO HORIZONTE - COMARCA; BH-04PJ JUIZO REG PÚBLICOS-SECRETARIA 7.421,79 742,18 0,00 0,00 0,00 0,00 0,00 1.717,00 9.880,97 1.118,51 1.068,14 0,00 0,00 2.186,65 7.694,32 30/04/2021
570 187000 CRISTIAN DAYVSON EVANGELISTA OFICIAL DO MP JUIZ DE FORA - COMARCA; JUIZ DE FORA-PJ-13PJ 14.790,66 5.916,26 0,00 0,00 0,00 0,00 303,70 5.030,11 26.040,73 3.125,38 3.913,43 0,00 0,00 7.038,81 19.001,92 30/04/2021
571 682100 CRISTIAN TRISTAO DE ANDRADE ASSESSOR PROMOTOR JUSTICA TRÊS CORACOES - COMARCA; TRES CORACOES-PJ-04PJ 0,00 0,00 7.187,72 0,00 0,00 0,00 0,00 1.717,00 8.904,72 751,99 1.229,92 0,00 0,00 1.981,91 6.922,81 30/04/2021
572 319800 CRISTIANA GONCALVES DOS SANTOS GUSMAO OFICIAL DO MP PARAOPEBA - COMARCA; PARAOPEBA-PJ-UNPJ 10.069,62 3.020,89 0,00 0,00 0,00 0,00 144,00 3.287,86 16.522,37 1.906,76 2.206,17 0,00 0,00 4.112,93 12.409,44 30/04/2021
573 520600 CRISTIANA JANAINA BARBOZA JUVENCIO DOS SANTOS ANALISTA DO MP BELO HORIZONTE - COMARCA; BH-02PJ FAMILIA-SECRETARIA 10.069,62 1.006,96 0,00 0,00 0,00 0,00 0,00 1.717,00 12.793,58 1.584,53 1.740,95 0,00 0,00 3.325,48 9.468,10 30/04/2021
574 195600 CRISTIANA SOARES HALABI OFICIAL DO MP UBERABA - COMARCA; UBERABA-PJ-01PJ 15.499,20 6.199,68 0,00 0,00 0,00 0,00 477,38 6.924,73 29.100,99 3.284,10 4.194,70 0,00 0,00 7.478,80 21.622,19 30/04/2021
575 218900 CRISTIANE ALVES BELLES OFICIAL DO MP JUIZ DE FORA - COMARCA; JUIZ DE FORA-PJ-10PJ 6.123,79 1.837,14 0,00 0,00 0,00 0,00 0,00 2.870,54 10.831,47 1.086,03 916,96 0,00 0,00 2.002,99 8.828,48 30/04/2021
576 263600 CRISTIANE CARVALHO COUTINHO OFICIAL DO MP BELO HORIZONTE - COMARCA; BH-23PJ INFRACIONAL-SEC EXP 10.069,62 3.020,89 0,00 0,00 0,00 0,00 0,00 1.717,00 14.807,51 1.906,76 2.154,03 0,00 0,00 4.060,79 10.746,72 30/04/2021
577 541000 CRISTIANE COELHO ALVES OFICIAL DO MP ITABIRA - COMARCA; ITABIRA-PJ-03PJ 5.387,19 538,72 0,00 0,00 0,00 0,00 0,00 1.717,00 7.642,91 762,96 498,31 0,00 0,00 1.261,27 6.381,64 30/04/2021
578 441700 CRISTIANE CORRADO DE ANDRADE ANALISTA DO MP BELO HORIZONTE - COMARCA; DIRETORIA DE SISTEMAS DE INFORMACAO 13.011,52 2.602,30 0,00 0,00 0,00 0,00 0,00 1.717,00 17.330,82 2.310,49 2.789,06 0,00 0,00 5.099,55 12.231,27 30/04/2021
579 375100 CRISTIANE DAS DORES ERCIO DE LIMA OFICIAL DO MP GOVERNADOR VALADARES - COMARCA; COOR REG INCLUSAO MOBILIZ VALE DO RIO DOCE 8.436,53 1.687,31 0,00 0,00 3.374,61 0,00 0,00 1.717,00 15.215,45 1.432,09 2.448,89 0,00 0,00 3.880,98 11.334,47 30/04/2021
580 178800 CRISTIANE DE LIMA HOSKEN OFICIAL DO MP BELO HORIZONTE - COMARCA; BH-14PJ DEFESA CONSUMIDOR-GAB 110PJ 15.272,02 6.108,81 0,00 0,00 0,00 0,00 548,77 7.703,63 29.633,23 3.233,21 4.016,96 0,00 0,00 7.250,17 22.383,06 30/04/2021
581 494000 CRISTIANE DE MELO MARQUEZ OLIVEIRA ANALISTA DO MP UBERLÂNDIA - COMARCA; UBERLANDIA-PJ-06PJ 11.085,56 1.108,56 0,00 0,00 0,00 0,00 0,00 3.255,78 15.449,90 1.763,34 1.999,10 0,00 0,00 3.762,44 11.687,46 30/04/2021
582 266100 CRISTIANE DE OLIVEIRA CASTRO OFICIAL DO MP BELO HORIZONTE - COMARCA; BH-14PJ DEFESA CONSUMIDOR-SECRETARIA 12.601,30 3.780,39 0,00 0,00 0,00 0,00 1.445,27 1.717,00 19.543,96 2.433,35 3.259,61 0,00 0,00 5.692,96 13.851,00 30/04/2021
583 329500 CRISTIANE DOS REIS SILVA OFICIAL DO MP ARAXÁ - COMARCA; ARAXA-PJ-04PJ 9.444,70 2.833,41 0,00 0,00 0,00 0,00 0,00 1.717,00 13.995,11 1.776,77 1.966,37 0,00 0,00 3.743,14 10.251,97 30/04/2021
584 301600 CRISTIANE GODINHO PIRES ANALISTA DO MP BETIM - COMARCA; BETIM-PJ-07PJ 16.750,82 5.025,25 0,00 0,00 0,00 0,00 479,07 6.943,26 29.198,40 3.296,45 4.212,54 0,00 0,00 7.508,99 21.689,41 30/04/2021
585 406100 CRISTIANE GONCALVES CHAVES ANALISTA DO MP BELO HORIZONTE - COMARCA; BH-14PJ DEFESA CONSUMIDOR-GAB 112PJ 14.324,23 4.297,27 0,00 0,00 0,00 0,00 0,00 1.717,00 20.338,50 2.791,72 3.483,83 0,00 0,00 6.275,55 14.062,95 30/04/2021
586 487600 CRISTIANE LOPES DE OLIVEIRA OFICIAL DO MP DIVINÓPOLIS - COMARCA; DIVINOPOLIS-PJ-03PJ 6.123,79 612,38 0,00 0,00 0,00 0,00 0,00 1.717,00 8.453,17 890,06 738,32 0,00 0,00 1.628,38 6.824,79 30/04/2021
587 502500 CRISTIANE MACIEL DE OLIVEIRA GOMES ANALISTA DO MP JUIZ DE FORA - COMARCA; JUIZ DE FORA-PJ-05PJ 10.069,62 1.006,96 0,00 0,00 0,00 0,00 0,00 2.486,39 13.562,97 1.584,53 1.740,95 0,00 0,00 3.325,48 10.237,49 30/04/2021
588 285500 CRISTIANE MAGALHAES LOURENCO ANALISTA DO MP BELO HORIZONTE - COMARCA; CENTRAL DE APOIO TECNICO-SETOR CONTABIL 17.413,92 5.224,18 0,00 0,00 0,00 0,00 498,04 7.150,14 30.286,28 3.434,37 4.359,53 0,00 0,00 7.793,90 22.492,38 30/04/2021
589 536500 CRISTIANE MICHELE DE SOUZA ANALISTA DO MP BARÃO DE COCAIS - COMARCA; BARAO DE COCAIS-PJ-UNPJ 9.146,93 914,69 0,00 0,00 0,00 0,00 0,00 2.486,39 12.548,01 1.422,14 1.402,22 0,00 0,00 2.824,36 9.723,65 30/04/2021
590 346600 CRISTIANE NOGUEIRA ANDRADE ANALISTA DO MP BELO HORIZONTE - COMARCA; CENTRAL DE APOIO TECNICO-SETOR CONTABIL 15.272,02 4.581,61 0,00 0,00 0,00 0,00 1.527,20 1.717,00 23.097,83 3.233,21 4.121,24 0,00 0,00 7.354,45 15.743,38 30/04/2021
591 234000 CRISTIANE OLIVEIRA TOSTES OFICIAL DO MP JUIZ DE FORA - COMARCA; JUIZ DE FORA-PJ-08PJ 14.324,23 4.297,27 0,00 0,00 0,00 0,00 546,23 8.445,27 27.613,00 2.791,72 3.483,83 0,00 0,00 6.275,55 21.337,45 30/04/2021
592 445800 CRISTIANE ORZIL COSTA OFICIAL DO MP SANTA LUZIA - COMARCA; SANTA LUZIA-PJ-05PJ 6.123,79 1.224,76 0,00 0,00 0,00 0,00 0,00 2.486,39 9.834,94 988,05 879,78 0,00 0,00 1.867,83 7.967,11 30/04/2021
593 616100 CRISTIANE PAES RODRIGUES MARCICANO ANALISTA DO MP CATAGUASES - COMARCA; CATAGUASES-PJ-05PJ 7.663,37 766,34 0,00 0,00 0,00 0,00 0,00 3.255,78 11.685,49 1.161,03 1.129,53 0,00 0,00 2.290,56 9.394,93 30/04/2021
594 612300 CRISTIANE RIBEIRO DOS REIS ARCANJO OFICIAL DO MP BELO HORIZONTE - COMARCA; DIRETORIA DE PAGAMENTO DE PESSOAL-DPAG 5.387,19 538,72 0,00 0,00 1.975,30 0,00 0,00 0,00 7.901,21 762,96 989,38 0,00 0,00 1.752,34 6.148,87 30/04/2021
595 257700 CRISTIANE RODRIGUES PAES NUNES ANALISTA DO MP BELO HORIZONTE - COMARCA; BH-22PJ PES COM DEF E IDOSOS-ORIENTACAO PSIC 18.820,14 5.646,04 0,00 0,00 0,00 0,00 538,26 8.358,27 33.362,71 3.726,87 4.781,81 0,00 0,00 8.508,68 24.854,03 30/04/2021
596 510800 CRISTIANE SANTOS FERNANDES ORNELES ANALISTA DO MP BELO HORIZONTE - COMARCA; COORD ESTADUAL DAS PJS DE HAB. E URBANISMO 10.069,62 1.006,96 0,00 0,00 0,00 0,00 0,00 1.717,00 12.793,58 1.584,53 1.740,95 0,00 0,00 3.325,48 9.468,10 30/04/2021
597 535701 CRISTIANE SANTOS MIRANDA ANALISTA DO MP BETIM - COMARCA; BETIM-PJ-12PJ 7.421,79 445,31 0,00 0,00 0,00 0,00 0,00 1.717,00 9.584,10 1.071,01 947,43 0,00 0,00 2.018,44 7.565,66 30/04/2021
598 536200 CRISTIANO DE OLIVEIRA ANALISTA DO MP CONCEIÇÃO DO MATO DENTRO - COMARCA; CONCEICAO DO MATO DENTRO-PJ-UNPJ 10.069,62 1.006,96 0,00 0,00 0,00 0,00 0,00 2.486,39 13.562,97 1.584,53 1.688,82 0,00 0,00 3.273,35 10.289,62 30/04/2021
599 477400 CRISTIANO SOARES ELEUTERIO ANALISTA DO MP BELO HORIZONTE - COMARCA; BH-17PJ PATRIMONIO PUBLICO-SECRETARIA 11.085,56 2.217,11 0,00 0,00 0,00 0,00 0,00 1.717,00 15.019,67 1.940,70 2.255,18 0,00 0,00 4.195,88 10.823,79 30/04/2021
600 449400 CRISTIANO TEIXEIRA RODRIGUES LANA ANALISTA DO MP BELO HORIZONTE - COMARCA; COORD EST DEF DIR FAM PESSOAS DEFICI IDOSOS 10.069,62 2.013,92 0,00 0,00 0,00 0,00 0,00 1.717,00 13.800,54 1.745,64 1.973,56 0,00 0,00 3.719,20 10.081,34 30/04/2021
601 239400 CRISTINA DE FATIMA CRUZ E SILVA OFICIAL DO MP MONTE SANTO DE MINAS - COMARCA; MONTE SANTO DE MINAS-PJ-SECRETARIA 12.601,30 3.780,39 0,00 0,00 0,00 0,00 0,00 1.717,00 18.098,69 2.433,35 2.966,43 0,00 0,00 5.399,78 12.698,91 30/04/2021
602 544000 CRISTINA DE OLIVEIRA TERRA ANALISTA DO MP SANTA LUZIA - COMARCA; SANTA LUZIA-PJ-07PJ 9.146,93 914,69 0,00 0,00 0,00 0,00 0,00 1.717,00 11.778,62 1.422,14 1.506,50 0,00 0,00 2.928,64 8.849,98 30/04/2021
603 356800 CRISTINA DE PINHO BARROSO OFICIAL DO MP SABINÓPOLIS - COMARCA; SABINOPOLIS-PJ-UNPJ 8.170,49 2.451,15 0,00 0,00 0,00 0,00 0,00 1.717,00 12.338,64 1.511,74 1.531,59 0,00 0,00 3.043,33 9.295,31 30/04/2021
604 649500 CRISTINA DO DIVINO ESPIRITO SANTOS OFICIAL DO MP DIVINÓPOLIS - COMARCA; DIVINOPOLIS-PJ-12PJ 4.817,57 289,05 0,00 0,00 0,00 0,00 0,00 1.717,00 6.823,62 639,44 326,33 0,00 0,00 965,77 5.857,85 30/04/2021
605 348201 CRISTINA MARIA DA SILVA ANALISTA DO MP ARAXÁ - COMARCA; ARAXA-PJ-06PJ 10.069,62 2.013,92 0,00 0,00 0,00 0,00 0,00 1.717,00 13.800,54 1.745,64 1.973,56 0,00 0,00 3.719,20 10.081,34 30/04/2021
606 434900 CRISTINA MELO DE MADUREIRA ANALISTA DO MP BELO HORIZONTE - COMARCA; BH-07PJ 01 TRIBUNAL JURI-SECRETARIA 13.011,52 2.602,30 0,00 0,00 0,00 0,00 0,00 1.717,00 17.330,82 2.310,49 2.789,06 0,00 0,00 5.099,55 12.231,27 30/04/2021
607 307700 CRISTINA TEIXEIRA MARQUES OFICIAL DO MP BELO HORIZONTE - COMARCA; CENTRAL DE APOIO TECNICO-SETOR CONTABIL 8.858,43 2.657,53 0,00 0,00 0,00 0,00 0,00 1.717,00 13.232,96 1.654,83 1.842,45 0,00 0,00 3.497,28 9.735,68 30/04/2021
608 265300 CRISTOVAO SANCHES DE MEDEIROS ANALISTA DO MP BELO HORIZONTE - COMARCA; DIRETORIA DE CONTABILIDADE 16.750,82 5.025,25 0,00 0,00 0,00 0,00 0,00 1.717,00 23.493,07 3.296,45 4.212,54 0,00 0,00 7.508,99 15.984,08 30/04/2021
609 349800 CROZEIR LUIZ DA SILVA OFICIAL DO MP UNAÍ - COMARCA; UNAI-PJ-SECRETARIA 9.444,70 1.888,94 0,00 0,00 0,00 0,00 0,00 2.372,70 13.706,34 1.625,66 1.748,20 0,00 0,00 3.373,86 10.332,48 30/04/2021
610 490500 CYNTHIA CRISTINA DE SOUZA OLIVEIRA VALENTE ANALISTA DO MP BELO HORIZONTE - COMARCA; BH-09PJ AUDITORIA MILITAR-SECRETARIA 10.069,62 1.006,96 0,00 0,00 0,00 0,00 0,00 1.717,00 12.793,58 1.584,53 1.740,95 0,00 0,00 3.325,48 9.468,10 30/04/2021
611 389800 CYNTHIA GARIGLIO DOS SANTOS OFICIAL DO MP PERDIZES - COMARCA; PERDIZES-PJ-SECRETARIA 6.529,10 1.305,82 0,00 0,00 0,00 0,00 0,00 2.486,39 10.321,31 1.065,86 835,72 0,00 0,00 1.901,58 8.419,73 30/04/2021
612 335101 CYNTHIA GONTIJO D ASSUNCAO ANALISTA DO MP BELO HORIZONTE - COMARCA; FEPDC-SECRETARIA EXECUTIVA 10.069,62 2.013,92 0,00 0,00 0,00 0,00 0,00 2.486,39 14.569,93 1.745,64 1.973,56 0,00 0,00 3.719,20 10.850,73 30/04/2021
613 269700 CYNTIA ROCHA CAVALCANTI OFICIAL DO MP UBERLÂNDIA - COMARCA; UBERLANDIA-PJ-06PJ 12.601,30 3.780,39 0,00 0,00 0,00 0,00 0,00 2.486,39 18.868,08 2.433,35 2.966,43 0,00 0,00 5.399,78 13.468,30 30/04/2021
614 278000 DAIRTON LOPES MARTINS FILHO COORDENADOR/ANALISTA BELO HORIZONTE - COMARCA; DIRETORIA DE SISTEMAS DE INFORMACAO 0,00 4.030,55 13.435,16 0,00 0,00 0,00 64,04 2.415,63 19.945,38 1.906,76 3.409,35 0,00 0,00 5.316,11 14.629,27 30/04/2021
615 392700 DALIANA CHAVES IBRAIM MARINHO OFICIAL DO MP ITAÚNA - COMARCA; ITAUNA-PJ-04PJ 7.187,72 1.437,54 0,00 0,00 0,00 0,00 0,00 1.717,00 10.342,26 1.192,32 1.174,70 0,00 0,00 2.367,02 7.975,24 30/04/2021
616 558101 DALLEY TASSIA SILVA ANALISTA DO MP MORADA NOVA DE MINAS - COMARCA; MORADA NOVA DE MINAS-PJ-UNPJ 8.436,53 843,65 0,00 0,00 0,00 0,00 0,00 3.255,78 12.535,96 1.297,11 1.221,71 0,00 0,00 2.518,82 10.017,14 30/04/2021
617 476700 DALTON DAUD ANALISTA DO MP ARAGUARI - COMARCA; ARAGUARI-PJ-05PJ 10.069,62 2.013,92 0,00 0,00 0,00 0,00 0,00 1.717,00 13.800,54 1.745,64 1.869,29 0,00 0,00 3.614,93 10.185,61 30/04/2021
618 426900 DANIEL ALVES DA SILVA OFICIAL DO MP BELO HORIZONTE - COMARCA; DIVISAO TRANSPORTES 6.123,79 1.224,76 0,00 0,00 0,00 0,00 0,00 1.717,00 9.065,55 988,05 775,50 0,00 0,00 1.763,55 7.302,00 30/04/2021
619 122000 DANIEL ANTONIO VIEIRA OFICIAL DO MP ENTRE-RIOS DE MINAS - COMARCA; ENTRE RIOS DE MINAS-PJ-SECRETARIA 10.069,62 8.055,69 0,00 0,00 0,00 0,00 0,00 1.717,00 19.842,31 2.712,33 3.160,66 0,00 0,00 5.872,99 13.969,32 30/04/2021
620 411000 DANIEL FERREIRA DA SILVA ANALISTA DO MP GOVERNADOR VALADARES - COMARCA; GOVERNADOR VALADARES-PJ-15PJ 12.601,30 3.780,39 0,00 0,00 0,00 0,00 0,00 3.255,78 19.637,47 2.433,35 2.757,88 0,00 0,00 5.191,23 14.446,24 30/04/2021
621 309000 DANIEL GOMES DOS SANTOS ANALISTA DO MP POÇOS DE CALDAS - COMARCA; POCOS DE CALDAS-PJ-03PJ 17.413,92 5.224,18 0,00 0,00 0,00 0,00 498,04 7.150,14 30.286,28 3.434,37 4.411,67 0,00 0,00 7.846,04 22.440,24 30/04/2021
622 554500 DANIEL GOMES PEREIRA OFICIAL DO MP NANUQUE - COMARCA; NANUQUE-PJ-02PJ 5.930,75 593,08 0,00 0,00 0,00 0,00 0,00 1.717,00 8.240,83 856,09 689,27 0,00 0,00 1.545,36 6.695,47 30/04/2021
623 453000 DANIEL GONCALVES PEREIRA ANALISTA DO MP UNAÍ - COMARCA; UNAI-PJ-02PJ 10.069,62 2.013,92 0,00 0,00 0,00 0,00 0,00 3.639,93 15.723,47 1.745,64 1.973,56 0,00 0,00 3.719,20 12.004,27 30/04/2021
624 495500 DANIEL GUIMARAES CABRAL OFICIAL DO MP BELO HORIZONTE - COMARCA; BH-17PJ PATRIMONIO PUBLICO-SECRETARIA 6.123,79 612,38 0,00 0,00 0,00 0,00 0,00 1.717,00 8.453,17 890,06 738,32 0,00 0,00 1.628,38 6.824,79 30/04/2021
625 442900 DANIEL GUIMARAES GONCALVES ANALISTA DO MP UBERLÂNDIA - COMARCA; UBERLANDIA-PJ-03PJ 12.601,30 2.520,26 0,00 0,00 0,00 0,00 0,00 1.717,00 16.838,56 2.231,73 2.675,34 0,00 0,00 4.907,07 11.931,49 30/04/2021
626 655900 DANIEL LUIZ DA SILVA ASSESSOR BELO HORIZONTE - COMARCA; DIV FISCAL ADM CONT TERCEIRIZACAO 0,00 0,00 5.136,32 0,00 0,00 0,00 0,00 1.717,00 6.853,32 738,09 669,60 0,00 0,00 1.407,69 5.445,63 30/04/2021
627 464600 DANIEL PIACENTINI STIVANIN ANALISTA DO MP ANDRADAS - COMARCA; ANDRADAS-PJ-02PJ 10.069,62 2.013,92 0,00 0,00 4.027,85 0,00 0,00 1.717,00 17.828,39 1.745,64 3.081,22 0,00 0,00 4.826,86 13.001,53 30/04/2021
628 417000 DANIEL QUEIROZ FERREIRA ANALISTA DO MP SÃO SEBASTIÃO DO PARAÍSO - COMARCA; SAO SEBASTIAO DO PARAISO-PJ-05PJ 12.601,30 2.520,26 0,00 0,00 0,00 0,00 0,00 1.717,00 16.838,56 2.231,73 2.675,34 0,00 0,00 4.907,07 11.931,49 30/04/2021
629 396700 DANIEL SILVA CARNEVALLI DIRETOR/ANALISTA BELO HORIZONTE - COMARCA; SUPERINTENDENCIA DE TECNOLOGIA DA INFORMACAO 0,00 3.482,78 17.413,92 0,00 0,00 0,00 306,48 5.829,86 27.033,04 2.562,53 4.172,54 0,00 0,00 6.735,07 20.297,97 30/04/2021
630 489300 DANIEL TABOZA ROCHA ANALISTA DO MP IPATINGA - COMARCA; IPATINGA-PJ-08PJ 10.069,62 1.006,96 0,00 0,00 0,00 0,00 0,00 2.486,39 13.562,97 1.584,53 1.740,95 0,00 0,00 3.325,48 10.237,49 30/04/2021
631 414100 DANIEL TARDELI VALADAO ANALISTA DO MP TRÊS CORACOES - COMARCA; TRES CORACOES-PJ-02PJ 12.601,30 2.520,26 0,00 0,00 0,00 0,00 0,00 3.255,78 18.377,34 2.231,73 2.466,79 0,00 0,00 4.698,52 13.678,82 30/04/2021
632 446601 DANIEL VIEIRA BUENO ANALISTA DO MP SÃO DOMINGOS DO PRATA - COMARCA; SAO DOMINGOS DO PRATA-PJ-UNPJ 8.858,43 885,84 0,00 0,00 0,00 0,00 0,00 2.486,39 12.230,66 1.371,36 1.381,05 0,00 0,00 2.752,41 9.478,25 30/04/2021
633 253200 DANIELA BATISTA LIMA BARBOSA ASSESSOR BELO HORIZONTE - COMARCA; CENTRAL DE APOIO TECN-SETOR DE MEIO AMBIENTE 0,00 1.540,90 5.136,32 0,00 0,00 0,00 0,00 1.717,00 8.394,22 751,99 1.089,53 0,00 0,00 1.841,52 6.552,70 30/04/2021
634 505800 DANIELA BORGES DE MATTOS RESENDE ANALISTA DO MP JUIZ DE FORA - COMARCA; JUIZ DE FORA-PJ-20PJ 10.069,62 1.006,96 0,00 0,00 0,00 0,00 0,00 2.486,39 13.562,97 1.584,53 1.740,95 0,00 0,00 3.325,48 10.237,49 30/04/2021
635 478000 DANIELA CARVALHO SOARES ANALISTA DO MP SÃO JOÃO DEL REI - COMARCA; SAO JOAO DEL REI-PJ-01PJ 10.069,62 2.013,92 0,00 0,00 0,00 0,00 0,00 1.717,00 13.800,54 1.745,64 1.973,56 0,00 0,00 3.719,20 10.081,34 30/04/2021
636 275900 DANIELA CHAGAS SODRE ANALISTA DO MP BELO HORIZONTE - COMARCA; CENTRAL DE APOIO TECNICO-SETOR CONTABIL 17.413,92 5.224,18 0,00 0,00 0,00 0,00 0,00 1.717,00 24.355,10 3.434,37 4.359,53 0,00 0,00 7.793,90 16.561,20 30/04/2021
637 234301 DANIELA CRUZ SOARES ANALISTA DO MP BELO HORIZONTE - COMARCA; LABORATORIO TECNOLOGIA INTELIGENCIA 18.103,37 5.431,01 0,00 0,00 0,00 0,00 517,76 7.365,25 31.417,39 3.577,78 4.618,71 0,00 0,00 8.196,49 23.220,90 30/04/2021
638 638000 DANIELA DE ALMEIDA BATISTA ANALISTA DO MP ANDRELÂNDIA - COMARCA; ANDRELANDIA-PJ-UNPJ 8.170,49 817,05 0,00 0,00 0,00 0,00 0,00 2.486,39 11.473,93 841,65 1.370,76 0,00 0,00 2.212,41 9.261,52 30/04/2021
639 301000 DANIELA DE ALMEIDA E OLIVEIRA ANALISTA DO MP BELO HORIZONTE - COMARCA; DIRETORIA DE SISTEMAS DE INFORMACAO 17.413,92 5.224,18 0,00 0,00 7.546,03 0,00 0,00 1.717,00 31.901,13 3.434,37 6.486,82 0,00 0,00 9.921,19 21.979,94 30/04/2021
640 296000 DANIELA DE AZEVEDO SILVA ANALISTA DO MP BRASÓPOLIS - COMARCA; BRASOPOLIS-PJ-UNPJ 16.750,82 5.025,25 0,00 0,00 0,00 0,00 0,00 1.717,00 23.493,07 3.296,45 4.212,54 0,00 0,00 7.508,99 15.984,08 30/04/2021
641 453500 DANIELA DE CASTRO SOUSA BARBOSA ANALISTA DO MP BELO HORIZONTE - COMARCA; BH-08PJ JUIZADO ESPECIAL-SECRETARIA 10.069,62 2.013,92 0,00 0,00 0,00 0,00 0,00 1.717,00 13.800,54 1.745,64 1.973,56 0,00 0,00 3.719,20 10.081,34 30/04/2021
642 506000 DANIELA DE OLIVEIRA CAVALIERI ANALISTA DO MP BELO HORIZONTE - COMARCA; BH-14PJ DEFESA CONSUMIDOR-GAB 005PJ 10.069,62 1.006,96 0,00 0,00 0,00 0,00 0,00 1.717,00 12.793,58 1.584,53 1.740,95 0,00 0,00 3.325,48 9.468,10 30/04/2021
643 546200 DANIELA DE VILHENA LEMES GONCALVES OFICIAL DO MP TRÊS CORACOES - COMARCA; TRES CORACOES-PJ-05PJ 5.387,19 538,72 0,00 0,00 0,00 0,00 0,00 1.717,00 7.642,91 762,96 446,18 0,00 0,00 1.209,14 6.433,77 30/04/2021
644 356400 DANIELA LEAL FERRAZ ANALISTA DO MP MONTES CLAROS - COMARCA; COORD REG PJ DEF EDUC DIR CRIANCA ADOL NORTE 14.790,66 2.958,13 0,00 0,00 0,00 0,00 0,00 1.717,00 19.465,79 2.652,08 3.282,24 0,00 0,00 5.934,32 13.531,47 30/04/2021
645 501000 DANIELA LOURENCO SANTOS DA SILVA GUIMARAES ANALISTA DO MP BELO HORIZONTE - COMARCA; BH-12PJ JUIZO CRIMINAL-GAB 095PJ 10.069,62 1.006,96 0,00 0,00 0,00 0,00 0,00 1.717,00 12.793,58 1.584,53 1.688,82 0,00 0,00 3.273,35 9.520,23 30/04/2021
646 195801 DANIELA MARIA DE OLIVEIRA QUEIROZ ANALISTA DO MP ARAGUARI - COMARCA; ARAGUARI-PJ-06PJ 13.011,52 5.204,61 0,00 0,00 0,00 0,00 0,00 1.717,00 19.933,13 2.726,86 3.390,19 0,00 0,00 6.117,05 13.816,08 30/04/2021
647 511400 DANIELA MARIA LARA DE OLIVEIRA ANALISTA DO MP BOA ESPERANÇA - COMARCA; BOA ESPERANCA-PJ-02PJ 10.069,62 1.006,96 0,00 0,00 0,00 0,00 0,00 2.486,39 13.562,97 1.584,53 1.688,82 0,00 0,00 3.273,35 10.289,62 30/04/2021
648 252101 DANIELA PAULA ALVES PENA ANALISTA DO MP CONTAGEM - COMARCA; CONTAGEM-PJ-APO TECNICO 14.324,23 5.729,69 0,00 0,00 0,00 0,00 294,12 4.925,63 25.273,67 3.020,90 3.814,72 0,00 0,00 6.835,62 18.438,05 30/04/2021
649 604700 DANIELA PEIXOTO NOGUEIRA COORDENADOR/OFICIAL BELO HORIZONTE - COMARCA; DIRET DE FORMACAO, APERFEIC. E POS-GRADUACAO 0,00 1.181,92 11.819,15 0,00 0,00 0,00 0,00 2.486,39 15.487,46 856,09 2.470,51 0,00 0,00 3.326,60 12.160,86 30/04/2021
650 429600 DANIELA PIMENTA NUNES MACHADO ANALISTA DO MP BELO HORIZONTE - COMARCA; BH-05PJ-JUÍZO SUCESSÕES-SEC 13.011,52 2.602,30 0,00 0,00 0,00 0,00 0,00 1.717,00 17.330,82 2.310,49 2.736,92 0,00 0,00 5.047,41 12.283,41 30/04/2021
651 662000 DANIELA RIBAS DE AVILA ASSESSOR BELO HORIZONTE - COMARCA; DIRETORIA DE SEGURANCA 0,00 0,00 8.170,49 0,00 0,00 0,00 0,00 1.717,00 9.887,49 751,99 1.500,18 0,00 0,00 2.252,17 7.635,32 30/04/2021
652 462000 DANIELA SOUSA GOMES DO AMARAL ANALISTA DO MP BETIM - COMARCA; BETIM-PJ-04PJ 10.069,62 2.013,92 0,00 0,00 0,00 0,00 0,00 1.717,00 13.800,54 1.745,64 1.973,56 0,00 0,00 3.719,20 10.081,34 30/04/2021
653 427000 DANIELA TEIXEIRA DINIZ ANDRADE ANALISTA DO MP BELO HORIZONTE - COMARCA; DIRETORIA DE PROJETOS DE EDIFICACOES 10.069,62 2.013,92 0,00 0,00 0,00 0,00 44,31 2.200,34 14.328,19 1.745,64 1.921,43 0,00 0,00 3.667,07 10.661,12 30/04/2021
654 337200 DANIELA TOLEDO SENIUK ANALISTA DO MP BELO HORIZONTE - COMARCA; GABINETE DE PROCURADOR DE JUSTIÇA - SALA 412 13.435,16 4.030,55 0,00 0,00 0,00 0,00 0,00 1.717,00 19.182,71 2.606,79 3.216,84 0,00 0,00 5.823,63 13.359,08 30/04/2021
655 605600 DANIELE ALZIRA SILVA CABRAL MOREIRA OFICIAL DO MP BELO HORIZONTE - COMARCA; BH-10PJ EXECUÇÃO PENAL-SECRETARIA 5.930,75 593,08 0,00 0,00 0,00 0,00 0,00 2.486,39 9.010,22 856,09 689,27 0,00 0,00 1.545,36 7.464,86 30/04/2021
656 195500 DANIELE CHAVES FONSECA OFICIAL DO MP BELO HORIZONTE - COMARCA; ASSESSORIA ESPECIAL DO PGJ 15.499,20 6.199,68 0,00 0,00 0,00 0,00 477,38 6.924,73 29.100,99 3.284,10 4.194,70 0,00 0,00 7.478,80 21.622,19 30/04/2021
657 323400 DANIELE MEGALE SANTINI OFICIAL DO MP BELO HORIZONTE - COMARCA; CGMP-DIVIS DE APOIO FISC ORIENTACAO FUNCIONAL 10.069,62 3.020,89 0,00 0,00 0,00 0,00 0,00 1.717,00 14.807,51 1.906,76 2.154,03 0,00 0,00 4.060,79 10.746,72 30/04/2021
658 357900 DANIELE REJANE PINTO VERSIEUX OFICIAL DO MP PEDRO LEOPOLDO - COMARCA; PEDRO LEOPOLDO-PJ-03PJ 9.146,93 1.829,39 0,00 0,00 0,00 0,00 0,00 1.717,00 12.693,32 1.568,49 1.717,79 0,00 0,00 3.286,28 9.407,04 30/04/2021
659 389500 DANIELE VASCONCELOS AMORIM PRADO OFICIAL DO MP SÃO SEBASTIÃO DO PARAÍSO - COMARCA; SAO SEBASTIAO DO PARAISO-PJ-04PJ 8.858,43 1.771,69 0,00 0,00 0,00 0,00 0,00 1.717,00 12.347,12 1.513,10 1.637,82 0,00 0,00 3.150,92 9.196,20 30/04/2021
660 629700 DANIELLA BASTOS MARTINS BICALHO OFICIAL DO MP GOVERNADOR VALADARES - COMARCA; GOVERNADOR VALADARES-PJ-16PJ 5.387,19 538,72 0,00 0,00 0,00 0,00 0,00 1.717,00 7.642,91 762,96 550,45 0,00 0,00 1.313,41 6.329,50 30/04/2021
661 265000 DANIELLE CASTANHEIRA SCALABRINI OFICIAL DO MP BELO HORIZONTE - COMARCA; JUNTA RECURSAL DO PROCON ESTADUAL 10.069,62 3.020,89 0,00 0,00 0,00 0,00 0,00 1.717,00 14.807,51 1.906,76 2.101,90 0,00 0,00 4.008,66 10.798,85 30/04/2021
662 490100 DANIELLE DE AVILA SILVA LOPES ANALISTA DO MP BELO HORIZONTE - COMARCA; PROC. JUSTICA DIR. DIFUSOS E COLETIVOS-SEC 10.069,62 3.020,89 0,00 0,00 0,00 0,00 0,00 2.486,39 15.576,90 1.906,76 2.206,17 0,00 0,00 4.112,93 11.463,97 30/04/2021
663 549600 DANIELLE GOMES LOPES RODRIGUES OFICIAL DO MP VESPASIANO - COMARCA; VESPASIANO-PJ-02PJ 5.930,75 593,08 0,00 0,00 0,00 0,00 0,00 1.717,00 8.240,83 856,09 689,27 0,00 0,00 1.545,36 6.695,47 30/04/2021
664 613000 DANIELLE SILVA OLIVEIRA FRANKLIN ASSESSOR/OFICIAL BELO HORIZONTE - COMARCA; DIRETORIA DE ORCAMENTO-DIOR/SPC 0,00 1.039,75 10.397,52 0,00 3.812,42 0,00 545,18 9.203,16 24.998,03 762,96 3.114,49 0,00 0,00 3.877,45 21.120,58 30/04/2021
665 380800 DANILLO RIBEIRO ANTUNES ANALISTA DO MP MONTES CLAROS - COMARCA; MONTES CLAROS-PJ-SECRETARIA 14.324,23 2.864,85 0,00 0,00 0,00 0,00 504,21 7.217,51 24.910,80 2.562,53 3.100,80 0,00 0,00 5.663,33 19.247,47 30/04/2021
666 453700 DANILO BOTELHO DE CARVALHO ASSESSOR/ANALISTA BELO HORIZONTE - COMARCA; SUPERINTENDENCIA DE FINANCAS 0,00 4.939,57 24.697,83 0,00 0,00 0,00 543,35 8.413,87 38.594,62 2.231,73 6.667,20 0,00 0,00 8.898,93 29.695,69 30/04/2021
667 391200 DANILO D'AVILA MENDES ANALISTA DO MP MONTES CLAROS - COMARCA; GAECO REGIONAL DE MONTES CLAROS 14.324,23 2.864,85 0,00 0,00 0,00 0,00 63,03 3.173,95 20.426,06 2.562,53 3.152,94 0,00 0,00 5.715,47 14.710,59 30/04/2021
668 494900 DANILO GAVIAO AVELINO DE MELLO ANALISTA DO MP POUSO ALEGRE - COMARCA; GAECO REGIONAL DE POUSO ALEGRE 10.069,62 1.006,96 0,00 0,00 0,00 0,00 0,00 2.486,39 13.562,97 1.584,53 1.740,95 0,00 0,00 3.325,48 10.237,49 30/04/2021
669 604300 DANILO NASCIMENTO SALGADO ANALISTA DO MP JANAÚBA - COMARCA; JANAUBA-PJ-01PJ 9.146,93 914,69 0,00 0,00 0,00 0,00 0,00 1.717,00 11.778,62 1.422,14 1.506,50 0,00 0,00 2.928,64 8.849,98 30/04/2021
670 298300 DANUZA MONICA DE SOUZA DINIZ ANALISTA DO MP BELO HORIZONTE - COMARCA; CAO-FUNDACOES 13.872,60 4.161,78 0,00 0,00 0,00 0,00 66,13 2.438,38 20.538,89 2.697,78 3.296,07 0,00 0,00 5.993,85 14.545,04 30/04/2021
671 398700 DARCY LUIZ MILEO GREGATTI OFICIAL DO MP LAMBARI - COMARCA; LAMBARI-PJ-SECRETARIA 8.579,10 1.715,82 0,00 0,00 0,00 0,00 0,00 1.717,00 12.011,92 1.459,46 1.560,39 0,00 0,00 3.019,85 8.992,07 30/04/2021
672 406200 DARIANA AUGUSTA DE TOLEDO PATROCINIO RUIZ COORDENADOR/OFICIAL BELO HORIZONTE - COMARCA; DIRETORIA GESTAO COMPRAS LICITACOES 0,00 2.687,03 13.435,16 0,00 0,00 0,00 0,00 1.717,00 17.839,19 1.513,10 3.148,14 0,00 0,00 4.661,24 13.177,95 30/04/2021
673 586901 DARIO VITORINO DE CARVALHO SILVA ASSESSOR BELO HORIZONTE - COMARCA; DIRETORIA DE SEGURANCA 0,00 0,00 17.413,92 0,00 0,00 0,00 63,85 2.413,56 19.891,33 751,99 3.989,98 0,00 0,00 4.741,97 15.149,36 30/04/2021
674 305000 DARLI LEITE DE OLIVEIRA OFICIAL DO MP ARAÇUAÍ - COMARCA; ARACUAI-PJ-01PJ 6.123,79 1.837,14 0,00 0,00 0,00 0,00 0,00 1.717,00 9.677,93 1.086,03 864,83 0,00 0,00 1.950,86 7.727,07 30/04/2021
675 122200 DAVID RIBEIRO DOS SANTOS ANALISTA DO MP BORDA DA MATA - COMARCA; BORDA DA MATA-PJ-UNPJ 18.820,14 15.056,11 0,00 0,00 0,00 5.232,48 496,85 7.137,20 46.742,78 5.232,48 8.446,61 0,00 0,00 13.679,09 33.063,69 30/04/2021
676 389400 DAWSON CANEDO MARQUES OFICIAL DO MP TRÊS CORACOES - COMARCA; TRES CORACOES-PJ-01PJ 8.858,43 1.771,69 0,00 0,00 0,00 0,00 0,00 1.717,00 12.347,12 1.513,10 911,82 0,00 0,00 2.424,92 9.922,20 30/04/2021
677 537200 DAYANE TEIXEIRA DE OLIVEIRA CASELLI ANALISTA DO MP BELO HORIZONTE - COMARCA; GABINETE DE PROCURADOR DE JUSTIÇA - SALA 705 7.421,79 742,18 0,00 0,00 0,00 0,00 296,87 1.717,00 10.177,84 1.166,01 1.136,72 0,00 0,00 2.302,73 7.875,11 30/04/2021
678 256100 DAYSE ROSALY PEREIRA BATISTA OFICIAL DO MP BELO HORIZONTE - COMARCA; BH-08PJ JUIZADO ESPECIAL-SECRETARIA 10.069,62 3.020,89 0,00 0,00 0,00 0,00 0,00 1.717,00 14.807,51 1.906,76 2.206,17 0,00 0,00 4.112,93 10.694,58 30/04/2021
679 311901 DEBORA APARECIDA DA SILVA ASSESSOR BELO HORIZONTE - COMARCA; BH-23PJ CIVEL-SETOR ATEND PUB 0,00 0,00 3.076,28 0,00 0,00 0,00 0,00 1.717,00 4.793,28 449,69 224,40 0,00 0,00 674,09 4.119,19 30/04/2021
680 194301 DEBORA APARECIDA DOS SANTOS ANALISTA DO MP UBERLÂNDIA - COMARCA; UBERLANDIA-PJ-SEC FAMILIA 18.820,14 7.528,06 0,00 0,00 0,00 0,00 483,05 6.986,64 33.817,89 4.027,99 5.216,56 0,00 0,00 9.244,55 24.573,34 30/04/2021
681 518800 DEBORA CARVALHO FIORATTO COORDENADOR/OFICIAL BELO HORIZONTE - COMARCA; DIRETORIA MATERIAIS E SERVICOS 0,00 1.343,52 13.435,16 0,00 0,00 0,00 4.245,60 2.486,39 21.510,67 1.118,51 4.054,73 0,00 0,00 5.173,24 16.337,43 30/04/2021
682 444900 DEBORA CLAUDIA PEREIRA ALVES ANALISTA DO MP BELO HORIZONTE - COMARCA; BH-08PJ JUIZADO ESPECIAL-SECRETARIA 10.069,62 2.013,92 0,00 0,00 0,00 0,00 0,00 1.717,00 13.800,54 1.745,64 1.973,56 0,00 0,00 3.719,20 10.081,34 30/04/2021
683 617700 DEBORA COMANDUCI SCHREIDER ANALISTA DO MP BICAS - COMARCA; BICAS-PJ-UNPJ 8.436,53 843,65 0,00 0,00 0,00 0,00 0,00 1.717,00 10.997,18 1.297,11 1.273,85 0,00 0,00 2.570,96 8.426,22 30/04/2021
684 555700 DEBORA CRISTINA BUITRAGO PEREIRA ANALISTA DO MP BELO HORIZONTE - COMARCA; DIRETORIA GESTAO CONTRATOS CONVENIOS 9.146,93 914,69 0,00 0,00 0,00 0,00 0,00 3.255,78 13.317,40 1.422,14 1.506,50 0,00 0,00 2.928,64 10.388,76 30/04/2021
685 513100 DEBORA CRISTINA PEREIRA DE OLIVEIRA ANALISTA DO MP BELO HORIZONTE - COMARCA; BH-23PJ CIVEL-SETOR JURIDICO 10.069,62 1.006,96 0,00 0,00 0,00 0,00 0,00 1.717,00 12.793,58 1.584,53 1.740,95 0,00 0,00 3.325,48 9.468,10 30/04/2021
686 612100 DEBORA DUARTE SILVA DE SOUZA OFICIAL DO MP RIBEIRÃO DAS NEVES - COMARCA; RIBEIRAO DAS NEVES-PJ-06PJ 5.387,19 1.616,16 0,00 0,00 0,00 0,00 0,00 1.717,00 8.720,35 932,81 695,76 0,00 0,00 1.628,57 7.091,78 30/04/2021
687 539700 DEBORA SALES CARVALHO ANALISTA DO MP PATOS DE MINAS - COMARCA; COORD REG PJ DEF EDU DIR CRI ADO AL PAR NOROE 9.146,93 914,69 0,00 0,00 0,00 0,00 0,00 1.717,00 11.778,62 1.422,14 1.506,50 0,00 0,00 2.928,64 8.849,98 30/04/2021
688 424100 DEBORA SANTOS E ALVES ANALISTA DO MP JANUÁRIA - COMARCA; JANUARIA-PJ-01PJ 13.011,52 2.602,30 0,00 0,00 0,00 0,00 0,00 3.255,78 18.869,60 2.310,49 2.789,06 0,00 0,00 5.099,55 13.770,05 30/04/2021
689 426301 DEBORA SCUCATO MACHADO SOARES OFICIAL DO MP ITABIRITO - COMARCA; ITABIRITO-PJ-01PJ 5.930,75 1.186,15 0,00 0,00 0,00 0,00 0,00 2.486,39 9.603,29 950,98 826,27 0,00 0,00 1.777,25 7.826,04 30/04/2021
690 678100 DEBORA SOUZA COSTA ASSESSOR PROMOTOR JUSTICA BOTELHOS - COMARCA; BOTELHOS-PJ-UNPJ 0,00 0,00 7.187,72 0,00 0,00 0,00 0,00 2.486,39 9.674,11 751,99 1.177,78 0,00 0,00 1.929,77 7.744,34 30/04/2021
691 550200 DEBORA TRINDADE LEITE ANALISTA DO MP MANHUAÇU - COMARCA; MANHUACU-PJ-05PJ 9.146,93 914,69 0,00 0,00 0,00 0,00 0,00 1.717,00 11.778,62 1.422,14 1.402,22 0,00 0,00 2.824,36 8.954,26 30/04/2021
692 438000 DEBORAH COSTA LAGE ANALISTA DO MP BELO HORIZONTE - COMARCA; PROC JUST ATUACAO TRIBUNAIS SUPERIORES-GAB004 13.011,52 2.602,30 0,00 0,00 0,00 0,00 0,00 1.717,00 17.330,82 2.310,49 2.789,06 0,00 0,00 5.099,55 12.231,27 30/04/2021
693 475700 DEBORAH LOBAO LACERDA ASSESSOR/OFICIAL BELO HORIZONTE - COMARCA; BH-17PJ PATRIMONIO PUBLICO-SECRETARIA 0,00 1.634,10 8.170,49 0,00 0,00 0,00 0,00 1.717,00 11.521,59 988,05 1.555,19 0,00 0,00 2.543,24 8.978,35 30/04/2021
694 678500 DEBORAH PESSOA DA SILVA GUEDES ASSESSOR PROCURADOR JUSTICA BELO HORIZONTE - COMARCA; GABINETE DE PROCURADOR DE JUSTIÇA - SALA 703 0,00 0,00 7.187,72 0,00 0,00 0,00 0,00 1.717,00 8.904,72 751,99 1.229,92 0,00 0,00 1.981,91 6.922,81 30/04/2021
695 613700 DEISER MARIA FERREIRA ROSCOE OFICIAL DO MP BELO HORIZONTE - COMARCA; DIVISAO FROTA 5.387,19 538,72 0,00 0,00 0,00 0,00 0,00 1.717,00 7.642,91 762,96 550,45 0,00 0,00 1.313,41 6.329,50 30/04/2021
696 551900 DEISY ROCHA DA SILVA ANALISTA DO MP CARMO DO PARANAÍBA - COMARCA; CARMO DO PARANAIBA-PJ-01PJ 9.146,93 914,69 0,00 0,00 0,00 0,00 0,00 1.717,00 11.778,62 1.422,14 1.506,50 0,00 0,00 2.928,64 8.849,98 30/04/2021
697 501900 DELI RAQUEL RODRIGUES ANALISTA DO MP ITUIUTABA - COMARCA; ITUIUTABA-PJ-04PJ 10.069,62 1.006,96 0,00 0,00 0,00 0,00 0,00 1.717,00 12.793,58 1.584,53 1.740,95 0,00 0,00 3.325,48 9.468,10 30/04/2021
698 378600 DELIANE LOPES VIEIRA BREIJAO ANALISTA DO MP JUIZ DE FORA - COMARCA; JUIZ DE FORA-PJ-12PJ 14.324,23 2.864,85 0,00 0,00 0,00 0,00 0,00 1.717,00 18.906,08 2.562,53 3.100,80 0,00 0,00 5.663,33 13.242,75 30/04/2021
699 487700 DENIA FERREIRA MAIA SILVA OFICIAL DO MP TRÊS CORACOES - COMARCA; TRES CORACOES-PJ-04PJ 6.123,79 612,38 0,00 0,00 0,00 0,00 0,00 2.486,39 9.222,56 890,06 634,05 0,00 0,00 1.524,11 7.698,45 30/04/2021
700 424800 DENIS APARECIDO CAMPOS DELFINO ANALISTA DO MP LUZ - COMARCA; LUZ-PJ-UNPJ 12.601,30 2.520,26 0,00 0,00 0,00 0,00 0,00 2.486,39 17.607,95 2.231,73 2.466,79 0,00 0,00 4.698,52 12.909,43 30/04/2021
701 381400 DENISE ANGELICA MELLO DE PAULA OFICIAL DO MP BELO HORIZONTE - COMARCA; BH-18PJ DIREITOS HUMANOS-SECRETARIA 8.858,43 1.771,69 0,00 0,00 0,00 0,00 0,00 2.486,39 13.116,51 1.513,10 1.637,82 0,00 0,00 3.150,92 9.965,59 30/04/2021
702 702100 DENISE CANDIDO LIMA MACEDO KATOPODIS ASSESSOR PROCURADOR JUSTICA BELO HORIZONTE - COMARCA; COORD DE CONTROLE DA CONSTITUCIONALIDADE 0,00 0,00 7.187,72 0,00 0,00 0,00 0,00 1.717,00 8.904,72 751,99 1.229,92 0,00 0,00 1.981,91 6.922,81 30/04/2021
703 196300 DENISE DE ALMEIDA VILELA FURTADO OFICIAL DO MP BELO HORIZONTE - COMARCA; CENTRAL DE APOIO TECNICO-SECRETARIA 12.204,02 4.881,61 0,00 0,00 0,00 0,00 62,65 3.553,97 20.702,25 2.545,98 3.129,04 0,00 0,00 5.675,02 15.027,23 30/04/2021
704 271100 DENISE ELOY PEIXOTO OFICIAL DO MP BELO HORIZONTE - COMARCA; DIRETORIA DE INTELIGENCIA 12.601,30 3.780,39 0,00 0,00 0,00 0,00 0,00 1.717,00 18.098,69 2.433,35 2.966,43 0,00 0,00 5.399,78 12.698,91 30/04/2021
705 385400 DENISE FREITAS DE ASSIS ASSESSOR/OFICIAL CARATINGA - COMARCA; CARATINGA-PJ-SECRETARIA 0,00 2.079,50 10.397,52 0,00 0,00 0,00 0,00 1.717,00 14.194,02 1.459,46 2.160,47 0,00 0,00 3.619,93 10.574,09 30/04/2021
706 437100 DENISE NOGUEIRA MAGRI MENDES ANALISTA DO MP BELO HORIZONTE - COMARCA; LAB TECNOLOGIA CONTRA LAVAGEM DINHEIRO 13.011,52 3.903,46 0,00 0,00 0,00 0,00 0,00 1.717,00 18.631,98 2.518,67 2.933,21 0,00 0,00 5.451,88 13.180,10 30/04/2021
707 524700 DENISE RAMOS GUIMARAES OFICIAL DO MP BELO HORIZONTE - COMARCA; BH-07PJ 01 TRIBUNAL JURI-SECRETARIA 6.123,79 612,38 0,00 0,00 0,00 0,00 0,00 1.717,00 8.453,17 890,06 738,32 0,00 0,00 1.628,38 6.824,79 30/04/2021
708 239100 DENISE RIBEIRO DOS SANTOS CAETANO OFICIAL DO MP ITANHANDU - COMARCA; ITANHANDU-PJ-SECRETARIA 12.601,30 3.780,39 0,00 0,00 0,00 0,00 0,00 1.717,00 18.098,69 2.433,35 2.914,30 0,00 0,00 5.347,65 12.751,04 30/04/2021
709 325500 DENISE ROSA TORRES OFICIAL DO MP BELO HORIZONTE - COMARCA; DIRETORIA DE PESSOAL ADMINISTRATIVO - DPAD 10.069,62 3.020,89 0,00 0,00 0,00 0,00 0,00 1.717,00 14.807,51 1.906,76 2.206,17 0,00 0,00 4.112,93 10.694,58 30/04/2021
710 437200 DENISE VIVIANE DOS SANTOS ANALISTA DO MP BELO HORIZONTE - COMARCA; ASSESS TECNICA DA CORREGEDORIA-GERAL DO MP 11.085,56 2.217,11 0,00 0,00 0,00 0,00 0,00 2.870,54 16.173,21 1.940,70 2.150,91 0,00 0,00 4.091,61 12.081,60 30/04/2021
711 267900 DENISIA DE ALMEIDA SALES OFICIAL DO MP BELO HORIZONTE - COMARCA; BH-18PJ DIREITOS HUMANOS-SECRETARIA 9.444,70 2.833,41 0,00 0,00 0,00 0,00 45,02 2.208,12 14.531,25 1.776,77 1.966,37 0,00 0,00 3.743,14 10.788,11 30/04/2021
712 480300 DESIREE ARANTES FERREIRA GOUVEA OFICIAL DO MP PRATÁPOLIS - COMARCA; PRATAPOLIS-PJ-UNPJ 6.123,79 1.224,76 0,00 0,00 0,00 0,00 0,00 1.717,00 9.065,55 988,05 879,78 0,00 0,00 1.867,83 7.197,72 30/04/2021
713 355300 DEYSE CRISTINA MORAIS OFICIAL DO MP PASSOS - COMARCA; PASSOS-PJ-02PJ 9.444,70 1.888,94 0,00 0,00 0,00 0,00 0,00 1.717,00 13.050,64 1.625,66 1.800,33 0,00 0,00 3.425,99 9.624,65 30/04/2021
714 523700 DIANA CAMPOS RESENDE OFICIAL DO MP SÃO JOÃO DEL REI - COMARCA; SAO JOAO DEL REI-PJ-04PJ 7.421,79 3.710,90 0,00 0,00 0,00 0,00 0,00 1.717,00 12.849,69 1.593,51 1.701,78 0,00 0,00 3.295,29 9.554,40 30/04/2021
715 241900 DIANA CARDOSO MARTINS OFICIAL DO MP BELO HORIZONTE - COMARCA; CAO-CRIMINAL 9.146,93 2.744,08 0,00 0,00 0,00 0,00 0,00 1.717,00 13.608,01 1.714,84 1.929,09 0,00 0,00 3.643,93 9.964,08 30/04/2021
716 410100 DIANA GORDILHO SILVEIRA SENA ANALISTA DO MP BELO HORIZONTE - COMARCA; BH-06PJ JUIZO CIVEL-SECRETARIA 13.011,52 2.602,30 0,00 0,00 0,00 0,00 0,00 1.717,00 17.330,82 2.310,49 2.789,06 0,00 0,00 5.099,55 12.231,27 30/04/2021
717 553000 DIANA MARIA MARQUES ANALISTA DO MP BETIM - COMARCA; BETIM-PJ-13PJ 9.146,93 914,69 0,00 0,00 0,00 0,00 0,00 1.717,00 11.778,62 1.422,14 1.454,36 0,00 0,00 2.876,50 8.902,12 30/04/2021
718 520000 DIARLE TOSTE DOS SANTOS ANALISTA DO MP RIO POMBA - COMARCA; RIO POMBA-PJ-UNPJ 10.069,62 1.006,96 0,00 0,00 0,00 0,00 0,00 1.717,00 12.793,58 1.584,53 1.083,82 0,00 0,00 2.668,35 10.125,23 30/04/2021
719 539800 DIEGO CAMARGOS RODRIGUES OFICIAL DO MP CONTAGEM - COMARCA; CONTAGEM-PJ-19PJ 5.930,75 593,08 0,00 0,00 0,00 0,00 0,00 1.717,00 8.240,83 856,09 689,27 0,00 0,00 1.545,36 6.695,47 30/04/2021
720 607300 DIEGO CERVEIRA DE SOUZA ANALISTA DO MP PATOS DE MINAS - COMARCA; COORD REG BACIAS PARACATU,URUCUIA E ABAETE 10.069,62 1.006,96 0,00 0,00 0,00 0,00 0,00 1.717,00 12.793,58 1.584,53 1.740,95 0,00 0,00 3.325,48 9.468,10 30/04/2021
721 446900 DIEGO DE FREITAS OFICIAL DO MP UBERABA - COMARCA; UBERABA-PJ-06PJ 8.170,49 1.634,10 0,00 0,00 0,00 0,00 0,00 1.717,00 11.521,59 1.381,01 1.447,12 0,00 0,00 2.828,13 8.693,46 30/04/2021
722 288800 DILENE NEPOMUCENO ALVES OFICIAL DO MP BELO HORIZONTE - COMARCA; DIRETORIA DE PESSOAL ADMINISTRATIVO - DPAD 10.069,62 3.020,89 0,00 0,00 0,00 0,00 0,00 1.717,00 14.807,51 1.906,76 2.206,17 0,00 0,00 4.112,93 10.694,58 30/04/2021
723 681200 DILLIANY PAULA LOPES SERRANO ASSESSOR PROMOTOR JUSTICA RESPLENDOR - COMARCA; RESPLENDOR-PJ-UNPJ 0,00 0,00 7.187,72 0,00 0,00 0,00 0,00 1.717,00 8.904,72 751,99 1.229,92 0,00 0,00 1.981,91 6.922,81 30/04/2021
724 270101 DILSON DO AMARAL ANALISTA DO MP RIO CASCA - COMARCA; RIO CASCA-PJ-UNPJ 9.146,93 914,69 0,00 0,00 0,00 0,00 0,00 1.717,00 11.778,62 1.422,14 1.506,50 0,00 0,00 2.928,64 8.849,98 30/04/2021
725 466000 DIMITRI GUDE MARCIAL ANALISTA DO MP NANUQUE - COMARCA; NANUQUE-PJ-02PJ 10.069,62 1.006,96 0,00 0,00 0,00 0,00 0,00 2.486,39 13.562,97 1.584,53 1.636,68 0,00 0,00 3.221,21 10.341,76 30/04/2021
726 516300 DINORA APARECIDA MACEDO BRANDAO ANALISTA DO MP BELO HORIZONTE - COMARCA; BH-19PJ SAUDE-SECRETARIA 150PJ 9.444,70 944,47 0,00 0,00 0,00 0,00 0,00 1.717,00 12.106,17 1.474,54 1.582,16 0,00 0,00 3.056,70 9.049,47 30/04/2021
727 511700 DIOGENES HENRIQUES PEREIRA LOURENCO ANALISTA DO MP CONTAGEM - COMARCA; CONTAGEM-PJ-25PJ 10.069,62 1.006,96 0,00 0,00 0,00 0,00 0,00 1.717,00 12.793,58 1.584,53 1.740,95 0,00 0,00 3.325,48 9.468,10 30/04/2021
728 604100 DIOGO CESAR DE OLIVEIRA HONORIO ASSESSOR PIUMHI - COMARCA; PIUMHI-PJ-02PJ 0,00 0,00 5.136,32 0,00 0,00 0,00 0,00 1.717,00 6.853,32 738,09 669,60 0,00 0,00 1.407,69 5.445,63 30/04/2021
729 387800 DIOGO FELIX DA SILVA OFICIAL DO MP CONSELHEIRO PENA - COMARCA; CONSELHEIRO PENA-PJ-01PJ 8.170,49 1.634,10 0,00 0,00 0,00 0,00 0,00 2.590,16 12.394,75 1.381,01 1.447,12 0,00 0,00 2.828,13 9.566,62 30/04/2021
730 259600 DIOGO MESQUITA MAIA ANALISTA DO MP BELO HORIZONTE - COMARCA; DIRET DE APOIO AS PROCURADORIAS DE JUSTICA 16.750,82 13.400,66 0,00 0,00 0,00 4.636,51 442,22 6.541,24 41.771,45 4.636,51 7.370,16 0,00 0,00 12.006,67 29.764,78 30/04/2021
731 386700 DIRCIMAR FERNANDES CARNEIRO OFICIAL DO MP VISCONDE DO RIO BRANCO - COMARCA; VISCONDE DO RIO BRANCO-PJ-03PJ 8.858,43 6.200,90 0,00 0,00 0,00 0,00 0,00 1.743,56 16.802,89 2.221,77 2.660,97 0,00 0,00 4.882,74 11.920,15 30/04/2021
732 113800 DIRSON APARECIDO GUIMARAES ASSESSOR BELO HORIZONTE - COMARCA; DIVISAO DE MANUTENCAO PREDIAL 0,00 4.622,69 5.136,32 0,00 0,00 0,00 0,00 1.717,00 11.476,01 751,99 1.937,02 0,00 0,00 2.689,01 8.787,00 30/04/2021
733 216700 DOMICIO VALDETE PEREIRA OFICIAL DO MP TEÓFILO OTONI - COMARCA; COORD REG PJ DEF EDU DIR CRIAN ADOL JEQUI MUC 14.790,66 5.916,26 0,00 0,00 0,00 0,00 303,70 5.030,11 26.040,73 3.125,38 3.861,29 0,00 0,00 6.986,67 19.054,06 30/04/2021
734 192701 DONIZETTI APARECIDO AMORIM ANALISTA DO MP PRATÁPOLIS - COMARCA; PRATAPOLIS-PJ-UNPJ 9.752,14 3.900,86 0,00 0,00 0,00 0,00 0,00 1.717,00 15.370,00 1.996,76 2.283,97 0,00 0,00 4.280,73 11.089,27 30/04/2021
735 558700 DORCILIA FATIMA DE OLIVEIRA OFICIAL DO MP DIVINÓPOLIS - COMARCA; DIVINOPOLIS-PJ-02PJ 5.930,75 593,08 0,00 0,00 0,00 0,00 0,00 1.717,00 8.240,83 856,09 637,13 0,00 0,00 1.493,22 6.747,61 30/04/2021
736 555300 DOUGLAS CUNHA DE SOUZA ANALISTA DO MP VARZEA DA PALMA - COMARCA; VARZEA DA PALMA-PJ-01PJ 9.146,93 914,69 0,00 0,00 0,00 0,00 516,50 7.351,51 17.929,63 1.422,14 1.506,50 0,00 0,00 2.928,64 15.000,99 30/04/2021
737 265900 DOUGLAS GOMES MOREIRA ANALISTA DO MP BELO HORIZONTE - COMARCA; CENTRAL DE APOIO TECNICO-SETOR DE ENGENHARIA 18.820,14 5.646,04 0,00 0,00 0,00 0,00 0,00 1.717,00 26.183,18 3.726,87 4.833,95 0,00 0,00 8.560,82 17.622,36 30/04/2021
738 241000 DOUGLAS MEIRELLES DE CASTRO OFICIAL DO MP CONCEIÇÃO DO RIO VERDE - COMARCA; CONCEICAO DO RIO VERDE-PJ-UNPJ 12.601,30 5.040,52 0,00 0,00 0,00 0,00 0,00 1.717,00 19.358,82 2.634,97 3.153,25 0,00 0,00 5.788,22 13.570,60 30/04/2021
739 534900 DOUGLAS SILVA E SOUZA ANALISTA DO MP CAMPOS GERAIS - COMARCA; CAMPOS GERAIS-PJ-UNPJ 9.146,93 914,69 0,00 0,00 0,00 0,00 0,00 1.717,00 11.778,62 1.422,14 1.454,36 0,00 0,00 2.876,50 8.902,12 30/04/2021
740 638900 DOUGLAS WALLAS CONCEICAO NEVES OFICIAL DO MP RIBEIRÃO DAS NEVES - COMARCA; RIBEIRAO DAS NEVES-PJ-SEC CIVEL 4.817,57 481,76 0,00 0,00 0,00 0,00 0,00 1.717,00 7.016,33 665,84 406,41 0,00 0,00 1.072,25 5.944,08 30/04/2021
741 146800 DUCINALVA AMARAL LOPES REIS OFICIAL DO MP PARAISÓPOLIS - COMARCA; PARAISOPOLIS-PJ-UNPJ 18.820,14 13.174,10 0,00 0,00 0,00 4.931,36 0,00 1.717,00 38.642,60 4.931,36 7.824,78 0,00 0,00 12.756,14 25.886,46 30/04/2021
742 122500 DUILIO CARLOS FERREIRA UTSCH OFICIAL DO MP CONCEIÇÃO DO MATO DENTRO - COMARCA; CONCEICAO DO MATO DENTRO-PJ-UNPJ 14.790,66 11.832,53 0,00 0,00 0,00 4.071,99 488,09 7.041,64 38.224,91 4.071,99 6.452,02 0,00 0,00 10.524,01 27.700,90 30/04/2021
743 201800 DULCINEIA ANDRE DE SOUZA OFICIAL DO MP JEQUITINHONHA - COMARCA; JEQUITINHONHA-PJ-SECRETARIA 14.790,66 5.916,26 0,00 0,00 0,00 0,00 0,00 1.717,00 22.423,92 3.125,38 3.757,01 0,00 0,00 6.882,39 15.541,53 30/04/2021
744 395800 DUVIDIER MEDIRCIO JUNIOR ANALISTA DO MP BELO HORIZONTE - COMARCA; CENTRAL DE APOIO TECNICO-SETOR DE ENGENHARIA 14.324,23 2.864,85 0,00 0,00 0,00 0,00 63,03 2.404,56 19.656,67 2.562,53 3.152,94 0,00 0,00 5.715,47 13.941,20 30/04/2021
745 604800 ECIA RAMILIS ISSA DE ABREU ANALISTA DO MP BRASÍLIA DE MINAS - COMARCA; BRASILIA DE MINAS-PJ-01PJ 9.146,93 914,69 0,00 0,00 0,00 0,00 0,00 1.717,00 11.778,62 1.422,14 1.506,50 0,00 0,00 2.928,64 8.849,98 30/04/2021
746 273000 EDELFINA APARECIDA GUIMARAES OFICIAL DO MP CACHOEIRA DE MINAS - COMARCA; CACHOEIRA DE MINAS-PJ-UNPJ 10.069,62 7.048,73 0,00 0,00 0,00 0,00 0,00 1.717,00 18.835,35 2.551,21 3.084,47 0,00 0,00 5.635,68 13.199,67 30/04/2021
747 523300 EDER DOS SANTOS PATRICIO ANALISTA DO MP NOVA SERRANA - COMARCA; NOVA SERRANA-PJ-03PJ 10.069,62 1.006,96 0,00 0,00 0,00 0,00 0,00 2.486,39 13.562,97 1.584,53 1.740,95 0,00 0,00 3.325,48 10.237,49 30/04/2021
748 356700 EDER JOSE PACHECO OFICIAL DO MP CAMPO BELO - COMARCA; CAMPO BELO-PJ-SECRETARIA 9.146,93 1.829,39 0,00 0,00 0,00 0,00 0,00 2.486,39 13.462,71 1.568,49 1.613,52 0,00 0,00 3.182,01 10.280,70 30/04/2021
749 507900 EDERSON SILVA LOPES OFICIAL DO MP BELO HORIZONTE - COMARCA; LABORATORIO TECNOLOGIA INTELIGENCIA 6.123,79 612,38 0,00 0,00 0,00 0,00 0,00 1.717,00 8.453,17 890,06 634,05 0,00 0,00 1.524,11 6.929,06 30/04/2021
750 296200 EDGARD GOULART MATOSINHO DE LAET JR ANALISTA DO MP GOVERNADOR VALADARES - COMARCA; GAECO REGIONAL DE GOVERNADOR VALADARES 16.750,82 5.025,25 0,00 0,00 0,00 0,00 0,00 1.717,00 23.493,07 3.296,45 4.108,26 0,00 0,00 7.404,71 16.088,36 30/04/2021
751 295000 EDILA MARIA DA SILVEIRA OFICIAL DO MP FORMIGA - COMARCA; FORMIGA-PJ-01PJ 8.858,43 2.657,53 0,00 0,00 0,00 0,00 0,00 1.717,00 13.232,96 1.654,83 1.842,45 0,00 0,00 3.497,28 9.735,68 30/04/2021
752 332300 EDILA MARILAC MIRANDA PRADO OFICIAL DO MP DIAMANTINA - COMARCA; DIAMANTINA-PJ-01PJ 10.069,62 5.034,81 0,00 0,00 0,00 0,00 0,00 3.255,78 18.360,21 2.228,99 2.567,11 0,00 0,00 4.796,10 13.564,11 30/04/2021
753 376600 EDILANE CONSOLACAO ROSA NAZARETH ANALISTA DO MP BETIM - COMARCA; BETIM-PJ-10PJ 14.324,23 2.864,85 0,00 0,00 0,00 0,00 0,00 1.717,00 18.906,08 2.562,53 3.152,94 0,00 0,00 5.715,47 13.190,61 30/04/2021
754 301500 EDILENE APARECIDA DE CARVALHO ANALISTA DO MP BELO HORIZONTE - COMARCA; CENTRAL DE APOIO TECNICO-SETOR CONTABIL 16.750,82 5.025,25 0,00 0,00 0,00 0,00 0,00 1.717,00 23.493,07 3.296,45 4.160,40 0,00 0,00 7.456,85 16.036,22 30/04/2021
755 309800 EDILZA DOS REIS OFICIAL DO MP UBERLÂNDIA - COMARCA; UBERLANDIA-PJ-03PJ 10.069,62 3.020,89 0,00 0,00 0,00 0,00 0,00 1.717,00 14.807,51 1.906,76 2.206,17 0,00 0,00 4.112,93 10.694,58 30/04/2021
756 200500 EDINEIA MARIA DE OLIVEIRA ANTUNES OFICIAL DO MP MONTES CLAROS - COMARCA; MONTES CLAROS-PJ-10PJ 14.790,66 5.916,26 0,00 0,00 0,00 0,00 531,48 7.514,94 28.753,34 3.125,38 3.965,56 0,00 0,00 7.090,94 21.662,40 30/04/2021
757 427700 EDISANGELA SOARES LOPES OFICIAL DO MP PIRAPORA - COMARCA; PIRAPORA-PJ-02PJ 6.123,79 1.224,76 0,00 0,00 0,00 0,00 0,00 1.717,00 9.065,55 988,05 879,78 0,00 0,00 1.867,83 7.197,72 30/04/2021
758 555400 EDISON MONTEIRO SAMPAIO NETO ANALISTA DO MP BELO HORIZONTE - COMARCA; BH-12PJ JUIZO CRIMINAL-GAB 094PJ 9.146,93 914,69 0,00 0,00 0,00 0,00 0,00 1.717,00 11.778,62 1.422,14 1.506,50 0,00 0,00 2.928,64 8.849,98 30/04/2021
759 517700 EDMILSON TADEU FERNANDES OFICIAL DO MP POUSO ALEGRE - COMARCA; GAECO REGIONAL DE POUSO ALEGRE 6.741,63 674,16 0,00 0,00 0,00 0,00 0,00 1.717,00 9.132,79 998,80 895,31 0,00 0,00 1.894,11 7.238,68 30/04/2021
760 358400 EDNA APARECIDA SILVA FERREIRA OFICIAL DO MP CORONEL FABRICIANO - COMARCA; CORONEL FABRICIANO-PJ-02PJ 9.146,93 1.829,39 0,00 0,00 0,00 0,00 0,00 1.717,00 12.693,32 1.568,49 1.613,52 0,00 0,00 3.182,01 9.511,31 30/04/2021
761 331800 EDNA MARCIA CAMILO DA SILVA OFICIAL DO MP SETE LAGOAS - COMARCA; SETE LAGOAS-PJ-SEC CRIMINAIS 10.069,62 3.020,89 0,00 0,00 0,00 0,00 0,00 1.717,00 14.807,51 1.906,76 2.154,03 0,00 0,00 4.060,79 10.746,72 30/04/2021
762 327900 EDRIEL SANTANA PEREIRA OFICIAL DO MP TUPACIGUARA - COMARCA; TUPACIGUARA-PJ-UNPJ 10.069,62 3.020,89 0,00 0,00 0,00 0,00 0,00 2.588,39 15.678,90 1.906,76 2.206,17 0,00 0,00 4.112,93 11.565,97 30/04/2021
763 482400 EDSON GARCIA OFICIAL DO MP MACHADO - COMARCA; MACHADO-PJ-02PJ 5.562,64 556,26 0,00 0,00 0,00 0,00 0,00 1.717,00 7.835,90 792,88 491,02 0,00 0,00 1.283,90 6.552,00 30/04/2021
764 225601 EDSON LABRE FILHO ANALISTA DO MP VARGINHA - COMARCA; VARGINHA-PJ-01PJ 16.750,82 5.025,25 0,00 0,00 0,00 0,00 479,07 6.943,26 29.198,40 3.296,45 4.160,40 0,00 0,00 7.456,85 21.741,55 30/04/2021
765 602700 EDSON NOGUEIRA BUENO OFICIAL DO MP PITANGUI - COMARCA; PITANGUI-PJ-02PJ 5.387,19 538,72 0,00 0,00 0,00 0,00 0,00 1.717,00 7.642,91 762,96 550,45 0,00 0,00 1.313,41 6.329,50 30/04/2021
766 414400 EDUARDO ABRANTES CAMPOS ANALISTA DO MP SÃO JOÃO DEL REI - COMARCA; SAO JOAO DEL REI-PJ-02PJ 13.011,52 2.602,30 0,00 0,00 0,00 0,00 0,00 1.717,00 17.330,82 2.310,49 2.789,06 0,00 0,00 5.099,55 12.231,27 30/04/2021
767 476800 EDUARDO ALVES DE MOURA ANALISTA DO MP UBERLÂNDIA - COMARCA; UBERLANDIA-PJ-02PJ 10.069,62 2.013,92 0,00 0,00 0,00 0,00 0,00 2.486,39 14.569,93 1.745,64 1.817,15 0,00 0,00 3.562,79 11.007,14 30/04/2021
768 390800 EDUARDO AMORIM PETTERSEN OFICIAL DO MP CARANGOLA - COMARCA; CARANGOLA-PJ-SECRETARIA 8.579,10 1.715,82 0,00 0,00 0,00 0,00 0,00 2.486,39 12.781,31 1.459,46 1.560,39 0,00 0,00 3.019,85 9.761,46 30/04/2021
769 461600 EDUARDO ANTONIO DE ASSIS FARIA ASSESSOR BELO HORIZONTE - COMARCA; ASSESS EXECUTIVA DO CONSELHO SUPERIOR DO MP 0,00 0,00 8.170,49 0,00 0,00 0,00 0,00 2.486,39 10.656,88 751,99 1.395,90 0,00 0,00 2.147,89 8.508,99 30/04/2021
770 248800 EDUARDO DE CASTRO AMORIM ANALISTA DO MP BELO HORIZONTE - COMARCA; SUPERINTENDENCIA DE RECURSOS HUMANOS 18.820,14 5.646,04 0,00 0,00 0,00 0,00 0,00 1.717,00 26.183,18 3.726,87 4.833,95 0,00 0,00 8.560,82 17.622,36 30/04/2021
771 209100 EDUARDO DE SOUZA MAIA ANALISTA DO MP BELO HORIZONTE - COMARCA; SUPERINTENDENCIA DE RECURSOS HUMANOS 18.820,14 7.528,06 0,00 0,00 0,00 0,00 0,00 1.717,00 28.065,20 4.027,99 5.112,29 0,00 0,00 9.140,28 18.924,92 30/04/2021
772 633900 EDUARDO GONCALVES PIRES OFICIAL DO MP BELO HORIZONTE - COMARCA; DIRETORIA DE PAGAMENTO DE PESSOAL-DPAG 5.743,70 1.723,11 0,00 0,00 0,00 0,00 0,00 1.717,00 9.183,81 1.006,97 907,10 0,00 0,00 1.914,07 7.269,74 30/04/2021
773 350500 EDUARDO GONCALVES RIBEIRO OFICIAL DO MP VESPASIANO - COMARCA; VESPASIANO-PJ-04PJ 8.858,43 1.771,69 0,00 0,00 0,00 0,00 0,00 1.717,00 12.347,12 1.513,10 1.637,82 0,00 0,00 3.150,92 9.196,20 30/04/2021
774 115800 EDUARDO HENRIQUE DE CAMPOS MAIA OFICIAL DO MP BELO HORIZONTE - COMARCA; DIV FISCAL ADM CONT TERCEIRIZACAO 16.750,82 8.375,41 0,00 0,00 0,00 0,00 460,65 6.742,25 32.329,13 3.832,47 4.830,01 0,00 0,00 8.662,48 23.666,65 30/04/2021
775 392600 EDUARDO HENRIQUE DOS SANTOS COSTA ELIAZAR OFICIAL DO MP MATOZINHOS - COMARCA; MATOZINHOS-PJ-01PJ 7.912,85 1.582,57 0,00 0,00 0,00 0,00 0,00 1.717,00 11.212,42 1.331,54 1.219,30 0,00 0,00 2.550,84 8.661,58 30/04/2021
776 99101 EDUARDO JOSE DE FREITAS NUNES ASSESSOR PROCURADOR JUSTICA BELO HORIZONTE - COMARCA; ASSESS TECNICO-JUR JUNTO AS PROC. DE JUST 0,00 0,00 7.187,72 0,00 0,00 0,00 0,00 1.717,00 8.904,72 751,99 1.229,92 0,00 0,00 1.981,91 6.922,81 30/04/2021
777 407500 EDUARDO MASCARENHAS CURI AZEVEDO COORDENADOR/ANALISTA BELO HORIZONTE - COMARCA; CENTRO JORNALISMO 0,00 2.687,03 13.435,16 0,00 0,00 0,00 0,00 2.486,39 18.608,58 1.745,64 3.084,19 0,00 0,00 4.829,83 13.778,75 30/04/2021
778 601300 EDUARDO TRAD VIEIRA OFICIAL DO MP SILVIANÓPOLIS - COMARCA; SILVIANOPOLIS-PJ-UNPJ 5.387,19 538,72 0,00 0,00 0,00 0,00 0,00 1.717,00 7.642,91 762,96 550,45 0,00 0,00 1.313,41 6.329,50 30/04/2021
779 257600 EDUARDO VALADARES CABRAL ANALISTA DO MP BELO HORIZONTE - COMARCA; COORD DE INCLUSAO E MOBILIZACAO SOCIAIS 14.790,66 4.437,20 0,00 0,00 0,00 0,00 0,00 1.717,00 20.944,86 2.888,73 3.623,90 0,00 0,00 6.512,63 14.432,23 30/04/2021
780 545700 EDVAIR FERREIRA DE CARVALHO OFICIAL DO MP ARAGUARI - COMARCA; ARAGUARI-PJ-06PJ 5.387,19 538,72 0,00 0,00 0,00 0,00 0,00 1.717,00 7.642,91 762,96 498,31 0,00 0,00 1.261,27 6.381,64 30/04/2021
781 401700 EDWANIA AMORIM DO CARMO OFICIAL DO MP RIBEIRÃO DAS NEVES - COMARCA; RIBEIRAO DAS NEVES-PJ-03PJ 8.858,43 1.771,69 0,00 0,00 0,00 0,00 0,00 1.717,00 12.347,12 1.513,10 1.637,82 0,00 0,00 3.150,92 9.196,20 30/04/2021
782 303600 EFIGENIO SARAIVA LOPES ANALISTA DO MP BELO HORIZONTE - COMARCA; DIRETORIA DE PAGAMENTO DE PESSOAL-DPAG 18.820,14 5.646,04 0,00 0,00 0,00 0,00 538,26 7.588,88 32.593,32 3.726,87 4.729,68 0,00 0,00 8.456,55 24.136,77 30/04/2021
783 286000 ELAINE APARECIDA SILVA BERZOINI OFICIAL DO MP JUIZ DE FORA - COMARCA; JUIZ DE FORA-PJ-14PJ 10.069,62 3.020,89 0,00 0,00 0,00 0,00 0,00 1.717,00 14.807,51 1.906,76 2.206,17 0,00 0,00 4.112,93 10.694,58 30/04/2021
784 509000 ELAINE CANDIDA PONTES OFICIAL DO MP BELO HORIZONTE - COMARCA; BH-02PJ FAMILIA-SECRETARIA 7.421,79 742,18 0,00 0,00 0,00 0,00 0,00 1.717,00 9.880,97 1.118,51 1.068,14 0,00 0,00 2.186,65 7.694,32 30/04/2021
785 283601 ELAINE CRISTINA MEQUELINO DUARTE ANALISTA DO MP ALFENAS - COMARCA; ALFENAS-PJ-02PJ 14.324,23 2.864,85 0,00 0,00 0,00 0,00 63,03 2.404,56 19.656,67 2.562,53 3.048,67 0,00 0,00 5.611,20 14.045,47 30/04/2021
786 535500 ELAINE DE OLIVEIRA CAMPOS REIS OFICIAL DO MP RIBEIRÃO DAS NEVES - COMARCA; RIBEIRAO NEVES-SEC PJ EXECUCAO PENAL 5.930,75 593,08 0,00 0,00 0,00 0,00 0,00 1.717,00 8.240,83 856,09 689,27 0,00 0,00 1.545,36 6.695,47 30/04/2021
787 455700 ELAINE DE OLIVEIRA CASTRO ANALISTA DO MP POMPÉU - COMARCA; POMPEU-PJ-UNPJ 10.069,62 2.013,92 0,00 0,00 0,00 0,00 0,00 1.717,00 13.800,54 1.745,64 1.921,43 0,00 0,00 3.667,07 10.133,47 30/04/2021
788 367200 ELAINE MUNIZ BARBOSA ANALISTA DO MP BELO HORIZONTE - COMARCA; DIRETORIA DE SISTEMAS DE INFORMACAO 14.790,66 2.958,13 0,00 0,00 0,00 0,00 0,00 2.486,39 20.235,18 2.652,08 3.230,10 0,00 0,00 5.882,18 14.353,00 30/04/2021
789 679200 ELAINE RIBEIRO CHAVES ASSESSOR PROCURADOR JUSTICA BELO HORIZONTE - COMARCA; GABINETE DE PROCURADOR DE JUSTIÇA - SALA 614 0,00 0,00 7.187,72 0,00 0,00 0,00 0,00 1.717,00 8.904,72 751,99 1.229,92 0,00 0,00 1.981,91 6.922,81 30/04/2021
790 176900 ELAINE RIBEIRO TAVEIRA OFICIAL DO MP BELO HORIZONTE - COMARCA; DIRETORIA DE PESSOAL ADMINISTRATIVO - DPAD 13.011,52 5.204,61 0,00 0,00 0,00 0,00 66,79 2.445,65 20.728,57 2.726,86 3.390,19 0,00 0,00 6.117,05 14.611,52 30/04/2021
791 496200 ELAINE SABRINA MOREIRA SCHUWARTEN ANALISTA DO MP CORONEL FABRICIANO - COMARCA; CORONEL FABRICIANO-PJ-04PJ 10.069,62 1.006,96 0,00 0,00 0,00 0,00 0,00 1.717,00 12.793,58 1.584,53 1.740,95 0,00 0,00 3.325,48 9.468,10 30/04/2021
792 489200 ELAINE VICENTINO GARCIA ANALISTA DO MP BELO HORIZONTE - COMARCA; CENTRAL DE APOIO TECNICO-SETOR CONTABIL 10.069,62 3.020,89 0,00 0,00 0,00 0,00 0,00 1.717,00 14.807,51 1.906,76 2.101,90 0,00 0,00 4.008,66 10.798,85 30/04/2021
793 244500 ELCI ALVES DE SOUZA ASSESSOR BELO HORIZONTE - COMARCA; CAO-CONFLITOS AGRARIOS-SECRETARIA 0,00 1.540,90 5.136,32 0,00 0,00 0,00 0,00 1.717,00 8.394,22 751,99 1.037,39 0,00 0,00 1.789,38 6.604,84 30/04/2021
794 472500 ELCI VAZ DE OLIVEIRA FILHO ANALISTA DO MP PIUMHI - COMARCA; PIUMHI-PJ-02PJ 10.069,62 5.034,81 0,00 0,00 5.034,81 0,00 0,00 1.717,00 21.856,24 2.228,99 4.055,96 0,00 0,00 6.284,95 15.571,29 30/04/2021
795 385200 ELCI VIANA REIS OFICIAL DO MP RIO PARDO DE MINAS - COMARCA; RIO PARDO DE MINAS-PJ-SECRETARIA 8.858,43 3.543,37 0,00 0,00 0,00 0,00 0,00 1.717,00 14.118,80 1.796,57 2.047,08 0,00 0,00 3.843,65 10.275,15 30/04/2021
796 289801 ELCIO JOSE DOS SANTOS ASSESSOR/ANALISTA BELO HORIZONTE - COMARCA; DIVISAO DE SERVICOS 0,00 2.520,26 12.601,30 0,00 0,00 0,00 388,12 5.951,04 21.460,72 1.745,64 2.809,02 0,00 0,00 4.554,66 16.906,06 30/04/2021
797 319600 ELEN TULER DE ALBERGARIA ANALISTA DO MP BELO HORIZONTE - COMARCA; BH-19PJ SAUDE-SECRETARIA 130PJ 13.872,60 5.549,04 0,00 0,00 0,00 0,00 0,00 1.717,00 21.138,64 2.919,74 3.668,66 0,00 0,00 6.588,40 14.550,24 30/04/2021
798 151000 ELI LOURENCO RIBEIRO AGENTE DO MP BELO HORIZONTE - COMARCA; BH-19PJ SAUDE-SECRETARIA 130PJ 11.085,56 5.542,78 0,00 0,00 0,00 0,00 0,00 1.717,00 18.345,34 2.472,81 2.411,15 0,00 0,00 4.883,96 13.461,38 30/04/2021
799 205500 ELIANA ALVES DE SOUSA OFICIAL DO MP GOVERNADOR VALADARES - COMARCA; GOVERNADOR VALADARES-PJ-07PJ 10.069,62 4.027,85 0,00 0,00 0,00 0,00 0,00 1.717,00 15.814,47 2.067,87 2.438,78 0,00 0,00 4.506,65 11.307,82 30/04/2021
800 628800 ELIANA APARECIDA PEREIRA ANALISTA DO MP CAMBUÍ - COMARCA; CAMBUI-PJ-02PJ 7.663,37 766,34 0,00 0,00 0,00 0,00 0,00 1.717,00 10.146,71 1.161,03 1.077,39 0,00 0,00 2.238,42 7.908,29 30/04/2021
801 301700 ELIANA DA SILVEIRA ANALISTA DO MP BELO HORIZONTE - COMARCA; BH-13ª PJ JUÍZO DE TÓXICOS-SECRETARIA 15.272,02 4.581,61 0,00 0,00 0,00 0,00 0,00 1.717,00 21.570,63 2.988,86 3.768,45 0,00 0,00 6.757,31 14.813,32 30/04/2021
802 251500 ELIANA DE LIMA MILAGRES FONSECA ANALISTA DO MP CONTAGEM - COMARCA; CONTAGEM-PJ-16PJ 15.272,02 4.581,61 0,00 0,00 0,00 0,00 291,19 4.893,58 25.038,40 2.988,86 3.664,18 0,00 0,00 6.653,04 18.385,36 30/04/2021
803 503900 ELIANA DIAS DUTRA FERREIRA OFICIAL DO MP GOVERNADOR VALADARES - COMARCA; GOVERNADOR VALADARES-PJ-10PJ 7.663,37 766,34 0,00 0,00 0,00 0,00 0,00 0,00 8.429,71 1.161,03 1.025,25 0,00 0,00 2.186,28 6.243,43 30/04/2021
804 413900 ELIANA PINTO DE OLIVEIRA NEVES ANALISTA DO MP CAMPO BELO - COMARCA; CAMPO BELO-PJ-04PJ 12.601,30 2.520,26 0,00 0,00 0,00 0,00 0,00 1.717,00 16.838,56 2.231,73 2.675,34 0,00 0,00 4.907,07 11.931,49 30/04/2021
805 228200 ELIANA RODRIGUES DA CUNHA PINHEIRO OFICIAL DO MP BELO HORIZONTE - COMARCA; DIRETORIA DE PROJETOS DE EDIFICACOES 12.601,30 3.780,39 0,00 0,00 0,00 2.433,35 0,00 1.717,00 20.532,04 2.433,35 3.635,60 0,00 0,00 6.068,95 14.463,09 30/04/2021
806 386600 ELIANA SABINO CHAVES PESSOA ANALISTA DO MP CARATINGA - COMARCA; CARATINGA-PJ-06PJ 13.011,52 9.108,06 0,00 0,00 0,00 0,00 486,63 7.025,70 29.631,91 3.351,41 4.239,75 0,00 0,00 7.591,16 22.040,75 30/04/2021
807 677500 ELIANA SILVA ANDRADE ASSESSOR PROMOTOR JUSTICA TRÊS CORACOES - COMARCA; TRES CORACOES-PJ-06PJ 0,00 0,00 7.187,72 0,00 0,00 0,00 0,00 1.717,00 8.904,72 751,99 1.229,92 0,00 0,00 1.981,91 6.922,81 30/04/2021
808 297400 ELIANE AUGUSTA RIBEIRO COSTA ANALISTA DO MP CONSELHEIRO LAFAIETE - COMARCA; CONSELHEIRO LAFAIETE-PJ-05PJ 17.413,92 5.224,18 0,00 0,00 0,00 0,00 498,04 7.150,14 30.286,28 3.434,37 4.307,39 0,00 0,00 7.741,76 22.544,52 30/04/2021
809 510600 ELIANE CAROLINA MAIA ANALISTA DO MP IGARAPÉ - COMARCA; IGARAPE-PJ-03PJ 10.069,62 1.006,96 0,00 0,00 0,00 0,00 0,00 1.717,00 12.793,58 1.584,53 1.584,54 0,00 0,00 3.169,07 9.624,51 30/04/2021
810 262600 ELIANE FERREIRA SOARES ASSESSOR BELO HORIZONTE - COMARCA; BH-18PJ DIREITOS HUMANOS-SECRETARIA 0,00 1.230,51 3.076,28 0,00 4.594,15 0,00 1.936,34 15.499,46 26.336,74 751,99 1.833,98 0,00 0,00 2.585,97 23.750,77 30/04/2021
811 204400 ELIANE GLAUCE DE QUEIROS MAIA OFICIAL DO MP GUANHÃES - COMARCA; GUANHAES-PJ-02PJ 14.790,66 5.916,26 0,00 0,00 0,00 0,00 0,00 1.717,00 22.423,92 3.125,38 3.965,56 0,00 0,00 7.090,94 15.332,98 30/04/2021
812 91800 ELIANE KAPLER ALVES OFICIAL DO MP BELO HORIZONTE - COMARCA; DIVISAO DE CONTROLE IMOBILIARIO 18.820,14 9.410,07 0,00 0,00 0,00 0,00 517,55 7.363,04 36.110,80 4.329,11 5.599,17 0,00 0,00 9.928,28 26.182,52 30/04/2021
813 334200 ELIANE MARCIA DE OLIVEIRA BRITO OFICIAL DO MP BELO HORIZONTE - COMARCA; BH-08PJ JUIZADO ESPECIAL-SECRETARIA 6.123,79 1.837,14 0,00 0,00 0,00 0,00 0,00 1.717,00 9.677,93 1.086,03 1.021,24 0,00 0,00 2.107,27 7.570,66 30/04/2021
814 365900 ELIANE MARIA DE OLIVEIRA FERREIRA OFICIAL DO MP SETE LAGOAS - COMARCA; SETE LAGOAS-PJ-SEC CRIMINAIS 10.069,62 5.034,81 0,00 0,00 0,00 0,00 0,00 1.717,00 16.821,43 2.228,99 2.671,39 0,00 0,00 4.900,38 11.921,05 30/04/2021
815 320600 ELIANE STADLER DE SOUZA OFICIAL DO MP FRANCISCO SÁ - COMARCA; FRANCISCO SA-PJ-SECRETARIA 9.146,93 2.744,08 0,00 0,00 0,00 0,00 0,00 1.717,00 13.608,01 1.714,84 1.876,95 0,00 0,00 3.591,79 10.016,22 30/04/2021
816 448900 ELIAS PEREIRA OTONI ASSESSOR BELO HORIZONTE - COMARCA; BH-18PJ DIREITOS HUMANOS-SECRETARIA 0,00 0,00 3.076,28 0,00 0,00 0,00 711,81 4.798,79 8.586,88 516,98 232,10 0,00 0,00 749,08 7.837,80 30/04/2021
817 495400 ELICA SOUZA GASPARONI MATTOS OFICIAL DO MP UBÁ - COMARCA; UBA-PJ-06PJ 7.663,37 766,34 0,00 0,00 0,00 0,00 0,00 1.717,00 10.146,71 1.161,03 1.129,53 0,00 0,00 2.290,56 7.856,15 30/04/2021
818 86600 ELIENE FERREIRA DA SILVA OFICIAL DO MP BELO HORIZONTE - COMARCA; BH-22PJ PES COM DEF E IDOSOS-SECRETARIA 21.145,12 14.801,58 0,00 0,00 0,00 5.486,23 520,11 7.390,95 49.343,99 5.486,23 8.726,34 484,48 0,00 14.697,05 34.646,94 30/04/2021
819 183800 ELIENE MARIA CUNHA OFICIAL DO MP BELO HORIZONTE - COMARCA; DIRETORIA DE PESSOAL ADMINISTRATIVO - DPAD 15.272,02 6.108,81 0,00 0,00 0,00 0,00 313,59 5.137,93 26.832,35 3.233,21 4.069,10 0,00 0,00 7.302,31 19.530,04 30/04/2021
820 172300 ELINA APARECIDA SILVA ASSESSOR BELO HORIZONTE - COMARCA; BH-19PJ SAUDE-SECRETARIA 130PJ 0,00 1.230,51 3.076,28 0,00 0,00 0,00 0,00 1.717,00 6.023,79 621,96 377,19 0,00 0,00 999,15 5.024,64 30/04/2021
821 492501 ELINE CAMPOS DA FONSECA CUNHA ANALISTA DO MP PONTE NOVA - COMARCA; PONTE NOVA-PJ-02PJ 9.146,93 914,69 0,00 0,00 0,00 0,00 0,00 1.717,00 11.778,62 1.422,14 1.506,50 0,00 0,00 2.928,64 8.849,98 30/04/2021
822 618900 ELISA MOURA VIEIRA MARCATTI OFICIAL DO MP BELO HORIZONTE - COMARCA; BH-23PJ CIVEL-SEC EXP CIVEIS 5.387,19 538,72 0,00 0,00 0,00 0,00 0,00 2.486,39 8.412,30 762,96 550,45 0,00 0,00 1.313,41 7.098,89 30/04/2021
823 256500 ELISABETE NOGUEIRA ANALISTA DO MP RIBEIRÃO DAS NEVES - COMARCA; RIBEIRAO NEVES-SEC PJ EXECUCAO PENAL 14.790,66 7.395,33 0,00 0,00 0,00 0,00 0,00 1.717,00 23.902,99 3.362,04 4.150,81 0,00 0,00 7.512,85 16.390,14 30/04/2021
824 355000 ELISANGELA DARLANTONI RIBEIRO OFICIAL DO MP ARAXÁ - COMARCA; ARAXA-PJ-05PJ 8.579,10 1.715,82 0,00 0,00 0,00 0,00 0,00 1.717,00 12.011,92 1.459,46 1.508,25 0,00 0,00 2.967,71 9.044,21 30/04/2021
825 604400 ELISANGELA DEMASI FERREIRA MOREIRA ANALISTA DO MP CABO VERDE - COMARCA; CABO VERDE-PJ-UNPJ 9.146,93 914,69 0,00 0,00 0,00 0,00 0,00 1.717,00 11.778,62 1.422,14 1.506,50 0,00 0,00 2.928,64 8.849,98 30/04/2021
826 323800 ELISANGELA GONCALVES DE JESUS OFICIAL DO MP BELO HORIZONTE - COMARCA; DIVISAO FROTA 9.444,70 2.833,41 0,00 0,00 0,00 0,00 0,00 1.717,00 13.995,11 1.776,77 1.966,37 0,00 0,00 3.743,14 10.251,97 30/04/2021
827 507400 ELISANGELA MIGUEL DA ROCHA SILVA ASSESSOR BELO HORIZONTE - COMARCA; CGMP-DIVIS DE APOIO FISC ORIENTACAO FUNCIONAL 0,00 0,00 3.076,28 0,00 0,00 0,00 0,00 2.486,39 5.562,67 449,69 190,45 0,00 0,00 640,14 4.922,53 30/04/2021
828 261400 ELISANGELA REZENDE MENDES OFICIAL DO MP POUSO ALEGRE - COMARCA; POUSO ALEGRE-PJ-05PJ 10.069,62 3.020,89 0,00 0,00 0,00 0,00 0,00 1.717,00 14.807,51 1.906,76 2.206,17 0,00 0,00 4.112,93 10.694,58 30/04/2021
829 534100 ELISANGELA ROSINE SILVA OFICIAL DO MP UBERABA - COMARCA; UBERABA-PJ-06PJ 5.387,19 538,72 0,00 0,00 0,00 0,00 0,00 1.717,00 7.642,91 762,96 550,45 0,00 0,00 1.313,41 6.329,50 30/04/2021
830 634300 ELIUDE GRACA DAMASIO ROSARIO FRANCELINO OFICIAL DO MP BELO HORIZONTE - COMARCA; BH-18PJ VIOLENCIA DOMESTICA-SECRETARIA 4.817,57 481,76 0,00 0,00 0,00 0,00 0,00 1.717,00 7.016,33 668,35 405,84 0,00 0,00 1.074,19 5.942,14 30/04/2021
831 461700 ELIZABETH ALEIXO DA PAZ ANALISTA DO MP JUIZ DE FORA - COMARCA; JUIZ DE FORA-PJ-18PJ 10.069,62 2.013,92 0,00 0,00 0,00 0,00 0,00 1.717,00 13.800,54 1.745,64 1.973,56 0,00 0,00 3.719,20 10.081,34 30/04/2021
832 227300 ELIZABETH COIMBRA FELIX ASSESSOR/OFICIAL BELO HORIZONTE - COMARCA; DIRETORIA DE PAGAMENTO DE PESSOAL-DPAG 13.011,52 5.204,61 2.520,26 0,00 0,00 0,00 304,13 5.034,82 26.075,34 2.726,86 3.978,99 0,00 0,00 6.705,85 19.369,49 30/04/2021
833 354800 ELIZABETH DOS REIS OFICIAL DO MP BELO HORIZONTE - COMARCA; DIVISAO DE MATERIAIS 10.069,62 2.013,92 0,00 0,00 0,00 0,00 0,00 1.717,00 13.800,54 1.745,64 1.921,43 0,00 0,00 3.667,07 10.133,47 30/04/2021
834 612000 ELIZABETH MARIA DE QUEIROZ TANIGUCHI OFICIAL DO MP BELO HORIZONTE - COMARCA; SUPERINTENDENCIA DE RECURSOS HUMANOS 4.974,42 497,44 0,00 0,00 0,00 0,00 0,00 1.717,00 7.188,86 694,23 444,49 0,00 0,00 1.138,72 6.050,14 30/04/2021
835 452800 ELIZANGELA MARIA DAVI OFICIAL DO MP ARCOS - COMARCA; ARCOS-PJ-01PJ 6.123,79 1.224,76 0,00 0,00 0,00 0,00 0,00 1.717,00 9.065,55 988,05 827,64 0,00 0,00 1.815,69 7.249,86 30/04/2021
836 496300 ELIZANGELA MARQUES PINTO COELHO OFICIAL DO MP BELO HORIZONTE - COMARCA; DIRETORIA DE PESSOAL ADMINISTRATIVO - DPAD 7.663,37 766,34 0,00 0,00 0,00 0,00 0,00 1.717,00 10.146,71 1.161,03 1.129,53 0,00 0,00 2.290,56 7.856,15 30/04/2021
837 422500 ELIZETE FORTES DA CUNHA ANALISTA DO MP RIBEIRÃO DAS NEVES - COMARCA; RIBEIRAO DAS NEVES-PJ-07PJ 13.011,52 2.602,30 0,00 0,00 0,00 0,00 0,00 1.717,00 17.330,82 2.310,49 2.736,92 0,00 0,00 5.047,41 12.283,41 30/04/2021
838 506100 ELLEM CRISTINA ROCHA FONSECA BOWEN ANALISTA DO MP GOVERNADOR VALADARES - COMARCA; COORD REG PJ DEF EDU DIR CRIANCA ADOL RIODOCE 10.069,62 1.006,96 0,00 0,00 0,00 0,00 0,00 1.717,00 12.793,58 1.584,53 1.740,95 0,00 0,00 3.325,48 9.468,10 30/04/2021
839 468200 ELLEN CRISTINA BERNARDES DARE ANALISTA DO MP TRÊS PONTAS - COMARCA; TRES PONTAS-PJ-02PJ 10.069,62 2.013,92 0,00 0,00 0,00 0,00 0,00 2.486,39 14.569,93 1.745,64 1.921,43 0,00 0,00 3.667,07 10.902,86 30/04/2021
840 418800 ELLEN CRISTINA DE QUEIROZ FERREIRA ANALISTA DO MP BELO HORIZONTE - COMARCA; CENTRAL DE APOIO TECNICO-SETOR CONTABIL 12.601,30 2.520,26 0,00 0,00 0,00 0,00 0,00 2.870,54 17.992,10 2.231,73 2.675,34 0,00 0,00 4.907,07 13.085,03 30/04/2021
841 328401 ELLEN CRISTINA FERREIRA MORAIS MONTEIRO ANALISTA DO MP CAMANDUCAIA - COMARCA; CAMANDUCAIA-PJ-UNPJ 12.601,30 2.520,26 0,00 0,00 0,00 0,00 0,00 1.717,00 16.838,56 2.231,73 2.571,07 0,00 0,00 4.802,80 12.035,76 30/04/2021
842 556100 ELLEN CRISTINE BIANCHIN DA SILVA OFICIAL DO MP SÃO GONÇALO DO SAPUCAÍ - COMARCA; SAO GONCALO DO SAPUCAI-PJ-02PJ 5.387,19 538,72 0,00 0,00 0,00 0,00 0,00 1.717,00 7.642,91 762,96 498,31 0,00 0,00 1.261,27 6.381,64 30/04/2021
843 447100 ELLEN ROSANA DE MACEDO BORGES OFICIAL DO MP UBERLÂNDIA - COMARCA; UBERLANDIA-PJ-17PJ 7.912,85 1.582,57 0,00 0,00 0,00 0,00 0,00 1.717,00 11.212,42 1.331,54 1.375,71 0,00 0,00 2.707,25 8.505,17 30/04/2021
844 477700 ELMA JACOB OFICIAL DO MP BELO HORIZONTE - COMARCA; COORD DE GABINETE DO PGJ 7.663,37 5.364,36 0,00 0,00 0,00 1.896,71 0,00 1.717,00 16.641,44 1.896,71 2.713,27 0,00 0,00 4.609,98 12.031,46 30/04/2021
845 123300 ELMA PAULA DOS SANTOS COELHO OFICIAL DO MP BELO HORIZONTE - COMARCA; BH-19PJ SAUDE-SECRETARIA 130PJ 18.820,14 16.938,13 0,00 0,00 0,00 5.486,23 0,00 1.717,00 42.961,50 5.486,23 8.882,75 296,05 0,00 14.665,03 28.296,47 30/04/2021
846 356500 ELOISA CARDOSO SILVA FRANCA OFICIAL DO MP PEÇANHA - COMARCA; PECANHA-PJ-SECRETARIA 6.123,79 1.224,76 0,00 0,00 0,00 0,00 0,00 1.717,00 9.065,55 988,05 775,50 0,00 0,00 1.763,55 7.302,00 30/04/2021
847 251901 ELOISA COSTA E SILVA ANALISTA DO MP SANTOS DUMONT - COMARCA; SANTOS DUMONT-PJ-02PJ 10.069,62 3.020,89 0,00 0,00 0,00 0,00 0,00 2.486,39 15.576,90 1.906,76 2.154,03 0,00 0,00 4.060,79 11.516,11 30/04/2021
848 400400 ELOIZA MARIA FERRI PIRES DA SILVA OFICIAL DO MP BELO HORIZONTE - COMARCA; ASSESSORIA TECNICA DO PROCON-MG 7.912,85 1.582,57 0,00 0,00 0,00 0,00 0,00 1.717,00 11.212,42 1.331,54 1.323,57 0,00 0,00 2.655,11 8.557,31 30/04/2021
849 258000 ELSO CECIANO PALMEIRA COORDENADOR/OFICIAL BELO HORIZONTE - COMARCA; DIRET DE PESSOAL DO MINISTERIO PUBLICO - DPMP 12.204,02 8.542,81 2.836,60 0,00 0,00 0,00 518,84 7.377,02 31.479,29 3.131,77 4.754,85 0,00 0,00 7.886,62 23.592,67 30/04/2021
850 206900 ELVIRA RITA DOS SANTOS ANALISTA DO MP BELO HORIZONTE - COMARCA; CENTRAL DE APOIO TECNICO-SETOR CONTABIL 18.820,14 7.528,06 0,00 0,00 0,00 4.027,99 0,00 1.717,00 32.093,19 4.027,99 6.376,40 0,00 0,00 10.404,39 21.688,80 30/04/2021
851 506800 ELVIS FERREIRA DA SILVA ANALISTA DO MP BELO HORIZONTE - COMARCA; DIRETORIA DE SISTEMAS DE INFORMACAO 10.069,62 1.006,96 0,00 0,00 0,00 0,00 0,00 2.486,39 13.562,97 1.584,53 1.584,54 0,00 0,00 3.169,07 10.393,90 30/04/2021
852 602400 ELZA MARIA MOREIRA MUNIZ ANALISTA DO MP RIO PARANAÍBA - COMARCA; RIO PARANAIBA-PJ-UNPJ 9.146,93 914,69 0,00 0,00 0,00 0,00 0,00 1.717,00 11.778,62 1.422,14 1.454,36 0,00 0,00 2.876,50 8.902,12 30/04/2021
853 368401 ELZIRA SIMOES DOS SANTOS ASSESSOR BELO HORIZONTE - COMARCA; ASSESSORIA DE COMUNICACAO INTEGRADA 0,00 3.433,94 11.446,46 0,00 0,00 0,00 545,61 7.669,16 23.095,17 751,99 3.345,40 0,00 0,00 4.097,39 18.997,78 30/04/2021
854 437400 EMANOELLE DA SILVA RODRIGUES OFICIAL DO MP UNAÍ - COMARCA; UNAI-PJ-03PJ 7.187,72 1.437,54 0,00 0,00 0,00 0,00 0,00 3.255,78 11.881,04 1.192,32 1.122,56 0,00 0,00 2.314,88 9.566,16 30/04/2021
855 458900 EMANUELLE CONRAD SILVA FREDERICO NAVES ANALISTA DO MP ALFENAS - COMARCA; ALFENAS-PJ-05PJ 12.601,30 2.520,26 0,00 0,00 0,00 0,00 0,00 2.486,39 17.607,95 2.231,73 2.623,21 0,00 0,00 4.854,94 12.753,01 30/04/2021
856 284100 EMERSON MAGNO ALMEIDA PEDROSA DA FONSECA ANALISTA DO MP BELO HORIZONTE - COMARCA; CENTRAL DE APOIO TECNICO-SETOR CONTABIL 17.413,92 5.224,18 0,00 0,00 0,00 0,00 498,04 7.150,14 30.286,28 3.434,37 3.191,32 0,00 0,00 6.625,69 23.660,59 30/04/2021
857 179900 EMERSON MORAIS DIAS OFICIAL DO MP BELO HORIZONTE - COMARCA; SUPERINTENDÊNCIA DE ENGENHARIA E ARQUITETURA 15.272,02 6.108,81 0,00 0,00 0,00 0,00 548,77 7.703,63 29.633,23 3.233,21 4.121,24 0,00 0,00 7.354,45 22.278,78 30/04/2021
858 488700 EMERSON SIQUEIRA DE SOUSA TEIXEIRA ANALISTA DO MP TARUMIRIM - COMARCA; TARUMIRIM-PJ-UNPJ 10.069,62 1.006,96 0,00 0,00 0,00 0,00 0,00 1.717,00 12.793,58 1.584,53 1.584,54 0,00 0,00 3.169,07 9.624,51 30/04/2021
859 194200 EMILIA ALVES FERREIRA RAMOS OFICIAL DO MP UBERLÂNDIA - COMARCA; UBERLANDIA-PJ-SEC FAMILIA 9.444,70 3.777,88 0,00 0,00 0,00 0,00 145,45 3.303,71 16.671,74 1.927,89 2.236,68 0,00 0,00 4.164,57 12.507,17 30/04/2021
860 679500 EMILY DIAS LEMOS E SILVA ASSESSOR PROCURADOR JUSTICA BELO HORIZONTE - COMARCA; GABINETE DE PROCURADOR DE JUSTIÇA - SALA 515 0,00 0,00 7.187,72 0,00 0,00 0,00 0,00 1.717,00 8.904,72 751,99 1.125,64 0,00 0,00 1.877,63 7.027,09 30/04/2021
861 620700 EMILY FONTANA DE SIQUEIRA ANALISTA DO MP BELO HORIZONTE - COMARCA; BH-18PJ VIOLENCIA DOMESTICA-SECRETARIA 8.436,53 843,65 0,00 0,00 0,00 0,00 0,00 2.486,39 11.766,57 1.297,11 1.273,85 0,00 0,00 2.570,96 9.195,61 30/04/2021
862 297000 ENEIDA SOARES COSTA MELO ANALISTA DO MP PIUMHI - COMARCA; PIUMHI-PJ-01PJ 17.413,92 5.224,18 0,00 0,00 0,00 0,00 498,04 7.150,14 30.286,28 3.434,37 4.411,67 0,00 0,00 7.846,04 22.440,24 30/04/2021
863 276000 ENEZIO RODRIGUES DE SOUZA FILHO OFICIAL DO MP UBERLÂNDIA - COMARCA; UBERLANDIA-PJ-10PJ 10.069,62 3.020,89 0,00 0,00 0,00 0,00 0,00 1.717,00 14.807,51 1.906,76 2.206,17 0,00 0,00 4.112,93 10.694,58 30/04/2021
864 387700 ENI MARIA DOS REIS OFICIAL DO MP POUSO ALEGRE - COMARCA; POUSO ALEGRE-PJ-07PJ 8.858,43 1.771,69 0,00 0,00 0,00 0,00 0,00 1.717,00 12.347,12 1.513,10 1.637,82 0,00 0,00 3.150,92 9.196,20 30/04/2021
865 605100 ENIA MAIA ASSESSOR/OFICIAL BELO HORIZONTE - COMARCA; DIRETORIA DE ORCAMENTO-DIOR/SPC 0,00 1.039,75 10.397,52 0,00 0,00 0,00 0,00 1.717,00 13.154,27 856,09 2.040,46 0,00 0,00 2.896,55 10.257,72 30/04/2021
866 612200 ENILDO GOMES MEIRA FILHO ANALISTA DO MP MATOZINHOS - COMARCA; MATOZINHOS-PJ-02PJ 8.436,53 843,65 0,00 0,00 0,00 0,00 0,00 2.486,39 11.766,57 1.297,11 1.169,57 0,00 0,00 2.466,68 9.299,89 30/04/2021
867 553700 ENIVALDO NOVATO PUBLIO ANALISTA DO MP DIVINÓPOLIS - COMARCA; DIVINOPOLIS-PJ-09PJ 9.146,93 914,69 0,00 0,00 0,00 0,00 0,00 1.717,00 11.778,62 1.422,14 1.454,36 0,00 0,00 2.876,50 8.902,12 30/04/2021
868 680600 ENZO JOSE FERES SOUZA JABER ASSESSOR PROMOTOR JUSTICA NOVO CRUZEIRO - COMARCA; NOVO CRUZEIRO-PJ-SECRETARIA 0,00 0,00 7.187,72 0,00 0,00 0,00 0,00 1.717,00 8.904,72 751,99 1.229,92 0,00 0,00 1.981,91 6.922,81 30/04/2021
869 417300 ERIC BARATTI DA SILVA ANALISTA DO MP FRUTAL - COMARCA; FRUTAL-PJ-05PJ 10.069,62 2.013,92 0,00 0,00 0,00 0,00 0,00 1.717,00 13.800,54 1.745,64 1.973,56 0,00 0,00 3.719,20 10.081,34 30/04/2021
870 637600 ERIC DA ROCHA CHEHUEN ANALISTA DO MP LIMA DUARTE - COMARCA; LIMA DUARTE-PJ-UNPJ 8.170,49 817,05 0,00 0,00 0,00 0,00 0,00 1.717,00 10.704,54 841,65 1.370,76 0,00 0,00 2.212,41 8.492,13 30/04/2021
871 398900 ERIC TEIXEIRA SILVA OFICIAL DO MP UBERLÂNDIA - COMARCA; UBERLANDIA-PJ-SEC CIVEIS CRIMINAIS 8.579,10 1.715,82 0,00 0,00 0,00 0,00 0,00 1.717,00 12.011,92 1.459,46 1.560,39 0,00 0,00 3.019,85 8.992,07 30/04/2021
872 274200 ERICA DE SOUZA ANDRADE OFICIAL DO MP CURVELO - COMARCA; CURVELO-PJ-03PJ 10.069,62 3.020,89 0,00 0,00 0,00 0,00 0,00 1.717,00 14.807,51 1.906,76 2.154,03 0,00 0,00 4.060,79 10.746,72 30/04/2021
873 225700 ERICA GOMES DO COUTO OFICIAL DO MP BELO HORIZONTE - COMARCA; BH-21PJ TUTELA FUNDACOES-SECRETARIA 14.324,23 4.297,27 0,00 0,00 0,00 0,00 0,00 2.486,39 21.107,89 2.791,72 3.483,83 0,00 0,00 6.275,55 14.832,34 30/04/2021
874 632600 ERICA LEONOR MARTINS OFICIAL DO MP RESENDE COSTA - COMARCA; RESENDE COSTA-PJ-UNPJ 5.217,34 521,73 0,00 0,00 0,00 0,00 0,00 1.717,00 7.456,07 734,31 506,95 0,00 0,00 1.241,26 6.214,81 30/04/2021
875 524800 ERICA MACHADO DA COSTA E SOUZA ANALISTA DO MP BELO HORIZONTE - COMARCA; ASSESS TECNICO-JUR JUNTO AS PROC. DE JUST 10.069,62 1.006,96 0,00 0,00 0,00 0,00 0,00 1.717,00 12.793,58 1.584,53 1.740,95 0,00 0,00 3.325,48 9.468,10 30/04/2021
876 249500 ERICA RODRIGUES ANDRADE OFICIAL DO MP SÃO FRANCISCO - COMARCA; SAO FRANCISCO-PJ-02PJ 9.146,93 2.744,08 0,00 0,00 0,00 0,00 0,00 1.717,00 13.608,01 1.714,84 1.876,95 0,00 0,00 3.591,79 10.016,22 30/04/2021
877 260800 ERICA VIANA GIARDINI DE OLIVEIRA OFICIAL DO MP BELO HORIZONTE - COMARCA; DIRETORIA GESTAO COMPRAS LICITACOES 10.069,62 3.020,89 0,00 0,00 0,00 0,00 0,00 1.717,00 14.807,51 1.906,76 2.206,17 0,00 0,00 4.112,93 10.694,58 30/04/2021
878 299800 ERICH DOUGLAS RIBEIRO GARCIA ANALISTA DO MP BELO HORIZONTE - COMARCA; CENTRAL DE APOIO TECNICO-SETOR CONTABIL 16.750,82 5.025,25 0,00 0,00 0,00 0,00 479,07 6.943,26 29.198,40 3.296,45 4.212,54 0,00 0,00 7.508,99 21.689,41 30/04/2021
879 365000 ERICK EDUARDO JOSE DA SILVA OFICIAL DO MP SANTOS DUMONT - COMARCA; SANTOS DUMONT-PJ-02PJ 6.123,79 1.224,76 0,00 0,00 0,00 0,00 0,00 1.717,00 9.065,55 988,05 879,78 0,00 0,00 1.867,83 7.197,72 30/04/2021
880 688900 ERICK FERDINANN SANTOS GOMES ASSESSOR PROMOTOR JUSTICA OURO PRETO - COMARCA; OURO PRETO-PJ-04PJ 0,00 0,00 7.187,72 0,00 0,00 0,00 0,00 1.717,00 8.904,72 751,99 1.229,92 0,00 0,00 1.981,91 6.922,81 30/04/2021
881 227400 ERIKA DE LAET GOULART BOECHAT ASSESSOR/OFICIAL BELO HORIZONTE - COMARCA; ASSESSORIA ESPECIAL DO PGJ 14.324,23 4.297,27 2.520,26 0,00 0,00 0,00 542,64 7.636,69 29.321,09 2.791,72 4.124,76 0,00 0,00 6.916,48 22.404,61 30/04/2021
882 285100 ERIKA FERREIRA DA SILVA OFICIAL DO MP JUIZ DE FORA - COMARCA; JUIZ DE FORA-PJ-11PJ 10.069,62 3.020,89 0,00 0,00 0,00 0,00 0,00 1.717,00 14.807,51 1.906,76 2.206,17 0,00 0,00 4.112,93 10.694,58 30/04/2021
883 420100 ERIKA JEANINE VERSIANI DE CASTRO ANALISTA DO MP BELO HORIZONTE - COMARCA; COORD ESTADUAL DE DEFESA DA EDUCACAO 13.011,52 2.602,30 0,00 0,00 0,00 0,00 400,75 6.088,87 22.103,44 2.310,49 2.789,06 0,00 0,00 5.099,55 17.003,89 30/04/2021
884 677100 ERIKA LAYS CARDOSO FERNANDES ASSESSOR PROMOTOR JUSTICA GRAO MOGOL - COMARCA; GRAO MOGOL-PJ-UNPJ 0,00 0,00 7.187,72 0,00 0,00 0,00 0,00 1.717,00 8.904,72 751,99 1.229,92 0,00 0,00 1.981,91 6.922,81 30/04/2021
885 606900 ERIKA MARIA BARBOSA ANALISTA DO MP BELO HORIZONTE - COMARCA; CAO-SAUDE 8.436,53 843,65 0,00 0,00 0,00 0,00 0,00 1.717,00 10.997,18 1.297,11 1.273,85 0,00 0,00 2.570,96 8.426,22 30/04/2021
886 491000 ERIKA ROCHA PEREIRA E SILVA COORDENADOR/ANALISTA BELO HORIZONTE - COMARCA; DIR GOVERNANCA TECNOLOGIA INFORMACAO 0,00 1.343,52 13.435,16 0,00 0,00 0,00 0,00 1.717,00 16.495,68 1.584,53 2.759,03 0,00 0,00 4.343,56 12.152,12 30/04/2021
887 283201 ERIKA STEHLING COORDENADOR/ANALISTA BELO HORIZONTE - COMARCA; CENTRAL DE APOIO TECNICO-SETOR DE ENGENHARIA 10.069,62 1.006,96 2.363,83 0,00 0,00 0,00 0,00 1.717,00 15.157,41 1.584,53 2.391,01 0,00 0,00 3.975,54 11.181,87 30/04/2021
888 254000 ERLANDIA DA SILVA MENDES OFICIAL DO MP IPATINGA - COMARCA; IPATINGA-PJ-03PJ 12.601,30 5.040,52 0,00 0,00 0,00 0,00 64,69 2.422,67 20.129,18 2.634,97 3.101,11 0,00 0,00 5.736,08 14.393,10 30/04/2021
889 208600 ERNANE JOSE DA COSTA ANALISTA DO MP BELO HORIZONTE - COMARCA; CENTRAL DE APOIO TECNICO-SETOR MEDICO 18.820,14 15.056,11 0,00 0,00 0,00 0,00 0,00 1.717,00 35.593,25 5.232,48 7.007,68 0,00 0,00 12.240,16 23.353,09 30/04/2021
890 260600 ERNANI CALDEIRA DE ANDRADE ANALISTA DO MP BELO HORIZONTE - COMARCA; CENTRAL DE APOIO TECNICO-SETOR CONTABIL 18.820,14 5.646,04 0,00 0,00 0,00 0,00 0,00 1.717,00 26.183,18 3.726,87 4.833,95 0,00 0,00 8.560,82 17.622,36 30/04/2021
891 348500 ERNILANDIA DE OLIVEIRA DIAS OFICIAL DO MP MONTES CLAROS - COMARCA; MONTES CLAROS-PJ-16PJ 8.858,43 1.771,69 0,00 0,00 0,00 0,00 0,00 1.717,00 12.347,12 1.513,10 1.637,82 0,00 0,00 3.150,92 9.196,20 30/04/2021
892 199300 ERTON PORTINARI DE ANDRADE OFICIAL DO MP SETE LAGOAS - COMARCA; SETE LAGOAS-PJ-05PJ 14.790,66 5.916,26 0,00 0,00 0,00 0,00 303,70 5.030,11 26.040,73 3.125,38 3.861,29 0,00 0,00 6.986,67 19.054,06 30/04/2021
893 618800 ESLY DE CARLA AYALLA BARBOSA MENDES OFICIAL DO MP NOVA LIMA - COMARCA; NOVA LIMA-PJ-SECRETARIA 4.974,42 497,44 0,00 0,00 0,00 0,00 0,00 1.717,00 7.188,86 694,23 444,49 0,00 0,00 1.138,72 6.050,14 30/04/2021
894 537000 ESTANISLAU CORREIA ALMEIDA JUNIOR OFICIAL DO MP UBERLÂNDIA - COMARCA; UBERLANDIA-PJ-25PJ 5.930,75 593,08 0,00 0,00 0,00 0,00 0,00 1.717,00 8.240,83 856,09 689,27 0,00 0,00 1.545,36 6.695,47 30/04/2021
895 692100 ESTEFANIA FARIA FERREIRA ASSESSOR PROCURADOR JUSTICA BELO HORIZONTE - COMARCA; GABINETE DE PROCURADOR DE JUSTIÇA - SALA 814 0,00 0,00 7.187,72 0,00 0,00 0,00 0,00 1.717,00 8.904,72 751,99 1.229,92 0,00 0,00 1.981,91 6.922,81 30/04/2021
896 326900 ESTER ALICE PIMENTA OFICIAL DO MP BELO HORIZONTE - COMARCA; COORD DE INCLUSAO E MOBILIZACAO SOCIAIS 10.069,62 3.020,89 0,00 0,00 0,00 0,00 0,00 1.717,00 14.807,51 1.906,76 2.206,17 0,00 0,00 4.112,93 10.694,58 30/04/2021
897 503700 ESTHER GONCALVES FONSECA ANALISTA DO MP BELO HORIZONTE - COMARCA; CENTRO PUBLICIDADE E DESIGN GRAFICO 9.444,70 944,47 0,00 0,00 0,00 0,00 0,00 1.717,00 12.106,17 1.474,54 1.582,16 0,00 0,00 3.056,70 9.049,47 30/04/2021
898 475600 ETIENE DE FATIMA OLIVEIRA PEREIRA ANALISTA DO MP PATROCÍNIO - COMARCA; PATROCINIO-PJ-04PJ 10.069,62 2.013,92 0,00 0,00 0,00 0,00 0,00 1.717,00 13.800,54 1.745,64 1.869,29 0,00 0,00 3.614,93 10.185,61 30/04/2021
899 428800 EUGENIA RODRIGUES TRAJANO BORGES ANALISTA DO MP UBERABA - COMARCA; UBERABA-PJ-08PJ 12.601,30 2.520,26 0,00 0,00 0,00 0,00 0,00 2.486,39 17.607,95 2.231,73 2.675,34 0,00 0,00 4.907,07 12.700,88 30/04/2021
900 272700 EUGENIO DE BARCELOS FILHO OFICIAL DO MP FRUTAL - COMARCA; FRUTAL-PJ-03PJ 8.858,43 2.657,53 0,00 0,00 0,00 0,00 0,00 1.717,00 13.232,96 1.654,83 1.790,31 0,00 0,00 3.445,14 9.787,82 30/04/2021
901 254100 EULALIA ALVES MIRANDA LUCAS OFICIAL DO MP ALMENARA - COMARCA; ALMENARA-PJ-02PJ 12.204,02 3.661,21 0,00 0,00 0,00 0,00 0,00 1.717,00 17.582,23 2.350,71 2.742,86 0,00 0,00 5.093,57 12.488,66 30/04/2021
902 615500 EUNICE BARBOSA PINTO OFICIAL DO MP OURO PRETO - COMARCA; OURO PRETO-PJ-03PJ 5.387,19 1.077,44 0,00 0,00 0,00 0,00 0,00 1.717,00 8.181,63 846,62 675,59 0,00 0,00 1.522,21 6.659,42 30/04/2021
903 641200 EUNICE ELVIRA DA SILVA MATOS OFICIAL DO MP BELO HORIZONTE - COMARCA; BH-14PJ DEFESA CONSUMIDOR-SECRETARIA 4.817,57 481,76 0,00 0,00 0,00 0,00 0,00 1.717,00 7.016,33 668,35 405,84 0,00 0,00 1.074,19 5.942,14 30/04/2021
904 557900 EURIPEDES JOSUE PERES OFICIAL DO MP IBIÁ - COMARCA; IBIA-PJ-UNPJ 5.387,19 538,72 0,00 0,00 0,00 0,00 0,00 1.717,00 7.642,91 762,96 550,45 0,00 0,00 1.313,41 6.329,50 30/04/2021
905 225800 EURO CESAR VIEIRA BARBOSA ANALISTA DO MP BELO HORIZONTE - COMARCA; BH-17PJ PATRIMONIO PUBLICO-SECRETARIA 18.820,14 7.528,06 0,00 0,00 0,00 0,00 483,05 6.986,64 33.817,89 4.027,99 5.164,42 0,00 0,00 9.192,41 24.625,48 30/04/2021
906 199400 EUSTAQUIO ADAILTON LIMA E SILVA OFICIAL DO MP MANGA - COMARCA; MANGA-PJ-01PJ 14.790,66 10.353,47 0,00 0,00 8.381,38 0,00 0,00 1.717,00 35.242,51 3.835,34 7.086,89 0,00 0,00 10.922,23 24.320,28 30/04/2021
907 548000 EVA VILMA LEAO REIS JULIO OFICIAL DO MP BELO HORIZONTE - COMARCA; BH-07PJ 01 TRIBUNAL JURI-SECRETARIA 5.930,75 1.779,23 0,00 0,00 0,00 0,00 0,00 1.717,00 9.426,98 1.045,87 963,27 0,00 0,00 2.009,14 7.417,84 30/04/2021
908 517000 EVALDO SENA COSTA FILHO ANALISTA DO MP CONTAGEM - COMARCA; CONTAGEM-PJ-15PJ 10.069,62 3.020,89 0,00 0,00 0,00 0,00 0,00 1.717,00 14.807,51 1.906,76 2.049,76 0,00 0,00 3.956,52 10.850,99 30/04/2021
909 217500 EVELANGE LEAO RABELO ASSESSOR BELO HORIZONTE - COMARCA; CAO-IDOSOS E PESSOAS COM DEFICIENCIA 0,00 1.862,26 4.655,64 0,00 -358,90 0,00 454,01 6.669,81 13.282,82 751,99 947,02 0,00 0,00 1.699,01 11.583,81 30/04/2021
910 679600 EVERTON BARBOSA DA SILVA ASSESSOR PROCURADOR JUSTICA BELO HORIZONTE - COMARCA; GABINETE DE PROCURADOR DE JUSTIÇA - SALA 510 0,00 0,00 7.187,72 0,00 0,00 0,00 0,00 1.717,00 8.904,72 751,99 1.229,92 0,00 0,00 1.981,91 6.922,81 30/04/2021
911 540400 EVIE SARAMELLA DE RESENDE OFICIAL DO MP BARBACENA - COMARCA; BARBACENA-PJ-05PJ 5.930,75 593,08 0,00 0,00 0,00 0,00 0,00 1.717,00 8.240,83 856,09 689,27 0,00 0,00 1.545,36 6.695,47 30/04/2021
912 469000 EWERTON CARDOSO DE SA RODRIGUES ANALISTA DO MP CAMPO BELO - COMARCA; CAMPO BELO-PJ-01PJ 10.069,62 2.013,92 0,00 0,00 0,00 0,00 0,00 2.486,39 14.569,93 1.745,64 1.869,29 0,00 0,00 3.614,93 10.955,00 30/04/2021
913 368900 FABIANA BARBOSA SIQUEIRA OFICIAL DO MP BELO HORIZONTE - COMARCA; CAO-ORDEM ECONOMICA E TRIBUTARIA-SECRETARIA 9.146,93 1.829,39 0,00 0,00 0,00 0,00 0,00 1.717,00 12.693,32 1.568,49 1.665,66 0,00 0,00 3.234,15 9.459,17 30/04/2021
914 273800 FABIANA CARNEIRO AMORIM COORDENADOR/OFICIAL BELO HORIZONTE - COMARCA; BH-23PJ CIVEL-COORD ADM CIVEL 11.085,56 3.325,67 2.363,83 0,00 0,00 0,00 61,51 2.388,00 19.224,57 2.118,07 3.057,04 0,00 0,00 5.175,11 14.049,46 30/04/2021
915 519300 FABIANA DE OLIVEIRA LOUREIRO ANALISTA DO MP BELO HORIZONTE - COMARCA; BH-09PJ AUDITORIA MILITAR-SECRETARIA 10.069,62 1.006,96 0,00 0,00 0,00 0,00 0,00 1.717,00 12.793,58 1.584,53 1.740,95 0,00 0,00 3.325,48 9.468,10 30/04/2021
916 363400 FABIANA DOURADO DUPIN VIEGAS ANALISTA DO MP BELO HORIZONTE - COMARCA; GABINETE DE PROCURADOR DE JUSTIÇA - SALA 705 15.272,02 3.054,40 0,00 0,00 0,00 0,00 67,20 2.450,06 20.843,68 2.744,50 3.363,53 0,00 0,00 6.108,03 14.735,65 30/04/2021
917 410800 FABIANA DUARTE QUITITE ANALISTA DO MP BELO HORIZONTE - COMARCA; BH-15PJ M AMB PAT HIST CULT-GAB 116PJ 13.011,52 2.602,30 0,00 0,00 0,00 0,00 0,00 1.717,00 17.330,82 2.310,49 2.789,06 0,00 0,00 5.099,55 12.231,27 30/04/2021
918 419500 FABIANA EULALIA DOS SANTOS ANALISTA DO MP SÃO JOÃO DEL REI - COMARCA; SAO JOAO DEL REI-PJ-01PJ 13.011,52 2.602,30 0,00 0,00 0,00 0,00 0,00 1.717,00 17.330,82 2.310,49 2.789,06 0,00 0,00 5.099,55 12.231,27 30/04/2021
919 700300 FABIANA MARCIA DE SOUZA ASSESSOR BELO HORIZONTE - COMARCA; DIRET DE CONTROLE E DE MANUTENCAO DE IMOVEIS 0,00 0,00 3.076,28 0,00 0,00 0,00 0,00 1.717,00 4.793,28 449,69 224,40 0,00 0,00 674,09 4.119,19 30/04/2021
920 376300 FABIANA MATTOSO LEMOS ANALISTA DO MP BELO HORIZONTE - COMARCA; BH-21PJ TUTELA FUNDACOES-SECRETARIA 14.324,23 2.864,85 0,00 0,00 0,00 0,00 0,00 1.717,00 18.906,08 2.562,53 3.152,94 0,00 0,00 5.715,47 13.190,61 30/04/2021
921 331500 FABIANA PACHECO OFICIAL DO MP GUAXUPÉ - COMARCA; GUAXUPE-PJ-01PJ 10.069,62 3.020,89 0,00 0,00 0,00 0,00 144,00 4.057,25 17.291,76 1.906,76 2.101,90 0,00 0,00 4.008,66 13.283,10 30/04/2021
922 510700 FABIANA PEREIRA SANTOS BORGES ANALISTA DO MP BELO HORIZONTE - COMARCA; DIRETORIA DE SISTEMAS DE INFORMACAO 10.069,62 1.006,96 0,00 0,00 0,00 0,00 0,00 1.281,01 12.357,59 1.584,53 1.688,82 0,00 0,00 3.273,35 9.084,24 30/04/2021
923 181700 FABIANA SOUZA FERREIRA OFICIAL DO MP BELO HORIZONTE - COMARCA; BH-19PJ SAUDE-SECRETARIA 150PJ 6.123,79 2.449,52 0,00 0,00 0,00 0,00 0,00 1.717,00 10.290,31 1.184,01 1.058,42 0,00 0,00 2.242,43 8.047,88 30/04/2021
924 272900 FABIANA STOCKLER LEITE OFICIAL DO MP LAJINHA - COMARCA; LAJINHA-PJ-SECRETARIA 10.069,62 5.034,81 0,00 0,00 0,00 0,00 0,00 1.717,00 16.821,43 2.228,99 2.619,25 0,00 0,00 4.848,24 11.973,19 30/04/2021
925 225500 FABIANE DE FATIMA PORTELLA ANALISTA DO MP BELO HORIZONTE - COMARCA; BH-18PJ DIREITOS HUMANOS-SECRETARIA 18.820,14 5.646,04 0,00 0,00 0,00 0,00 0,00 1.717,00 26.183,18 3.726,87 4.833,95 0,00 0,00 8.560,82 17.622,36 30/04/2021
926 433800 FABIANE DINIZ MATTOS ANALISTA DO MP BELO HORIZONTE - COMARCA; BH-23PJ INFRACIONAL-ASS JURIDICA 13.011,52 2.602,30 0,00 0,00 0,00 0,00 2.408,94 1.717,00 19.739,76 2.695,92 3.345,52 0,00 0,00 6.041,44 13.698,32 30/04/2021
927 455000 FABIANO CARVALHO DA SILVA ANALISTA DO MP LAVRAS - COMARCA; LAVRAS-PJ-05PJ 10.069,62 2.013,92 0,00 0,00 0,00 0,00 0,00 1.717,00 13.800,54 1.745,64 1.973,56 0,00 0,00 3.719,20 10.081,34 30/04/2021
928 498800 FABIANO FURTADO PESSOA COELHO ANALISTA DO MP BELO HORIZONTE - COMARCA; DIRETORIA DE REDES E BANCOS DE DADOS 10.069,62 1.006,96 0,00 0,00 0,00 0,00 0,00 1.717,00 12.793,58 1.584,53 1.688,82 0,00 0,00 3.273,35 9.520,23 30/04/2021
929 663000 FABIANO MARQUES CORREA ASSESSOR BELO HORIZONTE - COMARCA; DIRETORIA DE SUPORTE E MANUTENCAO 0,00 0,00 5.136,32 0,00 0,00 0,00 0,00 1.717,00 6.853,32 738,09 669,60 0,00 0,00 1.407,69 5.445,63 30/04/2021
930 394600 FABIANO PALHARES SILVA ANALISTA DO MP BELO HORIZONTE - COMARCA; CENTRAL DE APOIO TECN-SETOR DE MEIO AMBIENTE 14.324,23 2.864,85 0,00 0,00 0,00 0,00 0,00 1.717,00 18.906,08 2.562,53 3.100,80 0,00 0,00 5.663,33 13.242,75 30/04/2021
931 676600 FABIANO RESENDE VELOSO ASSESSOR PROCURADOR JUSTICA BELO HORIZONTE - COMARCA; GABINETE DE PROCURADOR DE JUSTIÇA - SALA 1002 0,00 0,00 7.187,72 0,00 0,00 0,00 0,00 1.717,00 8.904,72 751,99 1.229,92 0,00 0,00 1.981,91 6.922,81 30/04/2021
932 444400 FABIANO SARAIVA MEDEIROS ANALISTA DO MP BETIM - COMARCA; BETIM-PJ-11PJ 12.601,30 2.520,26 0,00 0,00 0,00 0,00 0,00 1.717,00 16.838,56 2.231,73 2.571,07 0,00 0,00 4.802,80 12.035,76 30/04/2021
933 408700 FABIANO SOARES PORTILHO ANALISTA DO MP JUIZ DE FORA - COMARCA; GAECO REGIONAL DA ZONA DA MATA-JUIZ DE FORA 13.011,52 2.602,30 0,00 0,00 0,00 0,00 0,00 1.717,00 17.330,82 2.310,49 2.789,06 0,00 0,00 5.099,55 12.231,27 30/04/2021
934 442600 FABIO CARVALHO VIEIRA ANALISTA DO MP MONTES CLAROS - COMARCA; MONTES CLAROS-PJ-06PJ 9.752,14 1.950,43 0,00 0,00 0,00 0,00 0,00 1.717,00 13.419,57 1.684,69 1.885,56 0,00 0,00 3.570,25 9.849,32 30/04/2021
935 702700 FABIO JUNIOR COSTA BARREIROS ASSESSOR BELO HORIZONTE - COMARCA; DIVISAO DE MANUTENCAO PREDIAL 0,00 0,00 3.076,28 0,00 0,00 0,00 922,88 3.183,81 7.182,97 627,89 483,44 0,00 0,00 1.111,33 6.071,64 30/04/2021
936 240101 FABIO JUNQUEIRA DE ASSIS FONSECA OFICIAL DO MP BELO HORIZONTE - COMARCA; BH-17PJ PATRIMONIO PUBLICO-SECRETARIA 8.170,49 1.634,10 0,00 0,00 0,00 0,00 0,00 1.717,00 11.521,59 1.381,01 1.447,12 0,00 0,00 2.828,13 8.693,46 30/04/2021
937 271500 FABIO LUIZ VIEIRA OFICIAL DO MP SANTA VITÓRIA - COMARCA; SANTA VITORIA-PJ-UNPJ 10.069,62 3.020,89 0,00 0,00 0,00 0,00 0,00 1.765,00 14.855,51 1.906,76 2.101,90 0,00 0,00 4.008,66 10.846,85 30/04/2021
938 213100 FABIO PRATES GONCALVES ASSESSOR BELO HORIZONTE - COMARCA; CENTRO CERIMONIAL 0,00 4.159,01 10.397,52 0,00 0,00 0,00 0,00 2.486,39 17.042,92 751,99 3.099,93 0,00 0,00 3.851,92 13.191,00 30/04/2021
939 436700 FABIO SANTIAGO DE CARVALHO OFICIAL DO MP POÇO FUNDO - COMARCA; POCO FUNDO-PJ-UNPJ 8.579,10 1.715,82 0,00 0,00 0,00 0,00 0,00 1.717,00 12.011,92 1.459,46 1.560,39 0,00 0,00 3.019,85 8.992,07 30/04/2021
940 208400 FABIOLA DE SOUSA CARDOSO ASSESSOR/ANALISTA BELO HORIZONTE - COMARCA; ASSESS TECNICA DA CORREGEDORIA-GERAL DO MP 18.820,14 7.528,06 2.520,26 0,00 0,00 0,00 529,25 7.490,69 36.888,40 4.027,99 5.961,77 0,00 0,00 9.989,76 26.898,64 30/04/2021
941 392200 FABIOLA LEROY COSTA ANALISTA DO MP ESMERALDAS - COMARCA; ESMERALDAS-PJ-01PJ 10.069,62 2.013,92 0,00 0,00 4.027,85 0,00 0,00 2.486,39 18.597,78 1.745,64 3.081,22 0,00 0,00 4.826,86 13.770,92 30/04/2021
942 409000 FABIOLA MONTEIRO DE CARVALHO CASTRO ANALISTA DO MP BOM SUCESSO - COMARCA; BOM SUCESSO-PJ-UNPJ 11.085,56 2.217,11 0,00 0,00 0,00 0,00 0,00 1.717,00 15.019,67 1.940,70 2.255,18 0,00 0,00 4.195,88 10.823,79 30/04/2021
943 525800 FABRICIA ALVES DANTAS OFICIAL DO MP MONTES CLAROS - COMARCA; MONTES CLAROS-PJ-01PJ 7.421,79 742,18 0,00 0,00 0,00 0,00 0,00 1.717,00 9.880,97 1.118,51 963,87 0,00 0,00 2.082,38 7.798,59 30/04/2021
944 263400 FABRICIA PINTO TEIXEIRA SANTIAGO OFICIAL DO MP BELO HORIZONTE - COMARCA; CAO-FUNDACOES-SECRETARIA 12.601,30 3.780,39 0,00 0,00 0,00 0,00 0,00 1.717,00 18.098,69 2.433,35 2.862,16 0,00 0,00 5.295,51 12.803,18 30/04/2021
945 420800 FABRICIO BERNARDES DE OLIVEIRA OFICIAL DO MP ITURAMA - COMARCA; ITURAMA-PJ-02PJ 8.579,10 1.715,82 0,00 0,00 0,00 0,00 0,00 1.747,00 12.041,92 1.459,46 1.508,25 0,00 0,00 2.967,71 9.074,21 30/04/2021
946 474000 FABRICIO DE FREITAS SALES ANALISTA DO MP MONTES CLAROS - COMARCA; COORD REG PATRI PUB ORD TRIB-NORTE MINAS 10.069,62 2.013,92 0,00 0,00 0,00 0,00 0,00 1.717,00 13.800,54 1.745,64 1.973,56 0,00 0,00 3.719,20 10.081,34 30/04/2021
947 510100 FABRICIO FURTADO ASSIS DO CARMO ANALISTA DO MP BELO HORIZONTE - COMARCA; SERVICO MEDICO-DEPTO PERIC MEDICA SAUDE OCUP 10.069,62 1.006,96 0,00 0,00 0,00 0,00 963,51 3.255,78 15.295,87 1.584,53 2.005,92 0,00 0,00 3.590,45 11.705,42 30/04/2021
948 519600 FABRICIO GONTIJO SALVATI ANALISTA DO MP JUIZ DE FORA - COMARCA; JUIZ DE FORA-CAO ESPECIALIZADO-SECRETARIA 10.069,62 1.006,96 0,00 0,00 0,00 0,00 0,00 1.717,00 12.793,58 1.584,53 1.740,95 0,00 0,00 3.325,48 9.468,10 30/04/2021
949 637400 FABRICIO HENRIQUE DA SILVA PASSOS ASSESSOR/ANALISTA BELO HORIZONTE - COMARCA; CENTRO PUBLICIDADE E DESIGN GRAFICO 0,00 1.039,75 10.397,52 0,00 0,00 0,00 0,00 1.717,00 13.154,27 1.371,36 1.898,77 0,00 0,00 3.270,13 9.884,14 30/04/2021
950 428200 FABRICIO ORZIL VIANA ANALISTA DO MP SANTA LUZIA - COMARCA; SANTA LUZIA-PJ-04PJ 10.069,62 2.013,92 0,00 0,00 0,00 0,00 0,00 1.717,00 13.800,54 1.745,64 1.973,56 0,00 0,00 3.719,20 10.081,34 30/04/2021
951 455600 FABRICIO PAIVA DA ROCHA ANALISTA DO MP SÃO JOÃO DEL REI - COMARCA; SAO JOAO DEL REI-PJ-06PJ 10.069,62 2.013,92 0,00 0,00 0,00 0,00 0,00 2.486,39 14.569,93 1.745,64 1.921,43 0,00 0,00 3.667,07 10.902,86 30/04/2021
952 511500 FABRICIO RENE CARDOSO DE PADUA ANALISTA DO MP SÃO SEBASTIÃO DO PARAÍSO - COMARCA; SAO SEBASTIAO DO PARAISO-PJ-03PJ 10.069,62 1.006,96 0,00 0,00 0,00 0,00 0,00 1.717,00 12.793,58 1.584,53 1.740,95 0,00 0,00 3.325,48 9.468,10 30/04/2021
953 496100 FABRICIO RESENDE GONCALVES OFICIAL DO MP ENTRE-RIOS DE MINAS - COMARCA; ENTRE RIOS DE MINAS-PJ-UNPJ 7.421,79 742,18 0,00 0,00 0,00 0,00 0,00 2.486,39 10.650,36 1.118,51 1.068,14 0,00 0,00 2.186,65 8.463,71 30/04/2021
954 650300 FABRICIO ROBERTO AZEVEDO OFICIAL DO MP NOVA SERRANA - COMARCA; NOVA SERRANA-PJ-04PJ 4.376,03 262,56 0,00 0,00 0,00 0,00 0,00 1.717,00 6.355,59 570,31 279,23 0,00 0,00 849,54 5.506,05 30/04/2021
955 514900 FADUA MARIA DRUMOND CHEQUER ANALISTA DO MP DIVINÓPOLIS - COMARCA; DIVINOPOLIS-PJ-12PJ 10.069,62 1.006,96 0,00 0,00 0,00 0,00 0,00 1.717,00 12.793,58 1.584,53 1.636,68 0,00 0,00 3.221,21 9.572,37 30/04/2021
956 282500 FANNY FERREIRA MELO OFICIAL DO MP ARAXÁ - COMARCA; ARAXA-PJ-03PJ 8.436,53 2.530,96 0,00 0,00 0,00 0,00 2.627,40 1.717,00 15.311,89 1.567,08 2.438,29 0,00 0,00 4.005,37 11.306,52 30/04/2021
957 692500 FARID JUNIOR NUNES DA SILVA ASSESSOR PROCURADOR JUSTICA BELO HORIZONTE - COMARCA; GABINETE DE PROCURADOR DE JUSTIÇA - SALA 902 0,00 0,00 7.187,72 0,00 0,00 0,00 0,00 1.717,00 8.904,72 751,99 1.125,64 0,00 0,00 1.877,63 7.027,09 30/04/2021
958 540100 FATIMA CRISTINA POVOA DA COSTA ASSESSOR/OFICIAL BELO HORIZONTE - COMARCA; BH-18PJ VIOLENCIA DOMESTICA-SECRETARIA 0,00 3.119,26 10.397,52 0,00 0,00 1.045,87 0,00 1.717,00 16.279,65 1.045,87 2.847,75 0,00 0,00 3.893,62 12.386,03 30/04/2021
959 382800 FATIMA DE OLIVEIRA COELHO E SILVA OFICIAL DO MP BELO HORIZONTE - COMARCA; DIRETORIA DE ADMINISTRACAO FINANCEIRA 7.187,72 2.156,32 0,00 0,00 0,00 0,00 0,00 1.717,00 11.061,04 1.307,32 1.288,60 0,00 0,00 2.595,92 8.465,12 30/04/2021
960 398601 FELIPE ANTONIO HORTA DE PAULA ANALISTA DO MP BELO HORIZONTE - COMARCA; PROC. JUSTICA DIR. DIFUSOS E COLETIVOS-SEC 9.146,93 914,69 0,00 0,00 0,00 0,00 0,00 1.717,00 11.778,62 1.422,14 1.506,50 0,00 0,00 2.928,64 8.849,98 30/04/2021
961 430900 FELIPE BOY VIEIRA ANALISTA DO MP BELO HORIZONTE - COMARCA; DIRETORIA DE SEGURANCA 12.204,02 2.440,80 0,00 0,00 0,00 0,00 0,00 1.717,00 16.361,82 2.155,45 2.565,22 0,00 0,00 4.720,67 11.641,15 30/04/2021
962 631700 FELIPE DE MORAIS SIMOES COELHO ANALISTA DO MP BELO HORIZONTE - COMARCA; BH-18PJ VIOLENCIA DOMESTICA-SECRETARIA 7.663,37 766,34 0,00 0,00 0,00 0,00 0,00 1.717,00 10.146,71 1.161,03 1.129,53 0,00 0,00 2.290,56 7.856,15 30/04/2021
963 549100 FELIPE FERNANDES ALVIM ANALISTA DO MP LAJINHA - COMARCA; LAJINHA-PJ-UNPJ 9.146,93 914,69 0,00 0,00 0,00 0,00 0,00 2.486,39 12.548,01 1.422,14 1.506,50 0,00 0,00 2.928,64 9.619,37 30/04/2021
964 693100 FELIPE FROIS DO AMARAL ASSESSOR PROMOTOR JUSTICA RIBEIRÃO DAS NEVES - COMARCA; RIBEIRAO NEVES-SEC PJ EXECUCAO PENAL 0,00 0,00 7.187,72 0,00 0,00 0,00 0,00 1.717,00 8.904,72 751,99 1.125,64 0,00 0,00 1.877,63 7.027,09 30/04/2021
965 620100 FELIPE GOMES DE AZEVEDO ASSESSOR/OFICIAL BELO HORIZONTE - COMARCA; DIVISAO DE SERVICOS 0,00 817,05 8.170,49 0,00 0,00 0,00 0,00 1.717,00 10.704,54 694,23 1.411,30 0,00 0,00 2.105,53 8.599,01 30/04/2021
966 601600 FELIPE RODRIGUES DE SIQUEIRA ANALISTA DO MP BELO HORIZONTE - COMARCA; BH-02PJ FAMILIA-SECRETARIA 9.146,93 914,69 0,00 0,00 0,00 0,00 0,00 1.717,00 11.778,62 1.422,14 1.143,50 0,00 0,00 2.565,64 9.212,98 30/04/2021
967 628900 FELIX FERNANDO JUNIO VIEIRA ANALISTA DO MP CAETÉ - COMARCA; CAETE-PJ-02PJ 8.436,53 843,65 0,00 0,00 0,00 0,00 0,00 1.717,00 10.997,18 1.297,11 1.273,85 0,00 0,00 2.570,96 8.426,22 30/04/2021
968 544500 FELLIPE LEMOS MARCONDES BUENO ANALISTA DO MP SÃO SEBASTIÃO DO PARAÍSO - COMARCA; SAO SEBASTIAO DO PARAISO-PJ-04PJ 9.146,93 914,69 0,00 0,00 0,00 0,00 0,00 1.717,00 11.778,62 1.422,14 1.506,50 0,00 0,00 2.928,64 8.849,98 30/04/2021
969 688500 FELLIPE TADEU DE ANDRADE RAMOS ASSESSOR PROCURADOR JUSTICA BELO HORIZONTE - COMARCA; GABINETE DE PROCURADOR DE JUSTIÇA - SALA 907 0,00 0,00 7.187,72 0,00 0,00 0,00 0,00 1.717,00 8.904,72 751,99 1.229,92 0,00 0,00 1.981,91 6.922,81 30/04/2021
970 612600 FERNANDA ADRIANA DE PAULA GUIDO ANALISTA DO MP PARACATU - COMARCA; PARACATU-PJ-02PJ 8.436,53 843,65 0,00 0,00 0,00 0,00 0,00 2.486,39 11.766,57 1.297,11 1.325,98 0,00 0,00 2.623,09 9.143,48 30/04/2021
971 508400 FERNANDA AGANETTI MATTOS DE OLIVEIRA ANALISTA DO MP BELO HORIZONTE - COMARCA; BH-07PJ 02 TRIBUNAL DO JURI-GAB 061PJ 10.069,62 1.006,96 0,00 0,00 0,00 0,00 0,00 1.717,00 12.793,58 1.584,53 1.740,95 0,00 0,00 3.325,48 9.468,10 30/04/2021
972 453600 FERNANDA ALBERNAZ RABELO ANALISTA DO MP BELO HORIZONTE - COMARCA; GABINETE DE PROCURADOR DE JUSTIÇA - SALA 616 10.069,62 2.013,92 0,00 0,00 0,00 0,00 0,00 1.717,00 13.800,54 1.745,64 1.973,56 0,00 0,00 3.719,20 10.081,34 30/04/2021
973 255600 FERNANDA ALINA DE ALMEIDA ANDRADE OFICIAL DO MP BELO HORIZONTE - COMARCA; LABORATORIO TECNOLOGIA INTELIGENCIA 10.069,62 3.020,89 0,00 0,00 0,00 0,00 0,00 1.717,00 14.807,51 1.906,76 2.206,17 0,00 0,00 4.112,93 10.694,58 30/04/2021
974 443200 FERNANDA ALMEIDA LOPES ANALISTA DO MP CONTAGEM - COMARCA; CONTAGEM-PJ-23PJ 12.601,30 2.520,26 0,00 0,00 0,00 0,00 0,00 3.255,78 18.377,34 2.231,73 2.571,07 0,00 0,00 4.802,80 13.574,54 30/04/2021
975 281100 FERNANDA ANANIAS MEIRA ANALISTA DO MP BELO HORIZONTE - COMARCA; BH-23PJ INFRACIONAL-ASS JURIDICA 16.750,82 5.025,25 0,00 0,00 0,00 0,00 4.958,67 6.943,26 33.678,00 4.013,18 5.247,32 0,00 0,00 9.260,50 24.417,50 30/04/2021
976 539000 FERNANDA BARBOSA ALVES ANALISTA DO MP UBERABA - COMARCA; UBERABA-PJ-04PJ 9.146,93 914,69 0,00 0,00 0,00 0,00 0,00 2.486,39 12.548,01 1.422,14 1.506,50 0,00 0,00 2.928,64 9.619,37 30/04/2021
977 451200 FERNANDA BLOISE PRADO OFICIAL DO MP BELO HORIZONTE - COMARCA; DIVISAO DE MATERIAIS 8.170,49 1.634,10 0,00 0,00 0,00 0,00 0,00 1.717,00 11.521,59 1.381,01 1.447,12 0,00 0,00 2.828,13 8.693,46 30/04/2021
978 427900 FERNANDA BRAGA CARNEIRO BICALHO ANALISTA DO MP PEÇANHA - COMARCA; PECANHA-PJ-SECRETARIA 10.069,62 2.013,92 0,00 0,00 0,00 0,00 0,00 2.486,39 14.569,93 1.745,64 1.921,43 0,00 0,00 3.667,07 10.902,86 30/04/2021
979 507100 FERNANDA CABRINI VAZ MOTA ANALISTA DO MP BELO HORIZONTE - COMARCA; BH-14PJ DEFESA CONSUMIDOR-GAB 005PJ 10.069,62 1.006,96 0,00 0,00 0,00 0,00 0,00 3.255,78 14.332,36 1.584,53 1.740,95 0,00 0,00 3.325,48 11.006,88 30/04/2021
980 259800 FERNANDA CALZAVARA DE SOUSA COORDENADOR/OFICIAL BELO HORIZONTE - COMARCA; DIRET DE FORMACAO, APERFEIC. E POS-GRADUACAO 12.601,30 3.780,39 2.687,03 0,00 0,00 0,00 0,00 2.486,39 21.555,11 2.433,35 3.653,23 0,00 0,00 6.086,58 15.468,53 30/04/2021
981 494400 FERNANDA CAMPOS BARATA OFICIAL DO MP JUIZ DE FORA - COMARCA; JUIZ DE FORA-PJ-08PJ 6.123,79 612,38 0,00 0,00 0,00 0,00 0,00 1.717,00 8.453,17 890,06 738,32 0,00 0,00 1.628,38 6.824,79 30/04/2021
982 555600 FERNANDA CAROLINE RIBEIRO ANALISTA DO MP BELO HORIZONTE - COMARCA; DIRETORIA GESTAO CONTRATOS CONVENIOS 9.146,93 914,69 0,00 0,00 3.353,87 0,00 0,00 1.717,00 15.132,49 1.422,14 2.428,81 0,00 0,00 3.850,95 11.281,54 30/04/2021
983 692000 FERNANDA CESAR SILVA ASSESSOR PROCURADOR JUSTICA BELO HORIZONTE - COMARCA; GABINETE DE PROCURADOR DE JUSTIÇA - SALA 809 0,00 0,00 7.187,72 0,00 0,00 0,00 0,00 1.717,00 8.904,72 751,99 1.229,92 0,00 0,00 1.981,91 6.922,81 30/04/2021
984 294500 FERNANDA COSTA FLORES OFICIAL DO MP PARÁ DE MINAS - COMARCA; PARA DE MINAS-PJ-04PJ 10.069,62 3.020,89 0,00 0,00 0,00 0,00 0,00 1.717,00 14.807,51 1.906,76 2.206,17 0,00 0,00 4.112,93 10.694,58 30/04/2021
985 344500 FERNANDA CRISTINA DE SOUZA PAZ ASSESSOR BELO HORIZONTE - COMARCA; CENTRAL DE APOIO TECN-SETOR DE MEIO AMBIENTE 0,00 0,00 5.136,32 0,00 0,00 0,00 0,00 1.717,00 6.853,32 738,09 565,33 0,00 0,00 1.303,42 5.549,90 30/04/2021
986 538100 FERNANDA CRISTINA DOS SANTOS ROSA OFICIAL DO MP RIBEIRÃO DAS NEVES - COMARCA; RIBEIRAO DAS NEVES-PJ-09PJ 5.930,75 1.779,23 0,00 0,00 0,00 0,00 0,00 1.717,00 9.426,98 1.045,87 963,27 0,00 0,00 2.009,14 7.417,84 30/04/2021
987 337800 FERNANDA CRISTINA ROLAND CLIMACO MENDES COORDENADOR/OFICIAL BELO HORIZONTE - COMARCA; DIRETORIA DE PAGAMENTO DE PESSOAL-DPAG 0,00 4.030,55 13.435,16 0,00 0,00 0,00 64,04 2.415,63 19.945,38 2.118,07 3.351,24 0,00 0,00 5.469,31 14.476,07 30/04/2021
988 545400 FERNANDA CUNHA GUIMARAES ANALISTA DO MP BELO HORIZONTE - COMARCA; COORD EST DEF DIR FAM PESSOAS DEFICI IDOSOS 9.146,93 914,69 0,00 0,00 3.353,87 0,00 516,50 7.351,51 21.283,50 1.422,14 2.428,81 0,00 0,00 3.850,95 17.432,55 30/04/2021
989 429801 FERNANDA CUNHA PINHEIRO DA SILVA ANALISTA DO MP BELO HORIZONTE - COMARCA; ASSESSORIA DE COMUNICACAO INTEGRADA 10.069,62 1.006,96 0,00 0,00 0,00 0,00 0,00 1.717,00 12.793,58 1.584,53 1.688,82 0,00 0,00 3.273,35 9.520,23 30/04/2021
990 408000 FERNANDA DAS NEVES RAMOS ANALISTA DO MP BELO HORIZONTE - COMARCA; CENTRAL DE APOIO TECNICO-SETOR CONTABIL 13.011,52 2.602,30 0,00 0,00 0,00 0,00 0,00 2.486,39 18.100,21 2.310,49 2.789,06 0,00 0,00 5.099,55 13.000,66 30/04/2021
991 496000 FERNANDA DE ALMEIDA VIANA ANALISTA DO MP BELO HORIZONTE - COMARCA; PROC JUST ATUACAO TRIBUNAIS SUPERIORES-GAB002 10.069,62 1.006,96 0,00 0,00 0,00 0,00 0,00 2.486,39 13.562,97 1.584,53 1.688,82 0,00 0,00 3.273,35 10.289,62 30/04/2021
992 266700 FERNANDA DE CASTRO LUCAS COORDENADOR/OFICIAL BELO HORIZONTE - COMARCA; DIRET DE DESENV DE RECURSOS HUMANOS-DDRH 12.601,30 3.780,39 2.687,03 0,00 0,00 0,00 279,68 5.537,39 24.885,79 2.433,35 3.653,23 0,00 0,00 6.086,58 18.799,21 30/04/2021
993 433200 FERNANDA DE FIGUEIREDO NORTE ANALISTA DO MP BELO HORIZONTE - COMARCA; ASSESS JUR DO CONS SUPERIOR DO MINISTERIO PUB 13.011,52 2.602,30 0,00 0,00 0,00 0,00 0,00 2.486,39 18.100,21 2.310,49 2.684,78 0,00 0,00 4.995,27 13.104,94 30/04/2021
994 419200 FERNANDA DE MIRANDA MARTINS SIMOES ANALISTA DO MP UBERLÂNDIA - COMARCA; UBERLANDIA-PJ-17PJ 13.011,52 2.602,30 0,00 0,00 0,00 0,00 0,00 2.486,39 18.100,21 2.310,49 2.789,06 0,00 0,00 5.099,55 13.000,66 30/04/2021
995 441400 FERNANDA DE MORAIS PINTO ANALISTA DO MP BELO HORIZONTE - COMARCA; PROC. JUSTICA DIR. DIFUSOS E COLETIVOS-SEC 12.601,30 2.520,26 0,00 0,00 0,00 0,00 0,00 1.717,00 16.838,56 2.231,73 2.675,34 0,00 0,00 4.907,07 11.931,49 30/04/2021
996 432200 FERNANDA DE MOURA GUIMARAES ANALISTA DO MP BELO HORIZONTE - COMARCA; BH-26 CRIME CONT CRIAN ADOL-SECRETARIA 12.601,30 2.520,26 0,00 0,00 0,00 0,00 0,00 1.717,00 16.838,56 2.231,73 2.675,34 0,00 0,00 4.907,07 11.931,49 30/04/2021
997 461800 FERNANDA DE OLIVEIRA SANTOS ANALISTA DO MP JUIZ DE FORA - COMARCA; JUIZ DE FORA-PJ-21PJ 10.069,62 2.013,92 0,00 0,00 0,00 0,00 0,00 2.486,39 14.569,93 1.745,64 1.973,56 0,00 0,00 3.719,20 10.850,73 30/04/2021
998 432500 FERNANDA DE PAULA PINTO ANALISTA DO MP BELO HORIZONTE - COMARCA; PROC JUST RECURSOS ESP E EXTRAORD CRIMINAIS 12.601,30 2.520,26 0,00 0,00 0,00 0,00 0,00 1.717,00 16.838,56 2.231,73 2.675,34 0,00 0,00 4.907,07 11.931,49 30/04/2021
999 431600 FERNANDA DIAS BARBOSA PEREIRA ANALISTA DO MP BELO HORIZONTE - COMARCA; SUPERINTENDENCIA DE RECURSOS HUMANOS 12.601,30 2.520,26 0,00 0,00 0,00 0,00 388,12 6.720,43 22.230,11 2.231,73 2.571,07 0,00 0,00 4.802,80 17.427,31 30/04/2021
1000 162200 FERNANDA FERNANDES MONTEIRO ASSESSOR BELO HORIZONTE - COMARCA; BH-12PJ JUIZO CRIMINAL-SECRETARIA 0,00 2.054,53 5.136,32 0,00 0,00 0,00 0,00 1.717,00 8.907,85 751,99 1.178,64 0,00 0,00 1.930,63 6.977,22 30/04/2021
1001 512800 FERNANDA FERREIRA BARBOSA MOREIRA ANALISTA DO MP IPATINGA - COMARCA; IPATINGA-PJ-05PJ 10.069,62 1.006,96 0,00 0,00 0,00 0,00 0,00 2.486,39 13.562,97 1.584,53 1.740,95 0,00 0,00 3.325,48 10.237,49 30/04/2021
1002 329200 FERNANDA GABRIEL GUZELLA OFICIAL DO MP BELO HORIZONTE - COMARCA; DIRET DE PLANOS PROJETOS E PROGRAMAS INST 9.752,14 2.925,64 0,00 0,00 0,00 0,00 0,00 1.717,00 14.394,78 1.840,72 2.110,83 0,00 0,00 3.951,55 10.443,23 30/04/2021
1003 324200 FERNANDA GEORGIA NEVES ZAHAN OFICIAL DO MP IPANEMA - COMARCA; IPANEMA-PJ-SECRETARIA 8.436,53 5.905,57 0,00 0,00 0,00 0,00 0,00 1.717,00 16.059,10 2.107,01 2.495,29 0,00 0,00 4.602,30 11.456,80 30/04/2021
1004 548200 FERNANDA GONCALVES DE CARVALHO ZUZA OFICIAL DO MP TUPACIGUARA - COMARCA; TUPACIGUARA-PJ-UNPJ 5.930,75 593,08 0,00 0,00 0,00 0,00 0,00 1.717,00 8.240,83 856,09 689,27 0,00 0,00 1.545,36 6.695,47 30/04/2021
1005 355400 FERNANDA HELENA BASQUES OFICIAL DO MP SABARÁ - COMARCA; SABARA-PJ-01PJ 9.146,93 1.829,39 0,00 0,00 0,00 0,00 0,00 1.717,00 12.693,32 1.568,49 1.717,79 0,00 0,00 3.286,28 9.407,04 30/04/2021
1006 454800 FERNANDA IATAROLA BARBOSA DIAS ANALISTA DO MP BARBACENA - COMARCA; BARBACENA-PJ-05PJ 10.736,08 2.147,22 0,00 0,00 0,00 0,00 0,00 1.717,00 14.600,30 1.873,61 2.106,17 0,00 0,00 3.979,78 10.620,52 30/04/2021
1007 515500 FERNANDA LILIANE MARUGEIRO ANALISTA DO MP BELO HORIZONTE - COMARCA; BH-18PJ VIOLENCIA DOMESTICA-SECRETARIA 10.069,62 1.006,96 0,00 0,00 0,00 0,00 0,00 2.486,39 13.562,97 1.584,53 1.688,82 0,00 0,00 3.273,35 10.289,62 30/04/2021
1008 392900 FERNANDA MAGALHAES SILVA ANALISTA DO MP BELO HORIZONTE - COMARCA; CENTRO JORNALISMO 14.324,23 2.864,85 0,00 0,00 0,00 0,00 0,00 1.717,00 18.906,08 2.562,53 3.152,94 0,00 0,00 5.715,47 13.190,61 30/04/2021
1009 409200 FERNANDA MAIA SANTIAGO CARDOSO ANALISTA DO MP PIRAPORA - COMARCA; PIRAPORA-PJ-02PJ 10.069,62 2.013,92 0,00 0,00 0,00 0,00 0,00 2.486,39 14.569,93 1.745,64 1.973,56 0,00 0,00 3.719,20 10.850,73 30/04/2021
1010 556500 FERNANDA OTERO COSTA ANALISTA DO MP BELO HORIZONTE - COMARCA; ASSESS TECNICO-JUR JUNTO AS PROC. DE JUST 10.069,62 1.006,96 0,00 0,00 0,00 0,00 0,00 1.717,00 12.793,58 1.584,53 1.740,95 0,00 0,00 3.325,48 9.468,10 30/04/2021
1011 615300 FERNANDA PATRICIA RIBEIRO MOTA OFICIAL DO MP UBERABA - COMARCA; UBERABA-PJ-05PJ 4.974,42 497,44 0,00 0,00 0,00 0,00 0,00 1.717,00 7.188,86 694,23 444,49 0,00 0,00 1.138,72 6.050,14 30/04/2021
1012 619800 FERNANDA PINTO PEREIRA ANALISTA DO MP UBERLÂNDIA - COMARCA; UBERLANDIA-PJ-20PJ 8.436,53 843,65 0,00 0,00 0,00 0,00 0,00 2.486,39 11.766,57 1.297,11 1.273,85 0,00 0,00 2.570,96 9.195,61 30/04/2021
1013 412900 FERNANDA PORTELA ROSA ANALISTA DO MP BELO HORIZONTE - COMARCA; BH-08PJ JUIZADO ESPECIAL-SECRETARIA 13.011,52 2.602,30 0,00 0,00 0,00 0,00 0,00 2.486,39 18.100,21 2.310,49 2.789,06 0,00 0,00 5.099,55 13.000,66 30/04/2021
1014 274301 FERNANDA QUEIROZ PARREIRA ANALISTA DO MP PATOS DE MINAS - COMARCA; GAECO REGIONAL DE PATOS DE MINAS 10.069,62 1.006,96 0,00 0,00 0,00 0,00 0,00 1.717,00 12.793,58 1.584,53 1.740,95 0,00 0,00 3.325,48 9.468,10 30/04/2021
1015 467900 FERNANDA QUEIROZ SIMOES GANNAM ANALISTA DO MP SÃO LOURENÇO - COMARCA; SAO LOURENCO-PJ-02PJ 10.069,62 2.013,92 0,00 0,00 0,00 0,00 0,00 1.717,00 13.800,54 1.745,64 1.921,43 0,00 0,00 3.667,07 10.133,47 30/04/2021
1016 255500 FERNANDA SIMOES LOPES MENDES ANALISTA DO MP BELO HORIZONTE - COMARCA; BH-17PJ PATRIMONIO PUBLICO-SECRETARIA 18.103,37 5.431,01 0,00 0,00 0,00 0,00 0,00 1.717,00 25.251,38 3.577,78 4.514,43 0,00 0,00 8.092,21 17.159,17 30/04/2021
1017 481700 FERNANDA VIANA FROES DA SILVA OFICIAL DO MP GOVERNADOR VALADARES - COMARCA; GOVERNADOR VALADARES-PJ-09PJ 7.663,37 1.532,67 0,00 0,00 3.065,35 0,00 0,00 1.717,00 13.978,39 1.283,64 2.149,52 0,00 0,00 3.433,16 10.545,23 30/04/2021
1018 123900 FERNANDO ANTONIO FARIA DE ABREU ANALISTA DO MP BELO HORIZONTE - COMARCA; SUPERINTENDÊNCIA DE ENGENHARIA E ARQUITETURA 26.471,31 23.824,17 0,00 0,00 0,00 5.486,23 520,12 7.390,96 63.692,79 5.486,23 8.882,75 14.833,26 0,00 29.202,24 34.490,55 30/04/2021
1019 416900 FERNANDO APARECIDO DA SILVA ANALISTA DO MP BOM DESPACHO - COMARCA; BOM DESPACHO-PJ-02PJ 12.601,30 8.820,91 0,00 0,00 0,00 0,00 314,19 5.144,55 26.880,95 3.239,83 4.026,52 0,00 0,00 7.266,35 19.614,60 30/04/2021
1020 500100 FERNANDO CEZAR PINTO OFICIAL DO MP SANTA LUZIA - COMARCA; SANTA LUZIA-PJ-04PJ 7.663,37 766,34 0,00 0,00 0,00 0,00 0,00 1.717,00 10.146,71 1.161,03 1.077,39 0,00 0,00 2.238,42 7.908,29 30/04/2021
1021 346100 FERNANDO EUSTAQUIO CAMPOS UTSCH MOREIRA ANALISTA DO MP BELO HORIZONTE - COMARCA; DIRETORIA DE SISTEMAS DE INFORMACAO 15.272,02 4.581,61 0,00 0,00 0,00 0,00 1.689,60 3.488,56 25.031,79 3.233,21 4.016,96 0,00 0,00 7.250,17 17.781,62 30/04/2021
1022 103500 FERNANDO LUIZ DA SILVA JUNIOR OFICIAL DO MP BELO HORIZONTE - COMARCA; DIVISAO DE ATENDIMENTO E CONSULTA JURIDICA 18.820,14 9.410,07 0,00 0,00 0,00 0,00 0,00 1.717,00 29.947,21 4.329,11 5.703,44 0,00 0,00 10.032,55 19.914,66 30/04/2021
1023 287300 FERNANDO MARCIO ALVES MARTINS OFICIAL DO MP LEOPOLDINA - COMARCA; LEOPOLDINA-PJ-01PJ 8.579,10 2.573,73 0,00 0,00 0,00 0,00 0,00 1.717,00 12.869,83 1.596,73 1.654,29 0,00 0,00 3.251,02 9.618,81 30/04/2021
1024 472900 FERNANDO RODRIGUES DE FREITAS ANALISTA DO MP BELO HORIZONTE - COMARCA; BH-15PJ M AMB PAT HIST CULT-ASS TECNICA 10.069,62 2.013,92 0,00 0,00 0,00 0,00 0,00 1.717,00 13.800,54 1.745,64 1.973,56 0,00 0,00 3.719,20 10.081,34 30/04/2021
1025 421400 FERNANDO TEODORO MACIEL ANALISTA DO MP SANTA VITÓRIA - COMARCA; SANTA VITORIA-PJ-UNPJ 11.085,56 2.217,11 0,00 0,00 0,00 0,00 0,00 2.486,39 15.789,06 1.940,70 2.150,91 0,00 0,00 4.091,61 11.697,45 30/04/2021
1026 446300 FERNANDO VITOR DE OLIVEIRA ANALISTA DO MP MONTES CLAROS - COMARCA; COORD REG BACIA RIOS VERDE GRANDE E PARDO 12.601,30 2.520,26 0,00 0,00 0,00 0,00 332,67 5.346,17 20.800,40 2.231,73 2.675,34 0,00 0,00 4.907,07 15.893,33 30/04/2021
1027 639300 FILIPE ALMEIDA RODRIGUES ANALISTA DO MP IPATINGA - COMARCA; COORD REG SAUDE MACRORREGIAO SANIT VALE ACO 8.170,49 817,05 0,00 0,00 0,00 0,00 0,00 1.717,00 10.704,54 1.250,28 1.258,39 0,00 0,00 2.508,67 8.195,87 30/04/2021
1028 692600 FILIPPE WAGNER MAGALHAES ALAMY REIS ASSESSOR PROCURADOR JUSTICA BELO HORIZONTE - COMARCA; GABINETE DE PROCURADOR DE JUSTIÇA - SALA 604 0,00 0,00 7.187,72 0,00 0,00 0,00 0,00 1.717,00 8.904,72 751,99 1.229,92 0,00 0,00 1.981,91 6.922,81 30/04/2021
1029 398400 FLAVIA ALVARES GUIMARAES COORDENADOR/OFICIAL BELO HORIZONTE - COMARCA; CGMP-DIVIS DE APOIO FISC ORIENTACAO FUNCIONAL 0,00 2.363,83 11.819,15 0,00 0,00 0,00 0,00 1.717,00 15.899,98 1.459,46 2.577,47 0,00 0,00 4.036,93 11.863,05 30/04/2021
1030 398200 FLAVIA ALVES DE ASSUNCAO RODRIGUES ANALISTA DO MP DIVINÓPOLIS - COMARCA; COORD REG DO MA DA BACIA DO ALTO SAO FRANC 12.601,30 2.520,26 0,00 0,00 0,00 0,00 0,00 2.486,39 17.607,95 2.231,73 2.623,21 0,00 0,00 4.854,94 12.753,01 30/04/2021
1031 318500 FLAVIA BEATRIZ NUNES CRUZ VIEIRA ANALISTA DO MP BARBACENA - COMARCA; BARBACENA-PJ-SECRETARIA 16.750,82 5.025,25 0,00 0,00 0,00 0,00 0,00 1.717,00 23.493,07 3.296,45 4.108,26 0,00 0,00 7.404,71 16.088,36 30/04/2021
1032 496500 FLAVIA CARAM BORLIDO ANALISTA DO MP BELO HORIZONTE - COMARCA; DIRETORIA GESTAO CONTRATOS CONVENIOS 12.204,02 1.220,40 0,00 0,00 0,00 0,00 0,00 1.717,00 15.141,42 1.960,18 2.283,31 0,00 0,00 4.243,49 10.897,93 30/04/2021
1033 534800 FLAVIA CONDE SOARES ANALISTA DO MP BELO HORIZONTE - COMARCA; BH-13PJ JUÍZO DE TÓXICOS-ASSESSORIA JURIDICA 9.146,93 914,69 0,00 0,00 0,00 0,00 0,00 1.717,00 11.778,62 1.422,14 1.506,50 0,00 0,00 2.928,64 8.849,98 30/04/2021
1034 219500 FLAVIA CRISTINA ANCELMO OFICIAL DO MP BELO HORIZONTE - COMARCA; CAO-DH CONT EXT ATIV POLIC E AP COMUNIT 10.069,62 3.020,89 0,00 0,00 0,00 0,00 0,00 1.717,00 14.807,51 1.906,76 2.206,17 0,00 0,00 4.112,93 10.694,58 30/04/2021
1035 329600 FLAVIA CRISTINA DE MATOS XAVIER ANALISTA DO MP UBERABA - COMARCA; UBERABA-PJ-15PJ 16.750,82 5.025,25 0,00 0,00 0,00 0,00 479,07 6.943,26 29.198,40 3.296,45 4.108,26 0,00 0,00 7.404,71 21.793,69 30/04/2021
1036 207600 FLAVIA DE ANDRADE MANCINI ANALISTA DO MP BELO HORIZONTE - COMARCA; ASSESSORIA JURIDICO-ADMINISTRATIVA 18.820,14 7.528,06 0,00 0,00 0,00 0,00 483,05 6.986,64 33.817,89 4.027,99 5.112,29 0,00 0,00 9.140,28 24.677,61 30/04/2021
1037 402801 FLAVIA MARIA DE RESENDE NASCIMENTO ANALISTA DO MP SÃO JOÃO DEL REI - COMARCA; SAO JOAO DEL REI-PJ-04PJ 10.069,62 1.006,96 0,00 0,00 0,00 0,00 0,00 2.486,39 13.562,97 1.584,53 1.740,95 0,00 0,00 3.325,48 10.237,49 30/04/2021
1038 437500 FLAVIA MARIA TORRES MARCHETTI ANALISTA DO MP BELO HORIZONTE - COMARCA; BH-18PJ VIOLENCIA DOMESTICA-SECRETARIA 11.085,56 2.217,11 0,00 0,00 0,00 0,00 0,00 1.717,00 15.019,67 1.940,70 2.150,91 0,00 0,00 4.091,61 10.928,06 30/04/2021
1039 386000 FLAVIA NEVES BRIGIDO ASSESSOR/OFICIAL BELO HORIZONTE - COMARCA; PROMOT ESTADUAL DE DEF PATRI CULT E TUR DE MG 0,00 2.079,50 10.397,52 0,00 0,00 0,00 0,00 2.486,39 14.963,41 1.459,46 2.160,47 0,00 0,00 3.619,93 11.343,48 30/04/2021
1040 488600 FLAVIA PEREIRA COSTA ANALISTA DO MP BELO HORIZONTE - COMARCA; CENTRAL DE APOIO TECNICO 10.069,62 1.006,96 0,00 0,00 0,00 0,00 0,00 2.486,39 13.562,97 1.584,53 1.740,95 0,00 0,00 3.325,48 10.237,49 30/04/2021
1041 365400 FLAVIA PEREIRA DA SILVA AMARAL OFICIAL DO MP BELO HORIZONTE - COMARCA; BH-15PJ M AMB PAT HIST CULT-GAB 115PJ 9.752,14 1.950,43 0,00 0,00 0,00 0,00 0,00 1.717,00 13.419,57 1.684,69 1.885,56 0,00 0,00 3.570,25 9.849,32 30/04/2021
1042 515400 FLAVIA RODRIGUES DE OLIVEIRA E SILVA PAIVA ANALISTA DO MP CARATINGA - COMARCA; CARATINGA-PJ-05PJ 10.069,62 1.006,96 0,00 0,00 0,00 0,00 0,00 1.717,00 12.793,58 1.584,53 1.584,54 0,00 0,00 3.169,07 9.624,51 30/04/2021
1043 621600 FLAVIA SARMENTO RODRIGUES ANALISTA DO MP BELO HORIZONTE - COMARCA; DIV FISCAL ADM CONT TERCEIRIZACAO 8.436,53 843,65 0,00 0,00 0,00 0,00 2.852,68 1.717,00 13.849,86 1.297,11 2.110,47 0,00 0,00 3.407,58 10.442,28 30/04/2021
1044 535800 FLAVIA SILVA VALADAO OFICIAL DO MP TRÊS CORACOES - COMARCA; TRES CORACOES-PJ-02PJ 5.387,19 538,72 0,00 0,00 0,00 0,00 0,00 1.717,00 7.642,91 762,96 498,31 0,00 0,00 1.261,27 6.381,64 30/04/2021
1045 515300 FLAVIA VIEIRA OLIVEIRA GOMES ANALISTA DO MP BELO HORIZONTE - COMARCA; DIRETORIA GESTAO CONTRATOS CONVENIOS 10.069,62 1.006,96 0,00 0,00 0,00 0,00 0,00 1.717,00 12.793,58 1.584,53 1.740,95 0,00 0,00 3.325,48 9.468,10 30/04/2021
1046<